Wetterdaten: Mittwoch, 04.04.2018
Datum Zeit Temp. A. Pool Temp. Feuchte A. Luftdruck Regen Wind Richtung Richtung Sonnenschein ET UV Solar Taupunkt Windchill Windben Empfang
04.04.2018 00:00 10,6 C 7,2 C 83 % 1006,3 hPa 0,0 l/m 0,0 km/h (0 Bft) S-SW 196 0 min 0,000 mm 0,0 UV-I 0 W/m 7,8 C 10,6 C 0,0 km/h (0 Bft) 100,00 %
04.04.2018 00:02 10,2 C 7,2 C 84 % 1006,3 hPa 0,0 l/m 0,0 km/h (0 Bft) S-SW 196 0 min 0,000 mm 0,0 UV-I 0 W/m 7,6 C 10,2 C 0,0 km/h (0 Bft) 94,87 %
04.04.2018 00:04 9,8 C 7,2 C 86 % 1006,3 hPa 0,0 l/m 2,4 km/h (1 Bft) S-SW 196 0 min 0,000 mm 0,0 UV-I 0 W/m 7,6 C 9,8 C 4,8 km/h (1 Bft) 97,56 %
04.04.2018 00:06 9,7 C 7,2 C 86 % 1006,3 hPa 0,0 l/m 2,7 km/h (1 Bft) S-SW 196 0 min 0,000 mm 0,0 UV-I 0 W/m 7,5 C 9,7 C 4,8 km/h (1 Bft) 98,00 %
04.04.2018 00:08 9,6 C 7,2 C 87 % 1006,3 hPa 0,0 l/m 2,1 km/h (1 Bft) S-SW 196 0 min 0,000 mm 0,0 UV-I 0 W/m 7,5 C 9,6 C 3,2 km/h (1 Bft) 96,23 %
04.04.2018 00:10 9,7 C 7,2 C 88 % 1006,4 hPa 0,0 l/m 0,9 km/h (0 Bft) S-SW 196 0 min 0,000 mm 0,0 UV-I 0 W/m 7,8 C 9,7 C 1,6 km/h (1 Bft) 96,00 %
04.04.2018 00:12 9,9 C 7,2 C 87 % 1006,4 hPa 0,0 l/m 2,7 km/h (1 Bft) S-SW 196 0 min 0,000 mm 0,0 UV-I 0 W/m 7,8 C 9,9 C 4,8 km/h (1 Bft) 97,87 %
04.04.2018 00:14 10,3 C 7,2 C 85 % 1006,4 hPa 0,0 l/m 3,2 km/h (1 Bft) S-SW 196 0 min 0,000 mm 0,0 UV-I 0 W/m 7,9 C 10,3 C 4,8 km/h (1 Bft) 97,87 %
04.04.2018 00:16 10,2 C 7,2 C 85 % 1006,4 hPa 0,0 l/m 3,9 km/h (1 Bft) S-SW 196 0 min 0,000 mm 0,0 UV-I 0 W/m 7,8 C 10,2 C 4,8 km/h (1 Bft) 97,37 %
04.04.2018 00:18 10,1 C 7,2 C 85 % 1006,4 hPa 0,0 l/m 4,2 km/h (1 Bft) S-SW 196 0 min 0,000 mm 0,0 UV-I 0 W/m 7,7 C 10,1 C 4,8 km/h (1 Bft) 97,87 %
04.04.2018 00:20 10,0 C 7,2 C 85 % 1006,3 hPa 0,0 l/m 2,9 km/h (1 Bft) S-SW 196 0 min 0,000 mm 0,0 UV-I 0 W/m 7,6 C 10,0 C 4,8 km/h (1 Bft) 97,87 %
04.04.2018 00:22 9,7 C 7,2 C 86 % 1006,4 hPa 0,0 l/m 2,4 km/h (1 Bft) S-SW 196 0 min 0,000 mm 0,0 UV-I 0 W/m 7,5 C 9,7 C 3,2 km/h (1 Bft) 98,11 %
04.04.2018 00:24 9,6 C 7,2 C 87 % 1006,4 hPa 0,0 l/m 2,4 km/h (1 Bft) S-SW 196 0 min 0,000 mm 0,0 UV-I 0 W/m 7,5 C 9,6 C 3,2 km/h (1 Bft) 97,37 %
04.04.2018 00:26 9,7 C 7,2 C 88 % 1006,3 hPa 0,0 l/m 1,4 km/h (1 Bft) S-SW 196 0 min 0,000 mm 0,0 UV-I 0 W/m 7,8 C 9,7 C 3,2 km/h (1 Bft) 98,11 %
04.04.2018 00:28 9,9 C 7,2 C 87 % 1006,3 hPa 0,0 l/m 0,1 km/h (0 Bft) S-SW 196 0 min 0,000 mm 0,0 UV-I 0 W/m 7,8 C 9,9 C 1,6 km/h (1 Bft) 95,56 %
04.04.2018 00:30 10,1 C 7,2 C 86 % 1006,3 hPa 0,0 l/m 0,0 km/h (0 Bft) S-SW 196 0 min 0,000 mm 0,0 UV-I 0 W/m 7,9 C 10,1 C 0,0 km/h (0 Bft) 97,87 %
04.04.2018 00:32 10,3 C 7,2 C 85 % 1006,2 hPa 0,0 l/m 0,0 km/h (0 Bft) S-SW 196 0 min 0,000 mm 0,0 UV-I 0 W/m 7,9 C 10,3 C 0,0 km/h (0 Bft) 98,00 %
04.04.2018 00:34 10,4 C 7,2 C 84 % 1006,2 hPa 0,0 l/m 0,0 km/h (0 Bft) S-SW 196 0 min 0,000 mm 0,0 UV-I 0 W/m 7,8 C 10,4 C 0,0 km/h (0 Bft) 94,00 %
04.04.2018 00:36 10,3 C 7,2 C 84 % 1006,2 hPa 0,0 l/m 0,0 km/h (0 Bft) S-SW 196 0 min 0,000 mm 0,0 UV-I 0 W/m 7,7 C 10,3 C 0,0 km/h (0 Bft) 97,56 %
04.04.2018 00:38 10,2 C 7,2 C 84 % 1006,2 hPa 0,0 l/m 0,3 km/h (0 Bft) S-SW 196 0 min 0,000 mm 0,0 UV-I 0 W/m 7,6 C 10,2 C 3,2 km/h (1 Bft) 93,18 %
04.04.2018 00:40 10,1 C 7,2 C 85 % 1006,2 hPa 0,0 l/m 3,8 km/h (1 Bft) S-SW 196 0 min 0,000 mm 0,0 UV-I 0 W/m 7,7 C 10,1 C 4,8 km/h (1 Bft) 96,23 %
04.04.2018 00:42 9,8 C 7,2 C 86 % 1006,2 hPa 0,0 l/m 4,9 km/h (1 Bft) S-SW 196 0 min 0,000 mm 0,0 UV-I 0 W/m 7,6 C 9,8 C 6,4 km/h (2 Bft) 94,74 %
04.04.2018 00:44 9,7 C 7,2 C 86 % 1006,2 hPa 0,0 l/m 4,6 km/h (1 Bft) S-SW 196 0 min 0,000 mm 0,0 UV-I 0 W/m 7,5 C 9,7 C 4,8 km/h (1 Bft) 96,43 %
04.04.2018 00:46 9,6 C 7,2 C 86 % 1006,3 hPa 0,0 l/m 4,0 km/h (1 Bft) S-SW 196 0 min 0,000 mm 0,0 UV-I 0 W/m 7,4 C 9,6 C 4,8 km/h (1 Bft) 94,00 %
04.04.2018 00:48 9,6 C 7,2 C 87 % 1006,3 hPa 0,0 l/m 3,6 km/h (1 Bft) S-SW 196 0 min 0,000 mm 0,0 UV-I 0 W/m 7,5 C 9,6 C 4,8 km/h (1 Bft) 97,37 %
04.04.2018 00:50 9,8 C 7,2 C 86 % 1006,3 hPa 0,0 l/m 3,2 km/h (1 Bft) S-SW 196 0 min 0,000 mm 0,0 UV-I 0 W/m 7,6 C 9,8 C 4,8 km/h (1 Bft) 95,45 %
04.04.2018 00:52 9,9 C 7,2 C 86 % 1006,2 hPa 0,0 l/m 0,6 km/h (0 Bft) S-SW 196 0 min 0,000 mm 0,0 UV-I 0 W/m 7,7 C 9,9 C 3,2 km/h (1 Bft) 94,00 %
04.04.2018 00:54 9,8 C 7,2 C 86 % 1006,3 hPa 0,0 l/m 1,3 km/h (1 Bft) S-SW 196 0 min 0,000 mm 0,0 UV-I 0 W/m 7,6 C 9,8 C 3,2 km/h (1 Bft) 93,62 %
04.04.2018 00:56 9,8 C 7,2 C 86 % 1006,3 hPa 0,0 l/m 2,7 km/h (1 Bft) S-SW 196 0 min 0,000 mm 0,0 UV-I 0 W/m 7,6 C 9,8 C 3,2 km/h (1 Bft) 98,00 %
04.04.2018 00:58 9,8 C 7,2 C 86 % 1006,3 hPa 0,0 l/m 2,4 km/h (1 Bft) S-SW 196 0 min 0,000 mm 0,0 UV-I 0 W/m 7,6 C 9,8 C 3,2 km/h (1 Bft) 95,74 %
04.04.2018 01:00 9,7 C 7,2 C 87 % 1006,3 hPa 0,0 l/m 0,9 km/h (0 Bft) S-SW 196 0 min 0,000 mm 0,0 UV-I 0 W/m 7,6 C 9,7 C 3,2 km/h (1 Bft) 100,00 %
04.04.2018 01:02 9,7 C 7,2 C 87 % 1006,3 hPa 0,0 l/m 0,0 km/h (0 Bft) S-SW 196 0 min 0,000 mm 0,0 UV-I 0 W/m 7,6 C 9,7 C 0,0 km/h (0 Bft) 97,87 %
04.04.2018 01:04 9,7 C 7,2 C 87 % 1006,3 hPa 0,0 l/m 0,0 km/h (0 Bft) S-SW 196 0 min 0,000 mm 0,0 UV-I 0 W/m 7,6 C 9,7 C 0,0 km/h (0 Bft) 97,87 %
04.04.2018 01:06 9,7 C 7,2 C 86 % 1006,2 hPa 0,0 l/m 0,0 km/h (0 Bft) S-SW 196 0 min 0,000 mm 0,0 UV-I 0 W/m 7,5 C 9,7 C 0,0 km/h (0 Bft) 97,87 %
04.04.2018 01:08 9,7 C 7,2 C 87 % 1006,3 hPa 0,0 l/m 0,0 km/h (0 Bft) S-SW 196 0 min 0,000 mm 0,0 UV-I 0 W/m 7,6 C 9,7 C 0,0 km/h (0 Bft) 97,44 %
04.04.2018 01:10 9,7 C 7,2 C 87 % 1006,2 hPa 0,0 l/m 0,0 km/h (0 Bft) S-SW 196 0 min 0,000 mm 0,0 UV-I 0 W/m 7,6 C 9,7 C 0,0 km/h (0 Bft) 96,23 %
04.04.2018 01:12 9,7 C 7,2 C 87 % 1006,2 hPa 0,0 l/m 0,0 km/h (0 Bft) S-SW 196 0 min 0,000 mm 0,0 UV-I 0 W/m 7,6 C 9,7 C 0,0 km/h (0 Bft) 98,00 %
04.04.2018 01:14 9,7 C 7,2 C 87 % 1006,2 hPa 0,0 l/m 0,0 km/h (0 Bft) S-SW 196 0 min 0,000 mm 0,0 UV-I 0 W/m 7,6 C 9,7 C 0,0 km/h (0 Bft) 97,87 %
04.04.2018 01:16 9,7 C 7,2 C 86 % 1006,2 hPa 0,0 l/m 0,8 km/h (0 Bft) S-SW 196 0 min 0,000 mm 0,0 UV-I 0 W/m 7,5 C 9,7 C 3,2 km/h (1 Bft) 97,37 %
04.04.2018 01:18 9,8 C 7,2 C 86 % 1006,1 hPa 0,0 l/m 0,7 km/h (0 Bft) S-SW 196 0 min 0,000 mm 0,0 UV-I 0 W/m 7,6 C 9,8 C 3,2 km/h (1 Bft) 95,74 %
04.04.2018 01:20 9,9 C 7,2 C 86 % 1006,1 hPa 0,0 l/m 0,0 km/h (0 Bft) S-SW 196 0 min 0,000 mm 0,0 UV-I 0 W/m 7,7 C 9,9 C 0,0 km/h (0 Bft) 98,11 %
04.04.2018 01:22 10,1 C 7,2 C 85 % 1006,0 hPa 0,0 l/m 0,0 km/h (0 Bft) S-SW 196 0 min 0,000 mm 0,0 UV-I 0 W/m 7,7 C 10,1 C 0,0 km/h (0 Bft) 100,00 %
04.04.2018 01:24 10,1 C 7,2 C 85 % 1006,0 hPa 0,0 l/m 2,3 km/h (1 Bft) S-SW 195 0 min 0,000 mm 0,0 UV-I 0 W/m 7,7 C 10,1 C 4,8 km/h (1 Bft) 97,73 %
04.04.2018 01:26 10,2 C 7,2 C 84 % 1006,0 hPa 0,0 l/m 2,6 km/h (1 Bft) S-SW 195 0 min 0,000 mm 0,0 UV-I 0 W/m 7,6 C 10,2 C 3,2 km/h (1 Bft) 95,12 %
04.04.2018 01:28 10,2 C 7,2 C 84 % 1005,9 hPa 0,0 l/m 3,1 km/h (1 Bft) S-SW 195 0 min 0,000 mm 0,0 UV-I 0 W/m 7,6 C 10,2 C 4,8 km/h (1 Bft) 100,00 %
04.04.2018 01:30 10,3 C 7,2 C 84 % 1005,9 hPa 0,0 l/m 4,1 km/h (1 Bft) O 79 0 min 0,000 mm 0,0 UV-I 0 W/m 7,7 C 10,3 C 6,4 km/h (2 Bft) 97,87 %
04.04.2018 01:32 10,6 C 7,2 C 83 % 1005,9 hPa 0,0 l/m 4,5 km/h (1 Bft) O 79 0 min 0,000 mm 0,0 UV-I 0 W/m 7,8 C 10,6 C 4,8 km/h (1 Bft) 100,00 %
04.04.2018 01:34 10,6 C 7,2 C 82 % 1005,9 hPa 0,0 l/m 5,3 km/h (1 Bft) O-NO 74 0 min 0,000 mm 0,0 UV-I 0 W/m 7,7 C 10,6 C 6,4 km/h (2 Bft) 98,00 %
04.04.2018 01:36 10,6 C 7,2 C 83 % 1005,8 hPa 0,0 l/m 4,6 km/h (1 Bft) O-NO 74 0 min 0,000 mm 0,0 UV-I 0 W/m 7,8 C 10,6 C 6,4 km/h (2 Bft) 100,00 %
04.04.2018 01:38 10,4 C 7,2 C 83 % 1005,9 hPa 0,0 l/m 3,9 km/h (1 Bft) O-NO 74 0 min 0,000 mm 0,0 UV-I 0 W/m 7,6 C 10,4 C 4,8 km/h (1 Bft) 100,00 %
04.04.2018 01:40 10,4 C 7,2 C 83 % 1005,9 hPa 0,0 l/m 3,2 km/h (1 Bft) O-NO 74 0 min 0,000 mm 0,0 UV-I 0 W/m 7,6 C 10,4 C 4,8 km/h (1 Bft) 100,00 %
04.04.2018 01:42 10,4 C 7,2 C 84 % 1005,9 hPa 0,0 l/m 2,9 km/h (1 Bft) O-NO 74 0 min 0,000 mm 0,0 UV-I 0 W/m 7,8 C 10,4 C 3,2 km/h (1 Bft) 98,00 %
04.04.2018 01:44 10,2 C 7,2 C 85 % 1005,8 hPa 0,0 l/m 1,8 km/h (1 Bft) O-NO 74 0 min 0,000 mm 0,0 UV-I 0 W/m 7,8 C 10,2 C 3,2 km/h (1 Bft) 97,92 %
04.04.2018 01:46 9,8 C 7,2 C 85 % 1005,8 hPa 0,0 l/m 2,8 km/h (1 Bft) O-NO 74 0 min 0,000 mm 0,0 UV-I 0 W/m 7,4 C 9,8 C 3,2 km/h (1 Bft) 100,00 %
04.04.2018 01:48 9,7 C 7,2 C 86 % 1005,9 hPa 0,0 l/m 3,2 km/h (1 Bft) O-NO 74 0 min 0,000 mm 0,0 UV-I 0 W/m 7,5 C 9,7 C 4,8 km/h (1 Bft) 100,00 %
04.04.2018 01:50 9,5 C 7,2 C 87 % 1005,9 hPa 0,0 l/m 1,6 km/h (1 Bft) O-NO 74 0 min 0,000 mm 0,0 UV-I 0 W/m 7,4 C 9,5 C 3,2 km/h (1 Bft) 98,11 %
04.04.2018 01:52 9,4 C 7,2 C 87 % 1005,9 hPa 0,0 l/m 0,0 km/h (0 Bft) O-NO 74 0 min 0,000 mm 0,0 UV-I 0 W/m 7,3 C 9,4 C 0,0 km/h (0 Bft) 100,00 %
04.04.2018 01:54 9,4 C 7,2 C 88 % 1005,9 hPa 0,0 l/m 2,9 km/h (1 Bft) O-NO 74 0 min 0,000 mm 0,0 UV-I 0 W/m 7,5 C 9,4 C 4,8 km/h (1 Bft) 96,00 %
04.04.2018 01:56 9,4 C 7,2 C 88 % 1005,9 hPa 0,0 l/m 3,4 km/h (1 Bft) O 83 0 min 0,000 mm 0,0 UV-I 0 W/m 7,5 C 9,4 C 4,8 km/h (1 Bft) 96,15 %
04.04.2018 01:58 9,5 C 7,2 C 88 % 1005,9 hPa 0,0 l/m 2,0 km/h (1 Bft) O 83 0 min 0,000 mm 0,0 UV-I 0 W/m 7,6 C 9,5 C 4,8 km/h (1 Bft) 100,00 %
04.04.2018 02:00 9,5 C 7,2 C 87 % 1005,9 hPa 0,0 l/m 1,2 km/h (1 Bft) O 83 0 min 0,000 mm 0,0 UV-I 0 W/m 7,4 C 9,5 C 3,2 km/h (1 Bft) 98,11 %
04.04.2018 02:02 9,5 C 7,2 C 88 % 1005,9 hPa 0,0 l/m 0,0 km/h (0 Bft) O 83 0 min 0,000 mm 0,0 UV-I 0 W/m 7,6 C 9,5 C 0,0 km/h (0 Bft) 97,37 %
04.04.2018 02:04 9,7 C 7,2 C 88 % 1005,9 hPa 0,0 l/m 1,1 km/h (1 Bft) O 83 0 min 0,000 mm 0,0 UV-I 0 W/m 7,8 C 9,7 C 3,2 km/h (1 Bft) 100,00 %
04.04.2018 02:06 9,9 C 7,2 C 86 % 1005,9 hPa 0,0 l/m 1,2 km/h (1 Bft) O 83 0 min 0,000 mm 0,0 UV-I 0 W/m 7,7 C 9,9 C 3,2 km/h (1 Bft) 96,00 %
04.04.2018 02:08 10,1 C 7,2 C 85 % 1005,9 hPa 0,0 l/m 1,6 km/h (1 Bft) O 83 0 min 0,000 mm 0,0 UV-I 0 W/m 7,7 C 10,1 C 3,2 km/h (1 Bft) 100,00 %
04.04.2018 02:10 10,2 C 7,2 C 85 % 1005,9 hPa 0,0 l/m 1,5 km/h (1 Bft) O 83 0 min 0,000 mm 0,0 UV-I 0 W/m 7,8 C 10,2 C 3,2 km/h (1 Bft) 97,14 %
04.04.2018 02:12 10,1 C 7,2 C 85 % 1005,8 hPa 0,0 l/m 1,1 km/h (1 Bft) O 83 0 min 0,000 mm 0,0 UV-I 0 W/m 7,7 C 10,1 C 1,6 km/h (1 Bft) 96,00 %
04.04.2018 02:14 10,1 C 7,2 C 85 % 1005,8 hPa 0,0 l/m 1,9 km/h (1 Bft) O 83 0 min 0,000 mm 0,0 UV-I 0 W/m 7,7 C 10,1 C 3,2 km/h (1 Bft) 98,11 %
04.04.2018 02:16 10,0 C 7,2 C 85 % 1005,8 hPa 0,0 l/m 0,8 km/h (0 Bft) O 83 0 min 0,000 mm 0,0 UV-I 0 W/m 7,6 C 10,0 C 1,6 km/h (1 Bft) 100,00 %
04.04.2018 02:18 10,0 C 7,2 C 85 % 1005,8 hPa 0,0 l/m 0,8 km/h (0 Bft) O 83 0 min 0,000 mm 0,0 UV-I 0 W/m 7,6 C 10,0 C 1,6 km/h (1 Bft) 98,11 %
04.04.2018 02:20 10,1 C 7,2 C 85 % 1005,7 hPa 0,0 l/m 1,6 km/h (1 Bft) O 83 0 min 0,000 mm 0,0 UV-I 0 W/m 7,7 C 10,1 C 3,2 km/h (1 Bft) 100,00 %
04.04.2018 02:22 10,2 C 7,2 C 84 % 1005,7 hPa 0,0 l/m 1,9 km/h (1 Bft) O 83 0 min 0,000 mm 0,0 UV-I 0 W/m 7,6 C 10,2 C 3,2 km/h (1 Bft) 100,00 %
04.04.2018 02:24 10,1 C 7,2 C 84 % 1005,6 hPa 0,0 l/m 2,3 km/h (1 Bft) O 83 0 min 0,000 mm 0,0 UV-I 0 W/m 7,5 C 10,1 C 3,2 km/h (1 Bft) 98,00 %
04.04.2018 02:26 10,1 C 7,2 C 85 % 1005,6 hPa 0,0 l/m 2,2 km/h (1 Bft) O 83 0 min 0,000 mm 0,0 UV-I 0 W/m 7,7 C 10,1 C 3,2 km/h (1 Bft) 100,00 %
04.04.2018 02:28 10,2 C 7,2 C 84 % 1005,6 hPa 0,0 l/m 1,5 km/h (1 Bft) O 83 0 min 0,000 mm 0,0 UV-I 0 W/m 7,6 C 10,2 C 3,2 km/h (1 Bft) 100,00 %
04.04.2018 02:30 10,3 C 7,2 C 84 % 1005,6 hPa 0,0 l/m 0,2 km/h (0 Bft) O 83 0 min 0,000 mm 0,0 UV-I 0 W/m 7,7 C 10,3 C 1,6 km/h (1 Bft) 100,00 %
04.04.2018 02:32 10,2 C 7,2 C 84 % 1005,6 hPa 0,0 l/m 0,0 km/h (0 Bft) O 83 0 min 0,000 mm 0,0 UV-I 0 W/m 7,6 C 10,2 C 0,0 km/h (0 Bft) 100,00 %
04.04.2018 02:34 10,0 C 7,2 C 85 % 1005,6 hPa 0,0 l/m 0,0 km/h (0 Bft) O 83 0 min 0,000 mm 0,0 UV-I 0 W/m 7,6 C 10,0 C 0,0 km/h (0 Bft) 100,00 %
04.04.2018 02:36 9,8 C 7,2 C 85 % 1005,5 hPa 0,0 l/m 0,0 km/h (0 Bft) O 83 0 min 0,000 mm 0,0 UV-I 0 W/m 7,4 C 9,8 C 0,0 km/h (0 Bft) 100,00 %
04.04.2018 02:38 9,6 C 7,2 C 86 % 1005,6 hPa 0,0 l/m 0,0 km/h (0 Bft) O 83 0 min 0,000 mm 0,0 UV-I 0 W/m 7,4 C 9,6 C 0,0 km/h (0 Bft) 100,00 %
04.04.2018 02:40 9,4 C 7,2 C 87 % 1005,6 hPa 0,0 l/m 0,0 km/h (0 Bft) O 83 0 min 0,000 mm 0,0 UV-I 0 W/m 7,3 C 9,4 C 0,0 km/h (0 Bft) 100,00 %
04.04.2018 02:42 9,3 C 7,2 C 88 % 1005,6 hPa 0,0 l/m 0,0 km/h (0 Bft) O 83 0 min 0,000 mm 0,0 UV-I 0 W/m 7,4 C 9,3 C 0,0 km/h (0 Bft) 96,23 %
04.04.2018 02:44 9,4 C 7,2 C 88 % 1005,6 hPa 0,0 l/m 0,0 km/h (0 Bft) O 83 0 min 0,000 mm 0,0 UV-I 0 W/m 7,5 C 9,4 C 0,0 km/h (0 Bft) 100,00 %
04.04.2018 02:46 9,4 C 7,2 C 87 % 1005,5 hPa 0,0 l/m 0,0 km/h (0 Bft) O 83 0 min 0,000 mm 0,0 UV-I 0 W/m 7,3 C 9,4 C 0,0 km/h (0 Bft) 100,00 %
04.04.2018 02:48 9,6 C 7,2 C 87 % 1005,5 hPa 0,0 l/m 1,0 km/h (0 Bft) O 83 0 min 0,000 mm 0,0 UV-I 0 W/m 7,5 C 9,6 C 3,2 km/h (1 Bft) 100,00 %
04.04.2018 02:50 9,8 C 7,2 C 86 % 1005,4 hPa 0,0 l/m 2,7 km/h (1 Bft) O 83 0 min 0,000 mm 0,0 UV-I 0 W/m 7,6 C 9,8 C 3,2 km/h (1 Bft) 97,87 %
04.04.2018 02:52 9,9 C 7,2 C 85 % 1005,4 hPa 0,0 l/m 2,6 km/h (1 Bft) O 83 0 min 0,000 mm 0,0 UV-I 0 W/m 7,5 C 9,9 C 3,2 km/h (1 Bft) 100,00 %
04.04.2018 02:54 9,9 C 7,2 C 84 % 1005,4 hPa 0,0 l/m 2,3 km/h (1 Bft) O 83 0 min 0,000 mm 0,0 UV-I 0 W/m 7,3 C 9,9 C 3,2 km/h (1 Bft) 100,00 %
04.04.2018 02:56 10,0 C 7,2 C 84 % 1005,4 hPa 0,0 l/m 2,7 km/h (1 Bft) O 83 0 min 0,000 mm 0,0 UV-I 0 W/m 7,4 C 10,0 C 3,2 km/h (1 Bft) 100,00 %
04.04.2018 02:58 10,1 C 7,2 C 83 % 1005,5 hPa 0,0 l/m 2,3 km/h (1 Bft) O 83 0 min 0,000 mm 0,0 UV-I 0 W/m 7,3 C 10,1 C 3,2 km/h (1 Bft) 100,00 %
04.04.2018 03:00 10,4 C 7,2 C 82 % 1005,5 hPa 0,0 l/m 2,7 km/h (1 Bft) O 83 0 min 0,000 mm 0,0 UV-I 0 W/m 7,5 C 10,4 C 4,8 km/h (1 Bft) 100,00 %
04.04.2018 03:02 10,6 C 7,2 C 81 % 1005,5 hPa 0,0 l/m 2,2 km/h (1 Bft) O 83 0 min 0,000 mm 0,0 UV-I 0 W/m 7,5 C 10,6 C 3,2 km/h (1 Bft) 100,00 %
04.04.2018 03:04 10,6 C 7,2 C 80 % 1005,5 hPa 0,0 l/m 2,6 km/h (1 Bft) O 83 0 min 0,000 mm 0,0 UV-I 0 W/m 7,3 C 10,6 C 4,8 km/h (1 Bft) 100,00 %
04.04.2018 03:06 10,4 C 7,2 C 80 % 1005,5 hPa 0,0 l/m 3,0 km/h (1 Bft) O 83 0 min 0,000 mm 0,0 UV-I 0 W/m 7,1 C 10,4 C 4,8 km/h (1 Bft) 97,73 %
04.04.2018 03:08 10,0 C 7,2 C 82 % 1005,5 hPa 0,0 l/m 2,9 km/h (1 Bft) O 83 0 min 0,000 mm 0,0 UV-I 0 W/m 7,1 C 10,0 C 3,2 km/h (1 Bft) 98,00 %
04.04.2018 03:10 9,8 C 7,2 C 83 % 1005,5 hPa 0,0 l/m 3,5 km/h (1 Bft) O 82 0 min 0,000 mm 0,0 UV-I 0 W/m 7,1 C 9,8 C 4,8 km/h (1 Bft) 93,62 %
04.04.2018 03:12 9,7 C 7,2 C 84 % 1005,5 hPa 0,0 l/m 2,4 km/h (1 Bft) O 82 0 min 0,000 mm 0,0 UV-I 0 W/m 7,1 C 9,7 C 3,2 km/h (1 Bft) 95,12 %
04.04.2018 03:14 9,4 C 7,2 C 85 % 1005,5 hPa 0,0 l/m 3,4 km/h (1 Bft) O 83 0 min 0,000 mm 0,0 UV-I 0 W/m 7,0 C 9,4 C 4,8 km/h (1 Bft) 98,11 %
04.04.2018 03:16 9,2 C 7,2 C 86 % 1005,5 hPa 0,0 l/m 5,0 km/h (1 Bft) O 92 0 min 0,000 mm 0,0 UV-I 0 W/m 7,0 C 9,2 C 6,4 km/h (2 Bft) 97,87 %
04.04.2018 03:18 9,1 C 7,2 C 87 % 1005,5 hPa 0,0 l/m 4,9 km/h (1 Bft) O 92 0 min 0,000 mm 0,0 UV-I 0 W/m 7,1 C 9,1 C 6,4 km/h (2 Bft) 97,37 %
04.04.2018 03:20 9,1 C 7,2 C 87 % 1005,4 hPa 0,0 l/m 4,9 km/h (1 Bft) O 92 0 min 0,000 mm 0,0 UV-I 0 W/m 7,1 C 9,1 C 6,4 km/h (2 Bft) 96,43 %
04.04.2018 03:22 9,3 C 7,2 C 86 % 1005,5 hPa 0,0 l/m 5,2 km/h (1 Bft) O 92 0 min 0,000 mm 0,0 UV-I 0 W/m 7,1 C 9,3 C 6,4 km/h (2 Bft) 97,87 %
04.04.2018 03:24 9,5 C 7,2 C 85 % 1005,4 hPa 0,0 l/m 7,5 km/h (2 Bft) O-SO 105 0 min 0,000 mm 0,0 UV-I 0 W/m 7,1 C 8,7 C 9,7 km/h (2 Bft) 97,56 %
04.04.2018 03:26 9,7 C 7,2 C 84 % 1005,5 hPa 0,0 l/m 6,2 km/h (2 Bft) O-SO 109 0 min 0,000 mm 0,0 UV-I 0 W/m 7,1 C 9,7 C 9,7 km/h (2 Bft) 97,56 %
04.04.2018 03:28 10,1 C 7,2 C 82 % 1005,4 hPa 0,0 l/m 5,2 km/h (1 Bft) O-SO 110 0 min 0,000 mm 0,0 UV-I 0 W/m 7,2 C 10,1 C 9,7 km/h (2 Bft) 98,11 %
04.04.2018 03:30 9,9 C 7,2 C 82 % 1005,4 hPa 0,0 l/m 4,6 km/h (1 Bft) O 88 0 min 0,000 mm 0,0 UV-I 0 W/m 7,0 C 9,9 C 6,4 km/h (2 Bft) 95,74 %
04.04.2018 03:32 9,8 C 7,2 C 82 % 1005,4 hPa 0,0 l/m 5,0 km/h (1 Bft) O 96 0 min 0,000 mm 0,0 UV-I 0 W/m 6,9 C 9,8 C 9,7 km/h (2 Bft) 97,87 %
04.04.2018 03:34 9,7 C 7,2 C 83 % 1005,4 hPa 0,0 l/m 5,7 km/h (1 Bft) O 98 0 min 0,000 mm 0,0 UV-I 0 W/m 7,0 C 9,7 C 9,7 km/h (2 Bft) 98,00 %
04.04.2018 03:36 9,7 C 7,2 C 83 % 1005,4 hPa 0,0 l/m 5,8 km/h (2 Bft) O 94 0 min 0,000 mm 0,0 UV-I 0 W/m 7,0 C 9,7 C 11,3 km/h (2 Bft) 98,00 %
04.04.2018 03:38 9,9 C 7,2 C 82 % 1005,5 hPa 0,0 l/m 6,1 km/h (2 Bft) O-SO 105 0 min 0,000 mm 0,0 UV-I 0 W/m 7,0 C 9,9 C 9,7 km/h (2 Bft) 97,44 %
04.04.2018 03:40 10,3 C 7,2 C 80 % 1005,5 hPa 0,0 l/m 5,5 km/h (1 Bft) O-SO 107 0 min 0,000 mm 0,0 UV-I 0 W/m 7,0 C 10,3 C 8,0 km/h (2 Bft) 98,11 %
04.04.2018 03:42 10,3 C 7,2 C 79 % 1005,5 hPa 0,0 l/m 3,9 km/h (1 Bft) O 94 0 min 0,000 mm 0,0 UV-I 0 W/m 6,8 C 10,3 C 9,7 km/h (2 Bft) 97,87 %
04.04.2018 03:44 10,6 C 7,2 C 78 % 1005,5 hPa 0,0 l/m 7,4 km/h (2 Bft) O 91 0 min 0,000 mm 0,0 UV-I 0 W/m 6,9 C 9,9 C 11,3 km/h (2 Bft) 98,00 %
04.04.2018 03:46 10,9 C 7,2 C 77 % 1005,5 hPa 0,0 l/m 6,7 km/h (2 Bft) O 99 0 min 0,000 mm 0,0 UV-I 0 W/m 7,0 C 10,7 C 11,3 km/h (2 Bft) 100,00 %
04.04.2018 03:48 11,0 C 7,2 C 76 % 1005,5 hPa 0,0 l/m 6,9 km/h (2 Bft) O 92 0 min 0,000 mm 0,0 UV-I 0 W/m 6,9 C 10,7 C 11,3 km/h (2 Bft) 100,00 %
04.04.2018 03:50 10,8 C 7,2 C 77 % 1005,6 hPa 0,0 l/m 4,2 km/h (1 Bft) O 94 0 min 0,000 mm 0,0 UV-I 0 W/m 6,9 C 10,8 C 6,4 km/h (2 Bft) 100,00 %
04.04.2018 03:52 10,4 C 7,2 C 78 % 1005,6 hPa 0,0 l/m 2,8 km/h (1 Bft) O-SO 104 0 min 0,000 mm 0,0 UV-I 0 W/m 6,7 C 10,4 C 4,8 km/h (1 Bft) 100,00 %
04.04.2018 03:54 10,0 C 7,2 C 80 % 1005,6 hPa 0,0 l/m 3,0 km/h (1 Bft) SO 142 0 min 0,000 mm 0,0 UV-I 0 W/m 6,7 C 10,0 C 4,8 km/h (1 Bft) 100,00 %
04.04.2018 03:56 9,6 C 7,2 C 81 % 1005,5 hPa 0,0 l/m 2,7 km/h (1 Bft) SO 141 0 min 0,000 mm 0,0 UV-I 0 W/m 6,5 C 9,6 C 4,8 km/h (1 Bft) 100,00 %
04.04.2018 03:58 9,3 C 7,2 C 83 % 1005,5 hPa 0,0 l/m 3,1 km/h (1 Bft) SO 141 0 min 0,000 mm 0,0 UV-I 0 W/m 6,6 C 9,3 C 4,8 km/h (1 Bft) 97,73 %
04.04.2018 04:00 9,1 C 7,2 C 84 % 1005,5 hPa 0,0 l/m 2,9 km/h (1 Bft) O 98 0 min 0,025 mm 0,0 UV-I 0 W/m 6,5 C 9,1 C 6,4 km/h (2 Bft) 98,21 %
04.04.2018 04:02 9,1 C 7,2 C 84 % 1005,5 hPa 0,0 l/m 2,5 km/h (1 Bft) O 98 0 min 0,000 mm 0,0 UV-I 0 W/m 6,5 C 9,1 C 3,2 km/h (1 Bft) 97,14 %
04.04.2018 04:04 9,0 C 7,2 C 85 % 1005,4 hPa 0,0 l/m 1,8 km/h (1 Bft) O 98 0 min 0,000 mm 0,0 UV-I 0 W/m 6,6 C 9,0 C 3,2 km/h (1 Bft) 97,87 %
04.04.2018 04:06 8,9 C 7,2 C 85 % 1005,6 hPa 0,0 l/m 3,0 km/h (1 Bft) S-SO 166 0 min 0,000 mm 0,0 UV-I 0 W/m 6,5 C 8,9 C 4,8 km/h (1 Bft) 97,37 %
04.04.2018 04:08 8,9 C 7,2 C 85 % 1005,6 hPa 0,0 l/m 4,1 km/h (1 Bft) S 188 0 min 0,000 mm 0,0 UV-I 0 W/m 6,5 C 8,9 C 6,4 km/h (2 Bft) 98,00 %
04.04.2018 04:10 8,8 C 7,2 C 85 % 1005,7 hPa 0,0 l/m 5,1 km/h (1 Bft) W-SW 244 0 min 0,000 mm 0,0 UV-I 0 W/m 6,4 C 8,8 C 6,4 km/h (2 Bft) 97,87 %
04.04.2018 04:12 8,7 C 7,2 C 86 % 1005,7 hPa 0,0 l/m 5,6 km/h (1 Bft) W-SW 247 0 min 0,000 mm 0,0 UV-I 0 W/m 6,5 C 8,7 C 8,0 km/h (2 Bft) 98,00 %
04.04.2018 04:14 8,5 C 7,2 C 87 % 1005,7 hPa 0,0 l/m 5,8 km/h (2 Bft) W-SW 245 0 min 0,000 mm 0,0 UV-I 0 W/m 6,5 C 8,5 C 6,4 km/h (2 Bft) 97,87 %
04.04.2018 04:16 8,4 C 7,2 C 88 % 1005,7 hPa 0,0 l/m 5,6 km/h (1 Bft) W-SW 244 0 min 0,000 mm 0,0 UV-I 0 W/m 6,5 C 8,4 C 8,0 km/h (2 Bft) 95,83 %
04.04.2018 04:18 8,6 C 7,2 C 88 % 1005,8 hPa 0,0 l/m 5,0 km/h (1 Bft) W-SW 244 0 min 0,000 mm 0,0 UV-I 0 W/m 6,7 C 8,6 C 6,4 km/h (2 Bft) 98,00 %
04.04.2018 04:20 8,7 C 7,2 C 87 % 1005,7 hPa 0,0 l/m 4,8 km/h (1 Bft) W-SW 244 0 min 0,000 mm 0,0 UV-I 0 W/m 6,7 C 8,7 C 6,4 km/h (2 Bft) 94,74 %
04.04.2018 04:22 8,7 C 7,2 C 87 % 1005,8 hPa 0,0 l/m 4,0 km/h (1 Bft) W-SW 244 0 min 0,000 mm 0,0 UV-I 0 W/m 6,7 C 8,7 C 4,8 km/h (1 Bft) 95,12 %
04.04.2018 04:24 8,6 C 7,2 C 87 % 1005,9 hPa 0,0 l/m 3,4 km/h (1 Bft) W-SW 244 0 min 0,000 mm 0,0 UV-I 0 W/m 6,6 C 8,6 C 4,8 km/h (1 Bft) 96,92 %
04.04.2018 04:26 8,6 C 7,2 C 87 % 1005,9 hPa 0,0 l/m 2,4 km/h (1 Bft) W-SW 244 0 min 0,000 mm 0,0 UV-I 0 W/m 6,6 C 8,6 C 3,2 km/h (1 Bft) 97,14 %
04.04.2018 04:28 8,5 C 7,2 C 87 % 1005,9 hPa 0,0 l/m 3,0 km/h (1 Bft) W-SW 244 0 min 0,000 mm 0,0 UV-I 0 W/m 6,5 C 8,5 C 3,2 km/h (1 Bft) 95,74 %
04.04.2018 04:30 8,5 C 7,2 C 88 % 1005,9 hPa 0,0 l/m 2,7 km/h (1 Bft) W-SW 244 0 min 0,000 mm 0,0 UV-I 0 W/m 6,6 C 8,5 C 3,2 km/h (1 Bft) 97,87 %
04.04.2018 04:32 8,4 C 7,2 C 87 % 1005,9 hPa 0,0 l/m 2,9 km/h (1 Bft) W-SW 244 0 min 0,000 mm 0,0 UV-I 0 W/m 6,4 C 8,4 C 3,2 km/h (1 Bft) 98,00 %
04.04.2018 04:34 8,2 C 7,2 C 88 % 1005,9 hPa 0,0 l/m 2,9 km/h (1 Bft) W-SW 244 0 min 0,000 mm 0,0 UV-I 0 W/m 6,3 C 8,2 C 3,2 km/h (1 Bft) 95,74 %
04.04.2018 04:36 8,1 C 7,2 C 88 % 1006,0 hPa 0,0 l/m 3,1 km/h (1 Bft) W-SW 244 0 min 0,000 mm 0,0 UV-I 0 W/m 6,2 C 8,1 C 3,2 km/h (1 Bft) 98,00 %
04.04.2018 04:38 8,1 C 7,2 C 89 % 1006,0 hPa 0,0 l/m 2,4 km/h (1 Bft) W-SW 244 0 min 0,000 mm 0,0 UV-I 0 W/m 6,4 C 8,1 C 3,2 km/h (1 Bft) 97,87 %
04.04.2018 04:40 8,2 C 7,2 C 89 % 1006,0 hPa 0,0 l/m 3,3 km/h (1 Bft) W-SW 244 0 min 0,000 mm 0,0 UV-I 0 W/m 6,5 C 8,2 C 4,8 km/h (1 Bft) 97,73 %
04.04.2018 04:42 8,4 C 7,2 C 89 % 1006,0 hPa 0,0 l/m 3,4 km/h (1 Bft) W-SW 244 0 min 0,000 mm 0,0 UV-I 0 W/m 6,7 C 8,4 C 4,8 km/h (1 Bft) 98,00 %
04.04.2018 04:44 8,3 C 7,2 C 88 % 1006,0 hPa 0,0 l/m 4,1 km/h (1 Bft) W-SW 244 0 min 0,000 mm 0,0 UV-I 0 W/m 6,4 C 8,3 C 4,8 km/h (1 Bft) 94,00 %
04.04.2018 04:46 8,2 C 7,2 C 88 % 1006,1 hPa 0,0 l/m 4,6 km/h (1 Bft) W-SW 244 0 min 0,000 mm 0,0 UV-I 0 W/m 6,3 C 8,2 C 4,8 km/h (1 Bft) 100,00 %
04.04.2018 04:48 8,2 C 7,2 C 88 % 1006,1 hPa 0,0 l/m 5,0 km/h (1 Bft) W-SW 244 0 min 0,000 mm 0,0 UV-I 0 W/m 6,3 C 8,2 C 6,4 km/h (2 Bft) 95,74 %
04.04.2018 04:50 8,2 C 7,2 C 89 % 1006,1 hPa 0,0 l/m 4,4 km/h (1 Bft) W-SW 244 0 min 0,000 mm 0,0 UV-I 0 W/m 6,5 C 8,2 C 4,8 km/h (1 Bft) 96,23 %
04.04.2018 04:52 7,9 C 7,2 C 89 % 1006,1 hPa 0,0 l/m 4,6 km/h (1 Bft) W-SW 244 0 min 0,000 mm 0,0 UV-I 0 W/m 6,2 C 7,9 C 6,4 km/h (2 Bft) 97,22 %
04.04.2018 04:54 7,8 C 7,2 C 90 % 1006,1 hPa 0,0 l/m 4,8 km/h (1 Bft) W-SW 244 0 min 0,000 mm 0,0 UV-I 0 W/m 6,3 C 7,8 C 6,4 km/h (2 Bft) 98,11 %
04.04.2018 04:56 7,9 C 7,2 C 91 % 1006,1 hPa 0,0 l/m 4,8 km/h (1 Bft) W-SW 244 0 min 0,000 mm 0,0 UV-I 0 W/m 6,5 C 7,9 C 6,4 km/h (2 Bft) 98,08 %
04.04.2018 04:58 8,2 C 7,2 C 90 % 1006,1 hPa 0,0 l/m 4,2 km/h (1 Bft) W-SW 244 0 min 0,000 mm 0,0 UV-I 0 W/m 6,7 C 8,2 C 4,8 km/h (1 Bft) 97,22 %
04.04.2018 05:00 8,1 C 7,2 C 89 % 1006,1 hPa 0,0 l/m 4,3 km/h (1 Bft) W-SW 244 0 min 0,000 mm 0,0 UV-I 0 W/m 6,4 C 8,1 C 4,8 km/h (1 Bft) 98,00 %
04.04.2018 05:02 8,1 C 7,2 C 90 % 1006,2 hPa 0,0 l/m 3,9 km/h (1 Bft) W-SW 244 0 min 0,000 mm 0,0 UV-I 0 W/m 6,6 C 8,1 C 4,8 km/h (1 Bft) 98,11 %
04.04.2018 05:04 8,0 C 7,2 C 90 % 1006,1 hPa 0,0 l/m 4,8 km/h (1 Bft) W-SW 243 0 min 0,000 mm 0,0 UV-I 0 W/m 6,5 C 8,0 C 6,4 km/h (2 Bft) 96,00 %
04.04.2018 05:06 8,0 C 7,2 C 90 % 1006,1 hPa 0,0 l/m 5,9 km/h (2 Bft) S-SW 194 0 min 0,000 mm 0,0 UV-I 0 W/m 6,5 C 8,0 C 8,0 km/h (2 Bft) 97,73 %
04.04.2018 05:08 8,0 C 7,2 C 90 % 1006,1 hPa 0,0 l/m 6,3 km/h (2 Bft) S 182 0 min 0,000 mm 0,0 UV-I 0 W/m 6,5 C 8,0 C 8,0 km/h (2 Bft) 97,56 %
04.04.2018 05:10 8,1 C 7,2 C 91 % 1006,1 hPa 0,0 l/m 5,4 km/h (1 Bft) S 182 0 min 0,000 mm 0,0 UV-I 0 W/m 6,7 C 8,1 C 8,0 km/h (2 Bft) 95,74 %
04.04.2018 05:12 8,1 C 7,2 C 90 % 1006,1 hPa 0,0 l/m 4,0 km/h (1 Bft) S 182 0 min 0,000 mm 0,0 UV-I 0 W/m 6,6 C 8,1 C 4,8 km/h (1 Bft) 98,11 %
04.04.2018 05:14 8,1 C 7,2 C 91 % 1006,1 hPa 0,0 l/m 5,2 km/h (1 Bft) S 183 0 min 0,000 mm 0,0 UV-I 0 W/m 6,7 C 8,1 C 8,0 km/h (2 Bft) 98,00 %
04.04.2018 05:16 8,3 C 7,2 C 91 % 1006,1 hPa 0,0 l/m 4,8 km/h (1 Bft) S 183 0 min 0,000 mm 0,0 UV-I 0 W/m 6,9 C 8,3 C 6,4 km/h (2 Bft) 97,56 %
04.04.2018 05:18 8,4 C 7,2 C 90 % 1006,1 hPa 0,0 l/m 3,6 km/h (1 Bft) S 183 0 min 0,000 mm 0,0 UV-I 0 W/m 6,9 C 8,4 C 4,8 km/h (1 Bft) 100,00 %
04.04.2018 05:20 8,6 C 7,2 C 89 % 1006,1 hPa 0,0 l/m 3,0 km/h (1 Bft) S 183 0 min 0,000 mm 0,0 UV-I 0 W/m 6,9 C 8,6 C 4,8 km/h (1 Bft) 100,00 %
04.04.2018 05:22 8,5 C 7,2 C 89 % 1006,1 hPa 0,0 l/m 2,2 km/h (1 Bft) S 183 0 min 0,000 mm 0,0 UV-I 0 W/m 6,8 C 8,5 C 3,2 km/h (1 Bft) 98,21 %
04.04.2018 05:24 8,4 C 7,2 C 89 % 1006,2 hPa 0,0 l/m 2,3 km/h (1 Bft) S 183 0 min 0,000 mm 0,0 UV-I 0 W/m 6,7 C 8,4 C 4,8 km/h (1 Bft) 100,00 %
04.04.2018 05:26 8,4 C 7,2 C 90 % 1006,2 hPa 0,0 l/m 4,2 km/h (1 Bft) S 183 0 min 0,000 mm 0,0 UV-I 0 W/m 6,9 C 8,4 C 4,8 km/h (1 Bft) 97,37 %
04.04.2018 05:28 8,6 C 7,2 C 89 % 1006,2 hPa 0,0 l/m 3,9 km/h (1 Bft) S 183 0 min 0,000 mm 0,0 UV-I 0 W/m 6,9 C 8,6 C 6,4 km/h (2 Bft) 98,11 %
04.04.2018 05:30 8,7 C 7,2 C 88 % 1006,2 hPa 0,0 l/m 3,4 km/h (1 Bft) S 183 0 min 0,000 mm 0,0 UV-I 0 W/m 6,8 C 8,7 C 4,8 km/h (1 Bft) 96,00 %
04.04.2018 05:32 8,6 C 7,2 C 88 % 1006,2 hPa 0,0 l/m 3,6 km/h (1 Bft) S 183 0 min 0,000 mm 0,0 UV-I 0 W/m 6,7 C 8,6 C 4,8 km/h (1 Bft) 97,22 %
04.04.2018 05:34 8,4 C 7,2 C 89 % 1006,3 hPa 0,0 l/m 3,1 km/h (1 Bft) S 183 0 min 0,000 mm 0,0 UV-I 0 W/m 6,7 C 8,4 C 3,2 km/h (1 Bft) 98,11 %
04.04.2018 05:36 8,6 C 7,2 C 88 % 1006,2 hPa 0,0 l/m 2,9 km/h (1 Bft) S 183 0 min 0,000 mm 0,0 UV-I 0 W/m 6,7 C 8,6 C 3,2 km/h (1 Bft) 98,00 %
04.04.2018 05:38 8,6 C 7,2 C 88 % 1006,2 hPa 0,0 l/m 3,9 km/h (1 Bft) S 183 0 min 0,000 mm 0,0 UV-I 0 W/m 6,7 C 8,6 C 4,8 km/h (1 Bft) 98,00 %
04.04.2018 05:40 8,4 C 7,2 C 88 % 1006,2 hPa 0,0 l/m 5,1 km/h (1 Bft) S 183 0 min 0,000 mm 0,0 UV-I 0 W/m 6,5 C 8,4 C 6,4 km/h (2 Bft) 95,12 %
04.04.2018 05:42 8,2 C 7,2 C 89 % 1006,2 hPa 0,0 l/m 3,4 km/h (1 Bft) S 183 0 min 0,000 mm 0,0 UV-I 0 W/m 6,5 C 8,2 C 4,8 km/h (1 Bft) 95,74 %
04.04.2018 05:44 7,9 C 7,2 C 90 % 1006,2 hPa 0,0 l/m 3,5 km/h (1 Bft) S 183 0 min 0,000 mm 0,0 UV-I 0 W/m 6,4 C 7,9 C 4,8 km/h (1 Bft) 97,56 %
04.04.2018 05:46 7,8 C 7,2 C 90 % 1006,1 hPa 0,0 l/m 4,6 km/h (1 Bft) S 183 0 min 0,000 mm 0,0 UV-I 0 W/m 6,3 C 7,8 C 4,8 km/h (1 Bft) 98,00 %
04.04.2018 05:48 7,9 C 7,2 C 92 % 1006,2 hPa 0,0 l/m 3,7 km/h (1 Bft) S 183 0 min 0,000 mm 0,0 UV-I 0 W/m 6,7 C 7,9 C 4,8 km/h (1 Bft) 94,34 %
04.04.2018 05:50 8,1 C 7,2 C 91 % 1006,2 hPa 0,0 l/m 3,5 km/h (1 Bft) S 183 0 min 0,000 mm 0,0 UV-I 0 W/m 6,7 C 8,1 C 4,8 km/h (1 Bft) 97,37 %
04.04.2018 05:52 8,2 C 7,2 C 91 % 1006,2 hPa 0,0 l/m 2,0 km/h (1 Bft) S 183 0 min 0,000 mm 0,0 UV-I 0 W/m 6,8 C 8,2 C 3,2 km/h (1 Bft) 97,87 %
04.04.2018 05:54 8,2 C 7,2 C 90 % 1006,1 hPa 0,0 l/m 1,9 km/h (1 Bft) S 183 0 min 0,000 mm 0,0 UV-I 0 W/m 6,7 C 8,2 C 3,2 km/h (1 Bft) 98,00 %
04.04.2018 05:56 8,2 C 7,2 C 90 % 1006,1 hPa 0,0 l/m 2,0 km/h (1 Bft) S 183 0 min 0,000 mm 0,0 UV-I 0 W/m 6,7 C 8,2 C 4,8 km/h (1 Bft) 98,11 %
04.04.2018 05:58 8,3 C 7,2 C 90 % 1006,1 hPa 0,0 l/m 2,1 km/h (1 Bft) S 183 0 min 0,000 mm 0,0 UV-I 0 W/m 6,8 C 8,3 C 3,2 km/h (1 Bft) 97,37 %
04.04.2018 06:00 8,4 C 7,2 C 90 % 1006,1 hPa 0,0 l/m 1,9 km/h (1 Bft) S 183 0 min 0,000 mm 0,0 UV-I 0 W/m 6,9 C 8,4 C 3,2 km/h (1 Bft) 98,11 %
04.04.2018 06:02 8,4 C 7,2 C 89 % 1006,0 hPa 0,0 l/m 1,7 km/h (1 Bft) S 183 0 min 0,000 mm 0,0 UV-I 0 W/m 6,7 C 8,4 C 3,2 km/h (1 Bft) 97,56 %
04.04.2018 06:04 8,3 C 7,2 C 89 % 1006,0 hPa 0,0 l/m 0,3 km/h (0 Bft) S 183 0 min 0,000 mm 0,0 UV-I 0 W/m 6,6 C 8,3 C 3,2 km/h (1 Bft) 96,00 %
04.04.2018 06:06 8,3 C 7,2 C 90 % 1005,9 hPa 0,0 l/m 1,9 km/h (1 Bft) S 183 0 min 0,000 mm 0,0 UV-I 0 W/m 6,8 C 8,3 C 3,2 km/h (1 Bft) 97,87 %
04.04.2018 06:08 8,2 C 7,2 C 90 % 1005,9 hPa 0,0 l/m 1,9 km/h (1 Bft) S 183 0 min 0,000 mm 0,0 UV-I 0 W/m 6,7 C 8,2 C 3,2 km/h (1 Bft) 98,11 %
04.04.2018 06:10 8,1 C 7,2 C 90 % 1005,9 hPa 0,0 l/m 1,8 km/h (1 Bft) S 183 0 min 0,000 mm 0,0 UV-I 0 W/m 6,6 C 8,1 C 3,2 km/h (1 Bft) 100,00 %
04.04.2018 06:12 8,2 C 7,2 C 90 % 1005,9 hPa 0,0 l/m 1,5 km/h (1 Bft) S 183 0 min 0,000 mm 0,0 UV-I 0 W/m 6,7 C 8,2 C 3,2 km/h (1 Bft) 98,11 %
04.04.2018 06:14 8,2 C 7,2 C 90 % 1005,9 hPa 0,0 l/m 2,1 km/h (1 Bft) S 183 0 min 0,000 mm 0,0 UV-I 0 W/m 6,7 C 8,2 C 3,2 km/h (1 Bft) 100,00 %
04.04.2018 06:16 8,3 C 7,2 C 90 % 1005,9 hPa 0,0 l/m 0,2 km/h (0 Bft) S 183 0 min 0,000 mm 0,0 UV-I 0 W/m 6,8 C 8,3 C 1,6 km/h (1 Bft) 97,56 %
04.04.2018 06:18 8,3 C 7,2 C 90 % 1005,9 hPa 0,0 l/m 0,0 km/h (0 Bft) S 183 0 min 0,000 mm 0,0 UV-I 0 W/m 6,8 C 8,3 C 0,0 km/h (0 Bft) 100,00 %
04.04.2018 06:20 8,2 C 7,2 C 90 % 1005,9 hPa 0,0 l/m 0,1 km/h (0 Bft) S 183 0 min 0,000 mm 0,0 UV-I 0 W/m 6,7 C 8,2 C 1,6 km/h (1 Bft) 100,00 %
04.04.2018 06:22 8,3 C 7,2 C 90 % 1006,0 hPa 0,0 l/m 3,0 km/h (1 Bft) S 183 0 min 0,000 mm 0,0 UV-I 0 W/m 6,8 C 8,3 C 4,8 km/h (1 Bft) 100,00 %
04.04.2018 06:24 8,2 C 7,2 C 89 % 1006,0 hPa 0,0 l/m 2,3 km/h (1 Bft) S 183 0 min 0,000 mm 0,0 UV-I 0 W/m 6,5 C 8,2 C 3,2 km/h (1 Bft) 100,00 %
04.04.2018 06:26 8,1 C 7,2 C 90 % 1006,0 hPa 0,0 l/m 2,7 km/h (1 Bft) S 183 0 min 0,000 mm 0,0 UV-I 0 W/m 6,6 C 8,1 C 3,2 km/h (1 Bft) 100,00 %
04.04.2018 06:28 8,0 C 7,2 C 90 % 1006,0 hPa 0,0 l/m 4,4 km/h (1 Bft) S 183 0 min 0,000 mm 0,0 UV-I 0 W/m 6,5 C 8,0 C 4,8 km/h (1 Bft) 100,00 %
04.04.2018 06:30 7,9 C 7,2 C 90 % 1006,0 hPa 0,0 l/m 4,4 km/h (1 Bft) S 183 0 min 0,000 mm 0,0 UV-I 0 W/m 6,4 C 7,9 C 4,8 km/h (1 Bft) 100,00 %
04.04.2018 06:32 7,9 C 7,2 C 91 % 1006,1 hPa 0,0 l/m 4,9 km/h (1 Bft) S 183 0 min 0,000 mm 0,0 UV-I 0 W/m 6,5 C 7,9 C 6,4 km/h (2 Bft) 100,00 %
04.04.2018 06:34 7,9 C 7,2 C 91 % 1006,0 hPa 0,0 l/m 4,0 km/h (1 Bft) S 183 0 min 0,000 mm 0,0 UV-I 0 W/m 6,5 C 7,9 C 6,4 km/h (2 Bft) 100,00 %
04.04.2018 06:36 7,9 C 7,2 C 91 % 1006,1 hPa 0,0 l/m 2,8 km/h (1 Bft) S 183 0 min 0,000 mm 0,0 UV-I 2 W/m 6,5 C 7,9 C 4,8 km/h (1 Bft) 98,00 %
04.04.2018 06:38 7,9 C 7,2 C 91 % 1006,1 hPa 0,0 l/m 1,7 km/h (1 Bft) S 183 0 min 0,000 mm 0,0 UV-I 5 W/m 6,5 C 7,9 C 3,2 km/h (1 Bft) 100,00 %
04.04.2018 06:40 8,0 C 7,2 C 91 % 1006,0 hPa 0,0 l/m 0,0 km/h (0 Bft) S 183 0 min 0,000 mm 0,0 UV-I 5 W/m 6,6 C 8,0 C 1,6 km/h (1 Bft) 100,00 %
04.04.2018 06:42 8,1 C 7,2 C 91 % 1006,0 hPa 0,0 l/m 0,0 km/h (0 Bft) S 183 0 min 0,000 mm 0,0 UV-I 5 W/m 6,7 C 8,1 C 0,0 km/h (0 Bft) 100,00 %
04.04.2018 06:44 8,2 C 7,2 C 91 % 1006,0 hPa 0,0 l/m 0,0 km/h (0 Bft) S 183 0 min 0,000 mm 0,0 UV-I 5 W/m 6,8 C 8,2 C 0,0 km/h (0 Bft) 100,00 %
04.04.2018 06:46 8,2 C 7,2 C 90 % 1006,0 hPa 0,0 l/m 0,8 km/h (0 Bft) S 183 0 min 0,000 mm 0,0 UV-I 6 W/m 6,7 C 8,2 C 3,2 km/h (1 Bft) 97,87 %
04.04.2018 06:48 8,3 C 7,2 C 91 % 1006,0 hPa 0,0 l/m 1,8 km/h (1 Bft) S 183 0 min 0,000 mm 0,0 UV-I 7 W/m 6,9 C 8,3 C 3,2 km/h (1 Bft) 100,00 %
04.04.2018 06:50 8,3 C 7,2 C 90 % 1006,0 hPa 0,0 l/m 1,3 km/h (1 Bft) S 183 0 min 0,000 mm 0,0 UV-I 7 W/m 6,8 C 8,3 C 3,2 km/h (1 Bft) 100,00 %
04.04.2018 06:52 8,4 C 7,2 C 90 % 1006,0 hPa 0,0 l/m 0,0 km/h (0 Bft) S 183 0 min 0,000 mm 0,0 UV-I 9 W/m 6,9 C 8,4 C 0,0 km/h (0 Bft) 95,74 %
04.04.2018 06:54 8,4 C 7,2 C 90 % 1005,9 hPa 0,0 l/m 0,0 km/h (0 Bft) S 183 0 min 0,000 mm 0,0 UV-I 9 W/m 6,9 C 8,4 C 0,0 km/h (0 Bft) 97,87 %
04.04.2018 06:56 8,4 C 7,2 C 90 % 1005,9 hPa 0,0 l/m 0,7 km/h (0 Bft) S 183 0 min 0,000 mm 0,0 UV-I 11 W/m 6,9 C 8,4 C 1,6 km/h (1 Bft) 100,00 %
04.04.2018 06:58 8,3 C 7,2 C 90 % 1005,9 hPa 0,0 l/m 3,3 km/h (1 Bft) S 183 0 min 0,000 mm 0,0 UV-I 11 W/m 6,8 C 8,3 C 4,8 km/h (1 Bft) 98,00 %
04.04.2018 07:00 8,2 C 7,2 C 90 % 1006,0 hPa 0,0 l/m 3,6 km/h (1 Bft) S 183 0 min 0,000 mm 0,0 UV-I 12 W/m 6,7 C 8,2 C 4,8 km/h (1 Bft) 100,00 %
04.04.2018 07:02 8,3 C 7,2 C 91 % 1006,0 hPa 0,0 l/m 2,5 km/h (1 Bft) S 183 0 min 0,000 mm 0,0 UV-I 13 W/m 6,9 C 8,3 C 4,8 km/h (1 Bft) 100,00 %
04.04.2018 07:04 8,3 C 7,2 C 90 % 1006,1 hPa 0,0 l/m 0,1 km/h (0 Bft) S 183 0 min 0,000 mm 0,0 UV-I 14 W/m 6,8 C 8,3 C 1,6 km/h (1 Bft) 100,00 %
04.04.2018 07:06 8,3 C 7,2 C 90 % 1006,0 hPa 0,0 l/m 1,7 km/h (1 Bft) S 183 0 min 0,000 mm 0,0 UV-I 16 W/m 6,8 C 8,3 C 3,2 km/h (1 Bft) 100,00 %
04.04.2018 07:08 8,4 C 7,2 C 91 % 1006,0 hPa 0,0 l/m 3,2 km/h (1 Bft) S 183 0 min 0,000 mm 0,0 UV-I 17 W/m 7,0 C 8,4 C 4,8 km/h (1 Bft) 100,00 %
04.04.2018 07:10 8,4 C 7,2 C 91 % 1006,0 hPa 0,0 l/m 3,4 km/h (1 Bft) S 183 0 min 0,000 mm 0,0 UV-I 18 W/m 7,0 C 8,4 C 4,8 km/h (1 Bft) 100,00 %
04.04.2018 07:12 8,4 C 7,2 C 91 % 1006,0 hPa 0,0 l/m 2,5 km/h (1 Bft) S 183 0 min 0,000 mm 0,0 UV-I 19 W/m 7,0 C 8,4 C 4,8 km/h (1 Bft) 100,00 %
04.04.2018 07:14 8,4 C 7,2 C 91 % 1006,0 hPa 0,0 l/m 1,1 km/h (1 Bft) S 183 0 min 0,000 mm 0,0 UV-I 21 W/m 7,0 C 8,4 C 3,2 km/h (1 Bft) 100,00 %
04.04.2018 07:16 8,5 C 7,2 C 91 % 1006,1 hPa 0,0 l/m 0,0 km/h (0 Bft) S 183 0 min 0,000 mm 0,0 UV-I 23 W/m 7,1 C 8,5 C 0,0 km/h (0 Bft) 100,00 %
04.04.2018 07:18 8,5 C 7,2 C 91 % 1006,1 hPa 0,0 l/m 0,5 km/h (0 Bft) S 183 0 min 0,000 mm 0,0 UV-I 26 W/m 7,1 C 8,5 C 1,6 km/h (1 Bft) 100,00 %
04.04.2018 07:20 8,4 C 7,2 C 91 % 1006,1 hPa 0,0 l/m 0,6 km/h (0 Bft) S 183 0 min 0,000 mm 0,0 UV-I 26 W/m 7,0 C 8,4 C 1,6 km/h (1 Bft) 96,00 %
04.04.2018 07:22 8,3 C 7,2 C 90 % 1006,2 hPa 0,0 l/m 0,3 km/h (0 Bft) S 183 0 min 0,000 mm 0,0 UV-I 28 W/m 6,8 C 8,3 C 1,6 km/h (1 Bft) 97,44 %
04.04.2018 07:24 8,3 C 7,2 C 91 % 1006,2 hPa 0,0 l/m 0,0 km/h (0 Bft) S 183 0 min 0,000 mm 0,0 UV-I 29 W/m 6,9 C 8,3 C 0,0 km/h (0 Bft) 100,00 %
04.04.2018 07:26 8,2 C 7,2 C 91 % 1006,2 hPa 0,0 l/m 0,0 km/h (0 Bft) S 183 0 min 0,000 mm 0,0 UV-I 30 W/m 6,8 C 8,2 C 0,0 km/h (0 Bft) 100,00 %
04.04.2018 07:28 8,2 C 7,2 C 91 % 1006,2 hPa 0,0 l/m 0,0 km/h (0 Bft) S 183 0 min 0,000 mm 0,0 UV-I 30 W/m 6,8 C 8,2 C 0,0 km/h (0 Bft) 100,00 %
04.04.2018 07:30 8,3 C 7,2 C 92 % 1006,2 hPa 0,0 l/m 0,0 km/h (0 Bft) S 183 0 min 0,000 mm 0,0 UV-I 30 W/m 7,1 C 8,3 C 0,0 km/h (0 Bft) 100,00 %
04.04.2018 07:32 8,4 C 7,2 C 91 % 1006,2 hPa 0,0 l/m 0,0 km/h (0 Bft) S 183 0 min 0,000 mm 0,0 UV-I 32 W/m 7,0 C 8,4 C 0,0 km/h (0 Bft) 100,00 %
04.04.2018 07:34 8,4 C 7,2 C 91 % 1006,3 hPa 0,0 l/m 0,0 km/h (0 Bft) S 183 0 min 0,000 mm 0,0 UV-I 35 W/m 7,0 C 8,4 C 0,0 km/h (0 Bft) 100,00 %
04.04.2018 07:36 8,5 C 7,2 C 91 % 1006,3 hPa 0,0 l/m 0,0 km/h (0 Bft) S 183 0 min 0,000 mm 0,0 UV-I 38 W/m 7,1 C 8,5 C 0,0 km/h (0 Bft) 100,00 %
04.04.2018 07:38 8,6 C 7,2 C 90 % 1006,3 hPa 0,0 l/m 1,4 km/h (1 Bft) S 183 0 min 0,000 mm 0,0 UV-I 38 W/m 7,1 C 8,6 C 3,2 km/h (1 Bft) 100,00 %
04.04.2018 07:40 8,7 C 7,2 C 90 % 1006,3 hPa 0,0 l/m 3,4 km/h (1 Bft) S 183 0 min 0,000 mm 0,0 UV-I 35 W/m 7,2 C 8,7 C 4,8 km/h (1 Bft) 100,00 %
04.04.2018 07:42 8,7 C 7,2 C 90 % 1006,3 hPa 0,0 l/m 2,3 km/h (1 Bft) S 183 0 min 0,000 mm 0,0 UV-I 34 W/m 7,2 C 8,7 C 3,2 km/h (1 Bft) 100,00 %
04.04.2018 07:45 8,7 C 7,2 C 90 % 1006,3 hPa 0,0 l/m 2,8 km/h (1 Bft) S 183 0 min 0,000 mm 0,0 UV-I 33 W/m 7,2 C 8,7 C 4,8 km/h (1 Bft) 100,00 %
04.04.2018 07:46 8,6 C 7,2 C 90 % 1006,3 hPa 0,0 l/m 3,1 km/h (1 Bft) S 183 0 min 0,000 mm 0,0 UV-I 35 W/m 7,1 C 8,6 C 3,2 km/h (1 Bft) 100,00 %
04.04.2018 07:48 8,5 C 7,2 C 90 % 1006,2 hPa 0,0 l/m 2,9 km/h (1 Bft) S 183 0 min 0,000 mm 0,0 UV-I 38 W/m 7,0 C 8,5 C 4,8 km/h (1 Bft) 100,00 %
04.04.2018 07:50 8,4 C 7,2 C 91 % 1006,3 hPa 0,0 l/m 2,2 km/h (1 Bft) S 183 0 min 0,000 mm 0,0 UV-I 42 W/m 7,0 C 8,4 C 3,2 km/h (1 Bft) 98,00 %
04.04.2018 07:52 8,4 C 7,2 C 91 % 1006,3 hPa 0,0 l/m 2,1 km/h (1 Bft) S 183 0 min 0,000 mm 0,0 UV-I 46 W/m 7,0 C 8,4 C 3,2 km/h (1 Bft) 97,56 %
04.04.2018 07:54 8,5 C 7,2 C 91 % 1006,2 hPa 0,0 l/m 0,1 km/h (0 Bft) S 183 0 min 0,000 mm 0,0 UV-I 47 W/m 7,1 C 8,5 C 1,6 km/h (1 Bft) 98,11 %
04.04.2018 07:56 8,6 C 7,2 C 91 % 1006,2 hPa 0,0 l/m 0,7 km/h (0 Bft) S 183 0 min 0,000 mm 0,0 UV-I 47 W/m 7,2 C 8,6 C 1,6 km/h (1 Bft) 97,56 %
04.04.2018 07:58 8,6 C 7,2 C 91 % 1006,1 hPa 0,0 l/m 0,0 km/h (0 Bft) S 183 0 min 0,000 mm 0,0 UV-I 50 W/m 7,2 C 8,6 C 1,6 km/h (1 Bft) 97,87 %
04.04.2018 08:00 8,7 C 7,2 C 91 % 1006,1 hPa 0,0 l/m 0,0 km/h (0 Bft) S 183 0 min 0,026 mm 0,0 UV-I 55 W/m 7,3 C 8,7 C 0,0 km/h (0 Bft) 98,00 %
04.04.2018 08:02 8,7 C 7,2 C 91 % 1006,1 hPa 0,0 l/m 0,0 km/h (0 Bft) S 183 0 min 0,000 mm 0,0 UV-I 64 W/m 7,3 C 8,7 C 0,0 km/h (0 Bft) 97,92 %
04.04.2018 08:04 8,8 C 7,2 C 91 % 1006,1 hPa 0,0 l/m 0,0 km/h (0 Bft) S 183 0 min 0,000 mm 0,0 UV-I 69 W/m 7,4 C 8,8 C 0,0 km/h (0 Bft) 95,74 %
04.04.2018 08:06 8,8 C 7,2 C 90 % 1006,1 hPa 0,0 l/m 0,0 km/h (0 Bft) S 183 0 min 0,000 mm 0,0 UV-I 72 W/m 7,3 C 8,8 C 0,0 km/h (0 Bft) 94,00 %
04.04.2018 08:08 8,9 C 7,2 C 90 % 1006,1 hPa 0,0 l/m 0,0 km/h (0 Bft) S 183 0 min 0,000 mm 0,0 UV-I 73 W/m 7,4 C 8,9 C 0,0 km/h (0 Bft) 95,74 %
04.04.2018 08:10 9,1 C 7,2 C 90 % 1006,2 hPa 0,0 l/m 0,0 km/h (0 Bft) S 183 0 min 0,000 mm 0,0 UV-I 71 W/m 7,5 C 9,1 C 0,0 km/h (0 Bft) 95,74 %
04.04.2018 08:12 9,2 C 7,2 C 91 % 1006,2 hPa 0,0 l/m 0,0 km/h (0 Bft) S 183 0 min 0,000 mm 0,0 UV-I 70 W/m 7,8 C 9,2 C 0,0 km/h (0 Bft) 94,74 %
04.04.2018 08:14 9,3 C 7,2 C 90 % 1006,1 hPa 0,0 l/m 0,0 km/h (0 Bft) S 183 0 min 0,000 mm 0,0 UV-I 71 W/m 7,7 C 9,3 C 0,0 km/h (0 Bft) 95,74 %
04.04.2018 08:16 9,2 C 7,2 C 89 % 1006,2 hPa 0,0 l/m 0,0 km/h (0 Bft) S 183 0 min 0,000 mm 0,0 UV-I 76 W/m 7,5 C 9,2 C 0,0 km/h (0 Bft) 95,74 %
04.04.2018 08:18 9,2 C 7,2 C 90 % 1006,1 hPa 0,0 l/m 0,0 km/h (0 Bft) S 183 0 min 0,000 mm 0,0 UV-I 84 W/m 7,6 C 9,2 C 0,0 km/h (0 Bft) 96,00 %
04.04.2018 08:20 9,2 C 7,2 C 90 % 1006,2 hPa 0,0 l/m 0,0 km/h (0 Bft) S 183 0 min 0,000 mm 0,0 UV-I 90 W/m 7,6 C 9,2 C 0,0 km/h (0 Bft) 93,62 %
04.04.2018 08:22 9,3 C 7,2 C 90 % 1006,2 hPa 0,0 l/m 0,0 km/h (0 Bft) S 183 0 min 0,000 mm 0,0 UV-I 91 W/m 7,7 C 9,3 C 0,0 km/h (0 Bft) 91,49 %
04.04.2018 08:24 9,4 C 7,2 C 90 % 1006,1 hPa 0,0 l/m 0,0 km/h (0 Bft) S 183 0 min 0,000 mm 0,0 UV-I 90 W/m 7,8 C 9,4 C 0,0 km/h (0 Bft) 95,74 %
04.04.2018 08:26 9,5 C 7,2 C 89 % 1006,1 hPa 0,0 l/m 0,0 km/h (0 Bft) S 183 0 min 0,000 mm 0,0 UV-I 91 W/m 7,8 C 9,5 C 0,0 km/h (0 Bft) 95,74 %
04.04.2018 08:28 9,7 C 7,2 C 89 % 1006,1 hPa 0,0 l/m 0,0 km/h (0 Bft) S 183 0 min 0,000 mm 0,0 UV-I 91 W/m 8,0 C 9,7 C 0,0 km/h (0 Bft) 98,00 %
04.04.2018 08:30 9,8 C 7,2 C 88 % 1006,2 hPa 0,0 l/m 0,0 km/h (0 Bft) S 183 0 min 0,000 mm 0,0 UV-I 93 W/m 7,9 C 9,8 C 0,0 km/h (0 Bft) 97,87 %
04.04.2018 08:32 9,8 C 7,2 C 88 % 1006,2 hPa 0,0 l/m 1,6 km/h (1 Bft) S 183 0 min 0,000 mm 0,0 UV-I 96 W/m 7,9 C 9,8 C 3,2 km/h (1 Bft) 97,56 %
04.04.2018 08:34 9,8 C 7,2 C 87 % 1006,2 hPa 0,0 l/m 2,8 km/h (1 Bft) S 182 0 min 0,000 mm 0,0 UV-I 101 W/m 7,7 C 9,8 C 4,8 km/h (1 Bft) 98,00 %
04.04.2018 08:36 9,8 C 7,2 C 87 % 1006,2 hPa 0,0 l/m 2,6 km/h (1 Bft) S 182 0 min 0,000 mm 0,0 UV-I 104 W/m 7,7 C 9,8 C 3,2 km/h (1 Bft) 95,24 %
04.04.2018 08:38 9,8 C 7,2 C 86 % 1006,1 hPa 0,0 l/m 3,2 km/h (1 Bft) S 182 0 min 0,000 mm 0,0 UV-I 106 W/m 7,6 C 9,8 C 4,8 km/h (1 Bft) 98,00 %
04.04.2018 08:40 9,8 C 7,2 C 85 % 1006,2 hPa 0,0 l/m 3,3 km/h (1 Bft) S 182 0 min 0,000 mm 0,0 UV-I 107 W/m 7,4 C 9,8 C 4,8 km/h (1 Bft) 97,87 %
04.04.2018 08:42 9,9 C 7,2 C 85 % 1006,2 hPa 0,0 l/m 3,7 km/h (1 Bft) S 182 0 min 0,000 mm 0,0 UV-I 110 W/m 7,5 C 9,9 C 4,8 km/h (1 Bft) 93,62 %
04.04.2018 08:44 9,9 C 7,2 C 85 % 1006,1 hPa 0,0 l/m 4,7 km/h (1 Bft) O-SO 109 0 min 0,000 mm 0,0 UV-I 113 W/m 7,5 C 9,9 C 6,4 km/h (2 Bft) 98,00 %
04.04.2018 08:46 10,1 C 7,2 C 84 % 1006,1 hPa 0,0 l/m 3,7 km/h (1 Bft) O-SO 109 0 min 0,000 mm 0,0 UV-I 117 W/m 7,5 C 10,1 C 4,8 km/h (1 Bft) 97,87 %
04.04.2018 08:48 10,2 C 7,2 C 85 % 1006,0 hPa 0,0 l/m 4,1 km/h (1 Bft) O 96 0 min 0,000 mm 0,0 UV-I 119 W/m 7,8 C 10,2 C 6,4 km/h (2 Bft) 97,14 %
04.04.2018 08:50 10,3 C 7,2 C 82 % 1006,1 hPa 0,0 l/m 2,9 km/h (1 Bft) O-SO 107 0 min 0,000 mm 0,0 UV-I 125 W/m 7,4 C 10,3 C 4,8 km/h (1 Bft) 98,31 %
04.04.2018 08:52 10,4 C 7,2 C 82 % 1006,1 hPa 0,0 l/m 3,6 km/h (1 Bft) O-SO 107 0 min 0,000 mm 0,0 UV-I 139 W/m 7,5 C 10,4 C 4,8 km/h (1 Bft) 97,87 %
04.04.2018 08:54 10,5 C 7,2 C 83 % 1006,1 hPa 0,0 l/m 2,9 km/h (1 Bft) O-SO 107 0 min 0,000 mm 0,0 UV-I 154 W/m 7,7 C 10,5 C 4,8 km/h (1 Bft) 95,74 %
04.04.2018 08:56 10,6 C 7,2 C 83 % 1006,1 hPa 0,0 l/m 3,6 km/h (1 Bft) O-SO 107 0 min 0,000 mm 0,0 UV-I 172 W/m 7,8 C 10,6 C 4,8 km/h (1 Bft) 97,37 %
04.04.2018 08:58 10,7 C 7,2 C 81 % 1006,0 hPa 0,0 l/m 3,2 km/h (1 Bft) O-SO 107 0 min 0,000 mm 0,0 UV-I 182 W/m 7,6 C 10,7 C 4,8 km/h (1 Bft) 98,11 %
04.04.2018 09:00 10,7 C 7,2 C 81 % 1006,1 hPa 0,0 l/m 2,9 km/h (1 Bft) O-SO 107 0 min 0,051 mm 0,3 UV-I 189 W/m 7,6 C 10,7 C 4,8 km/h (1 Bft) 98,00 %
04.04.2018 09:02 10,7 C 7,2 C 81 % 1006,0 hPa 0,0 l/m 4,2 km/h (1 Bft) O 98 0 min 0,000 mm 0,5 UV-I 214 W/m 7,6 C 10,7 C 6,4 km/h (2 Bft) 97,37 %
04.04.2018 09:04 10,8 C 7,2 C 81 % 1006,0 hPa 0,0 l/m 4,6 km/h (1 Bft) O 91 2 min 0,000 mm 0,5 UV-I 234 W/m 7,7 C 10,8 C 6,4 km/h (2 Bft) 96,00 %
04.04.2018 09:06 10,8 C 7,2 C 80 % 1006,0 hPa 0,0 l/m 4,9 km/h (1 Bft) O-NO 69 2 min 0,000 mm 0,5 UV-I 226 W/m 7,5 C 10,8 C 8,0 km/h (2 Bft) 96,00 %
04.04.2018 09:08 10,8 C 7,2 C 81 % 1006,1 hPa 0,0 l/m 3,1 km/h (1 Bft) O-NO 69 0 min 0,000 mm 0,5 UV-I 222 W/m 7,7 C 10,8 C 6,4 km/h (2 Bft) 97,37 %
04.04.2018 09:10 10,8 C 7,2 C 82 % 1006,0 hPa 0,0 l/m 4,1 km/h (1 Bft) O-NO 69 2 min 0,000 mm 0,6 UV-I 233 W/m 7,9 C 10,8 C 6,4 km/h (2 Bft) 98,21 %
04.04.2018 09:12 10,8 C 7,2 C 81 % 1006,0 hPa 0,0 l/m 4,8 km/h (1 Bft) O 90 2 min 0,000 mm 0,6 UV-I 245 W/m 7,7 C 10,8 C 9,7 km/h (2 Bft) 97,44 %
04.04.2018 09:14 10,8 C 7,2 C 80 % 1006,0 hPa 0,0 l/m 4,9 km/h (1 Bft) O-NO 65 2 min 0,000 mm 0,6 UV-I 244 W/m 7,5 C 10,8 C 6,4 km/h (2 Bft) 98,18 %
04.04.2018 09:16 10,8 C 7,2 C 79 % 1006,0 hPa 0,0 l/m 5,1 km/h (1 Bft) O 90 0 min 0,000 mm 0,6 UV-I 236 W/m 7,3 C 10,8 C 6,4 km/h (2 Bft) 97,22 %
04.04.2018 09:18 10,8 C 7,2 C 81 % 1005,9 hPa 0,0 l/m 6,0 km/h (2 Bft) O-NO 76 0 min 0,000 mm 0,6 UV-I 236 W/m 7,7 C 10,8 C 8,0 km/h (2 Bft) 98,21 %
04.04.2018 09:20 10,8 C 7,2 C 81 % 1005,9 hPa 0,0 l/m 6,7 km/h (2 Bft) O 85 0 min 0,000 mm 0,6 UV-I 239 W/m 7,7 C 10,6 C 12,9 km/h (3 Bft) 97,56 %
04.04.2018 09:22 10,8 C 7,2 C 79 % 1005,9 hPa 0,0 l/m 8,2 km/h (2 Bft) O-NO 74 2 min 0,000 mm 0,7 UV-I 253 W/m 7,3 C 9,6 C 11,3 km/h (2 Bft) 96,00 %
04.04.2018 09:24 10,8 C 7,2 C 80 % 1005,9 hPa 0,0 l/m 8,0 km/h (2 Bft) O-NO 66 2 min 0,000 mm 0,7 UV-I 270 W/m 7,5 C 9,7 C 12,9 km/h (3 Bft) 96,55 %
04.04.2018 09:26 10,9 C 7,2 C 80 % 1005,9 hPa 0,0 l/m 6,3 km/h (2 Bft) O-NO 72 2 min 0,000 mm 0,7 UV-I 285 W/m 7,6 C 10,9 C 11,3 km/h (2 Bft) 95,38 %
04.04.2018 09:28 10,9 C 7,2 C 79 % 1005,8 hPa 0,0 l/m 9,7 km/h (2 Bft) O 82 2 min 0,000 mm 0,8 UV-I 295 W/m 7,4 C 8,8 C 12,9 km/h (3 Bft) 97,73 %
04.04.2018 09:30 11,0 C 7,2 C 78 % 1005,9 hPa 0,0 l/m 9,3 km/h (2 Bft) O 80 2 min 0,000 mm 0,8 UV-I 297 W/m 7,3 C 9,1 C 12,9 km/h (3 Bft) 98,21 %
04.04.2018 09:32 11,1 C 7,2 C 79 % 1005,9 hPa 0,0 l/m 10,5 km/h (2 Bft) O-NO 78 2 min 0,000 mm 0,8 UV-I 300 W/m 7,6 C 8,5 C 16,1 km/h (3 Bft) 100,00 %
04.04.2018 09:34 11,2 C 7,2 C 79 % 1005,8 hPa 0,0 l/m 9,2 km/h (2 Bft) NO 51 2 min 0,000 mm 0,8 UV-I 301 W/m 7,7 C 9,4 C 12,9 km/h (3 Bft) 100,00 %
04.04.2018 09:36 11,2 C 7,2 C 77 % 1005,8 hPa 0,0 l/m 8,6 km/h (2 Bft) O 84 2 min 0,000 mm 0,9 UV-I 300 W/m 7,3 C 9,7 C 12,9 km/h (3 Bft) 100,00 %
04.04.2018 09:38 11,2 C 7,2 C 77 % 1005,9 hPa 0,0 l/m 7,6 km/h (2 Bft) NO 48 2 min 0,000 mm 0,9 UV-I 301 W/m 7,3 C 10,4 C 12,9 km/h (3 Bft) 100,00 %
04.04.2018 09:40 11,3 C 7,2 C 77 % 1005,9 hPa 0,0 l/m 8,4 km/h (2 Bft) O-NO 67 2 min 0,000 mm 0,9 UV-I 314 W/m 7,4 C 10,0 C 12,9 km/h (3 Bft) 100,00 %
04.04.2018 09:42 11,4 C 7,2 C 77 % 1006,0 hPa 0,0 l/m 6,6 km/h (2 Bft) NO 54 2 min 0,000 mm 1,0 UV-I 333 W/m 7,5 C 11,3 C 11,3 km/h (2 Bft) 98,00 %
04.04.2018 09:44 11,5 C 7,2 C 76 % 1006,0 hPa 0,0 l/m 7,8 km/h (2 Bft) NO 36 2 min 0,000 mm 1,0 UV-I 351 W/m 7,4 C 10,6 C 11,3 km/h (2 Bft) 100,00 %
04.04.2018 09:46 11,7 C 7,2 C 78 % 1006,1 hPa 0,0 l/m 9,6 km/h (2 Bft) O-NO 69 2 min 0,000 mm 1,1 UV-I 380 W/m 8,0 C 9,7 C 14,5 km/h (3 Bft) 100,00 %
04.04.2018 09:48 11,8 C 7,2 C 75 % 1006,0 hPa 0,0 l/m 7,1 km/h (2 Bft) O-NO 59 2 min 0,000 mm 1,2 UV-I 426 W/m 7,5 C 11,3 C 11,3 km/h (2 Bft) 100,00 %
04.04.2018 09:50 11,8 C 7,2 C 75 % 1006,1 hPa 0,0 l/m 6,5 km/h (2 Bft) O-NO 67 2 min 0,000 mm 1,2 UV-I 448 W/m 7,5 C 11,8 C 11,3 km/h (2 Bft) 100,00 %
04.04.2018 09:52 12,0 C 7,2 C 76 % 1006,0 hPa 0,0 l/m 6,5 km/h (2 Bft) NO 44 2 min 0,000 mm 1,2 UV-I 463 W/m 7,9 C 12,0 C 9,7 km/h (2 Bft) 97,87 %
04.04.2018 09:54 12,1 C 7,2 C 76 % 1006,0 hPa 0,0 l/m 7,2 km/h (2 Bft) NO 38 2 min 0,000 mm 1,3 UV-I 487 W/m 8,0 C 11,6 C 9,7 km/h (2 Bft) 94,00 %
04.04.2018 09:56 12,4 C 7,2 C 76 % 1006,0 hPa 0,0 l/m 6,6 km/h (2 Bft) O-NO 63 2 min 0,000 mm 1,3 UV-I 511 W/m 8,3 C 12,3 C 8,0 km/h (2 Bft) 97,78 %
04.04.2018 09:58 12,4 C 7,2 C 76 % 1006,0 hPa 0,0 l/m 5,8 km/h (2 Bft) O-NO 66 2 min 0,000 mm 1,4 UV-I 527 W/m 8,3 C 12,4 C 8,0 km/h (2 Bft) 97,73 %
04.04.2018 10:00 12,6 C 7,2 C 76 % 1006,0 hPa 0,0 l/m 4,1 km/h (1 Bft) NO 40 2 min 0,177 mm 1,4 UV-I 519 W/m 8,5 C 12,6 C 9,7 km/h (2 Bft) 98,00 %
04.04.2018 10:02 12,7 C 7,2 C 77 % 1006,1 hPa 0,0 l/m 5,0 km/h (1 Bft) NO 53 2 min 0,000 mm 1,4 UV-I 523 W/m 8,8 C 12,7 C 8,0 km/h (2 Bft) 96,00 %
04.04.2018 10:04 12,7 C 7,2 C 73 % 1006,1 hPa 0,0 l/m 3,0 km/h (1 Bft) O-NO 70 2 min 0,000 mm 1,4 UV-I 511 W/m 8,0 C 12,7 C 6,4 km/h (2 Bft) 98,00 %
04.04.2018 10:06 12,7 C 7,2 C 74 % 1006,2 hPa 0,0 l/m 3,8 km/h (1 Bft) O-NO 59 2 min 0,000 mm 1,4 UV-I 488 W/m 8,2 C 12,7 C 4,8 km/h (1 Bft) 95,45 %
04.04.2018 10:08 12,9 C 7,2 C 75 % 1006,2 hPa 0,0 l/m 4,6 km/h (1 Bft) N-NO 30 2 min 0,000 mm 1,4 UV-I 499 W/m 8,6 C 12,9 C 8,0 km/h (2 Bft) 97,87 %
04.04.2018 10:10 13,2 C 7,2 C 75 % 1006,2 hPa 0,0 l/m 6,5 km/h (2 Bft) O-NO 59 2 min 0,000 mm 1,5 UV-I 513 W/m 8,9 C 13,2 C 11,3 km/h (2 Bft) 96,00 %
04.04.2018 10:12 13,2 C 7,2 C 74 % 1006,3 hPa 0,0 l/m 5,6 km/h (1 Bft) NO 42 2 min 0,000 mm 1,4 UV-I 473 W/m 8,7 C 13,2 C 8,0 km/h (2 Bft) 95,12 %
04.04.2018 10:14 13,2 C 7,2 C 73 % 1006,2 hPa 0,0 l/m 7,1 km/h (2 Bft) N-NO 32 2 min 0,000 mm 1,5 UV-I 494 W/m 8,5 C 12,8 C 11,3 km/h (2 Bft) 95,92 %
04.04.2018 10:16 13,5 C 7,2 C 75 % 1006,2 hPa 0,0 l/m 7,1 km/h (2 Bft) N 11 2 min 0,000 mm 1,5 UV-I 519 W/m 9,2 C 13,1 C 11,3 km/h (2 Bft) 98,00 %
04.04.2018 10:18 13,6 C 7,2 C 75 % 1006,2 hPa 0,0 l/m 6,0 km/h (2 Bft) O-NO 64 2 min 0,000 mm 1,6 UV-I 528 W/m 9,3 C 13,6 C 9,7 km/h (2 Bft) 97,37 %
04.04.2018 10:20 13,4 C 7,2 C 71 % 1006,1 hPa 0,0 l/m 11,4 km/h (2 Bft) NO 36 2 min 0,000 mm 1,6 UV-I 538 W/m 8,3 C 10,7 C 14,5 km/h (3 Bft) 100,00 %
04.04.2018 10:22 13,5 C 7,2 C 77 % 1006,1 hPa 0,0 l/m 7,1 km/h (2 Bft) N-NO 24 2 min 0,000 mm 1,6 UV-I 541 W/m 9,5 C 13,1 C 9,7 km/h (2 Bft) 100,00 %
04.04.2018 10:24 13,7 C 7,2 C 74 % 1006,2 hPa 0,0 l/m 6,4 km/h (2 Bft) NO 45 2 min 0,000 mm 1,7 UV-I 546 W/m 9,2 C 13,7 C 8,0 km/h (2 Bft) 98,11 %
04.04.2018 10:26 13,7 C 7,2 C 74 % 1006,2 hPa 0,0 l/m 7,0 km/h (2 Bft) NO 43 2 min 0,000 mm 1,7 UV-I 560 W/m 9,2 C 13,3 C 9,7 km/h (2 Bft) 100,00 %
04.04.2018 10:28 13,7 C 7,2 C 74 % 1006,1 hPa 0,0 l/m 6,6 km/h (2 Bft) NO 43 2 min 0,000 mm 1,7 UV-I 562 W/m 9,2 C 13,6 C 9,7 km/h (2 Bft) 98,11 %
04.04.2018 10:30 13,8 C 7,2 C 73 % 1006,1 hPa 0,0 l/m 8,1 km/h (2 Bft) NO 49 2 min 0,000 mm 1,7 UV-I 564 W/m 9,0 C 12,8 C 14,5 km/h (3 Bft) 100,00 %
04.04.2018 10:32 13,8 C 7,2 C 73 % 1006,1 hPa 0,0 l/m 6,7 km/h (2 Bft) O-NO 70 2 min 0,000 mm 1,8 UV-I 569 W/m 9,0 C 13,6 C 8,0 km/h (2 Bft) 100,00 %
04.04.2018 10:34 13,8 C 7,2 C 73 % 1006,1 hPa 0,0 l/m 8,7 km/h (2 Bft) O-NO 61 2 min 0,000 mm 1,8 UV-I 573 W/m 9,0 C 12,5 C 12,9 km/h (3 Bft) 100,00 %
04.04.2018 10:36 13,9 C 7,2 C 73 % 1006,1 hPa 0,0 l/m 7,0 km/h (2 Bft) O-NO 65 2 min 0,000 mm 1,8 UV-I 576 W/m 9,1 C 13,5 C 8,0 km/h (2 Bft) 100,00 %
04.04.2018 10:38 13,9 C 7,2 C 72 % 1006,1 hPa 0,0 l/m 5,3 km/h (1 Bft) O-NO 68 2 min 0,000 mm 1,9 UV-I 581 W/m 8,9 C 13,9 C 8,0 km/h (2 Bft) 98,00 %
04.04.2018 10:40 13,8 C 7,2 C 73 % 1006,0 hPa 0,0 l/m 7,3 km/h (2 Bft) O-NO 62 2 min 0,000 mm 1,9 UV-I 585 W/m 9,0 C 13,3 C 11,3 km/h (2 Bft) 97,56 %
04.04.2018 10:42 14,1 C 7,2 C 75 % 1006,0 hPa 0,0 l/m 7,2 km/h (2 Bft) O-NO 65 2 min 0,000 mm 1,9 UV-I 586 W/m 9,7 C 13,6 C 9,7 km/h (2 Bft) 96,23 %
04.04.2018 10:44 14,2 C 7,2 C 73 % 1006,0 hPa 0,0 l/m 6,8 km/h (2 Bft) N-NO 30 2 min 0,000 mm 2,0 UV-I 587 W/m 9,4 C 14,0 C 8,0 km/h (2 Bft) 100,00 %
04.04.2018 10:46 14,2 C 7,2 C 75 % 1005,9 hPa 0,0 l/m 7,0 km/h (2 Bft) NO 36 2 min 0,000 mm 2,0 UV-I 599 W/m 9,8 C 13,8 C 9,7 km/h (2 Bft) 100,00 %
04.04.2018 10:48 14,3 C 7,2 C 75 % 1005,9 hPa 0,0 l/m 6,7 km/h (2 Bft) NO 47 2 min 0,000 mm 2,0 UV-I 600 W/m 9,9 C 14,1 C 12,9 km/h (3 Bft) 100,00 %
04.04.2018 10:50 14,3 C 7,2 C 72 % 1005,9 hPa 0,0 l/m 6,3 km/h (2 Bft) N-NO 31 2 min 0,000 mm 2,0 UV-I 593 W/m 9,3 C 14,3 C 11,3 km/h (2 Bft) 100,00 %
04.04.2018 10:52 14,4 C 7,2 C 73 % 1005,9 hPa 0,0 l/m 7,0 km/h (2 Bft) N-NO 27 2 min 0,000 mm 2,1 UV-I 603 W/m 9,6 C 14,1 C 9,7 km/h (2 Bft) 100,00 %
04.04.2018 10:54 14,5 C 7,2 C 74 % 1005,9 hPa 0,0 l/m 8,5 km/h (2 Bft) NO 37 2 min 0,000 mm 2,1 UV-I 615 W/m 9,9 C 13,3 C 11,3 km/h (2 Bft) 100,00 %
04.04.2018 10:56 14,6 C 7,2 C 75 % 1005,8 hPa 0,0 l/m 6,7 km/h (2 Bft) NO 42 2 min 0,000 mm 2,1 UV-I 615 W/m 10,2 C 14,4 C 9,7 km/h (2 Bft) 100,00 %
04.04.2018 10:58 14,7 C 7,2 C 74 % 1005,9 hPa 0,0 l/m 6,5 km/h (2 Bft) NO 35 2 min 0,000 mm 2,1 UV-I 610 W/m 10,1 C 14,7 C 11,3 km/h (2 Bft) 100,00 %
04.04.2018 11:00 14,9 C 7,2 C 74 % 1005,9 hPa 0,0 l/m 5,7 km/h (1 Bft) N-NO 31 2 min 0,305 mm 2,2 UV-I 619 W/m 10,3 C 14,9 C 8,0 km/h (2 Bft) 100,00 %
04.04.2018 11:02 15,1 C 7,2 C 75 % 1005,8 hPa 0,0 l/m 7,9 km/h (2 Bft) O-NO 73 2 min 0,000 mm 2,2 UV-I 618 W/m 10,7 C 14,3 C 11,3 km/h (2 Bft) 100,00 %
04.04.2018 11:04 15,2 C 7,2 C 72 % 1005,7 hPa 0,0 l/m 7,1 km/h (2 Bft) NO 49 2 min 0,000 mm 2,2 UV-I 625 W/m 10,2 C 14,8 C 9,7 km/h (2 Bft) 100,00 %
04.04.2018 11:06 15,3 C 7,2 C 71 % 1005,8 hPa 0,0 l/m 7,6 km/h (2 Bft) NO 50 2 min 0,000 mm 2,3 UV-I 640 W/m 10,1 C 14,6 C 11,3 km/h (2 Bft) 100,00 %
04.04.2018 11:08 15,4 C 7,2 C 70 % 1005,7 hPa 0,0 l/m 8,2 km/h (2 Bft) NO 46 2 min 0,000 mm 2,3 UV-I 645 W/m 10,0 C 14,4 C 9,7 km/h (2 Bft) 100,00 %
04.04.2018 11:10 15,4 C 7,2 C 73 % 1005,7 hPa 0,0 l/m 8,0 km/h (2 Bft) NO 36 2 min 0,000 mm 2,3 UV-I 648 W/m 10,6 C 14,5 C 9,7 km/h (2 Bft) 100,00 %
04.04.2018 11:12 15,6 C 7,2 C 71 % 1005,7 hPa 0,0 l/m 8,0 km/h (2 Bft) O-NO 69 2 min 0,000 mm 2,3 UV-I 644 W/m 10,4 C 14,7 C 11,3 km/h (2 Bft) 97,56 %
04.04.2018 11:14 15,5 C 7,2 C 70 % 1005,7 hPa 0,0 l/m 5,8 km/h (2 Bft) O-NO 62 2 min 0,000 mm 2,4 UV-I 644 W/m 10,1 C 15,5 C 12,9 km/h (3 Bft) 100,00 %
04.04.2018 11:16 15,5 C 7,2 C 68 % 1005,7 hPa 0,0 l/m 5,7 km/h (1 Bft) O 91 2 min 0,000 mm 2,4 UV-I 657 W/m 9,6 C 15,5 C 11,3 km/h (2 Bft) 98,00 %
04.04.2018 11:18 15,4 C 7,2 C 66 % 1005,7 hPa 0,0 l/m 8,3 km/h (2 Bft) O 96 2 min 0,000 mm 2,4 UV-I 659 W/m 9,1 C 14,4 C 12,9 km/h (3 Bft) 97,87 %
04.04.2018 11:20 15,4 C 7,2 C 66 % 1005,7 hPa 0,0 l/m 7,1 km/h (2 Bft) NO 46 2 min 0,000 mm 2,4 UV-I 655 W/m 9,1 C 15,0 C 11,3 km/h (2 Bft) 98,00 %
04.04.2018 11:22 15,5 C 7,2 C 67 % 1005,7 hPa 0,0 l/m 6,8 km/h (2 Bft) NO 51 2 min 0,000 mm 2,4 UV-I 634 W/m 9,4 C 15,3 C 9,7 km/h (2 Bft) 95,74 %
04.04.2018 11:24 15,5 C 7,2 C 65 % 1005,7 hPa 0,0 l/m 3,6 km/h (1 Bft) O-SO 111 2 min 0,000 mm 2,4 UV-I 609 W/m 8,9 C 15,5 C 9,7 km/h (2 Bft) 97,87 %
04.04.2018 11:26 15,6 C 7,2 C 67 % 1005,6 hPa 0,0 l/m 7,0 km/h (2 Bft) O-SO 106 2 min 0,000 mm 2,5 UV-I 634 W/m 9,5 C 15,3 C 11,3 km/h (2 Bft) 97,67 %
04.04.2018 11:28 15,5 C 7,2 C 66 % 1005,6 hPa 0,0 l/m 7,1 km/h (2 Bft) O 96 2 min 0,000 mm 2,5 UV-I 630 W/m 9,2 C 15,1 C 11,3 km/h (2 Bft) 97,56 %
04.04.2018 11:30 15,4 C 7,2 C 65 % 1005,7 hPa 0,0 l/m 8,0 km/h (2 Bft) O 101 2 min 0,000 mm 2,5 UV-I 663 W/m 8,9 C 14,5 C 11,3 km/h (2 Bft) 98,00 %
04.04.2018 11:32 15,7 C 7,2 C 66 % 1005,6 hPa 0,0 l/m 6,1 km/h (2 Bft) O 88 2 min 0,000 mm 2,6 UV-I 672 W/m 9,4 C 15,7 C 9,7 km/h (2 Bft) 96,23 %
04.04.2018 11:34 15,9 C 7,2 C 67 % 1005,6 hPa 0,0 l/m 5,3 km/h (1 Bft) O-NO 60 2 min 0,000 mm 2,6 UV-I 673 W/m 9,8 C 15,9 C 8,0 km/h (2 Bft) 97,56 %
04.04.2018 11:36 16,0 C 7,2 C 67 % 1005,7 hPa 0,0 l/m 4,5 km/h (1 Bft) O 80 2 min 0,000 mm 2,7 UV-I 672 W/m 9,9 C 16,0 C 12,9 km/h (3 Bft) 97,87 %
04.04.2018 11:38 16,0 C 7,2 C 66 % 1005,6 hPa 0,0 l/m 6,4 km/h (2 Bft) O-NO 61 2 min 0,000 mm 2,7 UV-I 665 W/m 9,7 C 16,0 C 9,7 km/h (2 Bft) 98,00 %
04.04.2018 11:40 16,1 C 7,2 C 64 % 1005,5 hPa 0,0 l/m 4,1 km/h (1 Bft) O 81 2 min 0,000 mm 2,7 UV-I 669 W/m 9,3 C 16,1 C 8,0 km/h (2 Bft) 97,73 %
04.04.2018 11:42 16,1 C 7,2 C 64 % 1005,5 hPa 0,0 l/m 4,2 km/h (1 Bft) O 82 2 min 0,000 mm 2,8 UV-I 674 W/m 9,3 C 16,1 C 6,4 km/h (2 Bft) 95,74 %
04.04.2018 11:44 16,1 C 7,2 C 63 % 1005,4 hPa 0,0 l/m 3,7 km/h (1 Bft) O 90 2 min 0,000 mm 2,8 UV-I 682 W/m 9,1 C 16,1 C 6,4 km/h (2 Bft) 97,87 %
04.04.2018 11:46 16,1 C 7,2 C 66 % 1005,5 hPa 0,0 l/m 4,1 km/h (1 Bft) O 98 2 min 0,000 mm 2,8 UV-I 658 W/m 9,7 C 16,1 C 11,3 km/h (2 Bft) 100,00 %
04.04.2018 11:48 16,1 C 7,2 C 63 % 1005,4 hPa 0,0 l/m 5,6 km/h (1 Bft) SO 125 2 min 0,000 mm 2,8 UV-I 668 W/m 9,1 C 16,1 C 11,3 km/h (2 Bft) 98,00 %
04.04.2018 11:50 16,2 C 7,2 C 66 % 1005,4 hPa 0,0 l/m 5,5 km/h (1 Bft) O-NO 57 2 min 0,000 mm 2,9 UV-I 697 W/m 9,8 C 16,2 C 8,0 km/h (2 Bft) 97,87 %
04.04.2018 11:52 16,3 C 7,2 C 68 % 1005,4 hPa 0,0 l/m 5,2 km/h (1 Bft) NO 49 2 min 0,000 mm 2,9 UV-I 695 W/m 10,4 C 16,3 C 8,0 km/h (2 Bft) 98,11 %
04.04.2018 11:54 16,5 C 7,2 C 63 % 1005,4 hPa 0,0 l/m 6,2 km/h (2 Bft) O-SO 105 2 min 0,000 mm 2,9 UV-I 694 W/m 9,4 C 16,5 C 11,3 km/h (2 Bft) 100,00 %
04.04.2018 11:56 16,5 C 7,2 C 62 % 1005,4 hPa 0,0 l/m 6,4 km/h (2 Bft) O 88 2 min 0,000 mm 2,9 UV-I 683 W/m 9,2 C 16,5 C 11,3 km/h (2 Bft) 98,00 %
04.04.2018 11:58 16,7 C 7,2 C 67 % 1005,2 hPa 0,0 l/m 9,1 km/h (2 Bft) N-NO 20 2 min 0,000 mm 2,9 UV-I 686 W/m 10,5 C 15,4 C 14,5 km/h (3 Bft) 100,00 %
04.04.2018 12:00 17,0 C 7,2 C 70 % 1005,2 hPa 0,0 l/m 7,5 km/h (2 Bft) O-NO 67 2 min 0,381 mm 3,0 UV-I 690 W/m 11,5 C 16,4 C 9,7 km/h (2 Bft) 100,00 %
04.04.2018 12:02 17,0 C 7,2 C 64 % 1005,2 hPa 0,0 l/m 5,5 km/h (1 Bft) NO 49 2 min 0,000 mm 3,0 UV-I 693 W/m 10,1 C 17,0 C 9,7 km/h (2 Bft) 97,37 %
04.04.2018 12:04 17,0 C 7,2 C 65 % 1005,3 hPa 0,0 l/m 6,2 km/h (2 Bft) NO 42 2 min 0,000 mm 3,0 UV-I 689 W/m 10,4 C 17,0 C 9,7 km/h (2 Bft) 100,00 %
04.04.2018 12:06 16,9 C 7,2 C 61 % 1005,2 hPa 0,0 l/m 4,8 km/h (1 Bft) NO 34 2 min 0,000 mm 3,0 UV-I 686 W/m 9,3 C 16,9 C 6,4 km/h (2 Bft) 100,00 %
04.04.2018 12:08 16,8 C 7,2 C 64 % 1005,2 hPa 0,0 l/m 3,3 km/h (1 Bft) N-NO 32 2 min 0,000 mm 3,0 UV-I 678 W/m 10,0 C 16,8 C 4,8 km/h (1 Bft) 100,00 %
04.04.2018 12:10 16,9 C 7,2 C 64 % 1005,2 hPa 0,0 l/m 4,5 km/h (1 Bft) O 92 2 min 0,000 mm 3,0 UV-I 691 W/m 10,0 C 16,9 C 6,4 km/h (2 Bft) 98,00 %
04.04.2018 12:12 16,8 C 7,2 C 61 % 1005,1 hPa 0,0 l/m 4,9 km/h (1 Bft) O-NO 57 2 min 0,000 mm 3,0 UV-I 684 W/m 9,2 C 16,8 C 8,0 km/h (2 Bft) 100,00 %
04.04.2018 12:14 16,9 C 7,2 C 61 % 1005,2 hPa 0,0 l/m 4,4 km/h (1 Bft) O-NO 69 2 min 0,000 mm 3,0 UV-I 692 W/m 9,3 C 16,9 C 8,0 km/h (2 Bft) 98,11 %
04.04.2018 12:16 16,9 C 7,2 C 63 % 1005,1 hPa 0,0 l/m 4,3 km/h (1 Bft) O-NO 63 2 min 0,000 mm 3,1 UV-I 698 W/m 9,8 C 16,9 C 9,7 km/h (2 Bft) 95,74 %
04.04.2018 12:18 17,2 C 7,2 C 62 % 1005,1 hPa 0,0 l/m 5,6 km/h (1 Bft) O-NO 67 2 min 0,000 mm 3,1 UV-I 705 W/m 9,9 C 17,2 C 6,4 km/h (2 Bft) 96,23 %
04.04.2018 12:20 17,2 C 7,2 C 61 % 1005,1 hPa 0,0 l/m 3,3 km/h (1 Bft) O-NO 69 2 min 0,000 mm 3,1 UV-I 700 W/m 9,6 C 17,2 C 6,4 km/h (2 Bft) 100,00 %
04.04.2018 12:22 17,4 C 7,2 C 62 % 1005,1 hPa 0,0 l/m 7,2 km/h (2 Bft) NO 36 2 min 0,000 mm 3,1 UV-I 696 W/m 10,0 C 17,0 C 12,9 km/h (3 Bft) 100,00 %
04.04.2018 12:24 17,4 C 7,2 C 63 % 1005,0 hPa 0,0 l/m 6,6 km/h (2 Bft) NO 51 2 min 0,000 mm 3,2 UV-I 714 W/m 10,3 C 17,3 C 11,3 km/h (2 Bft) 100,00 %
04.04.2018 12:26 17,4 C 7,2 C 61 % 1005,0 hPa 0,0 l/m 4,0 km/h (1 Bft) NO 40 2 min 0,000 mm 3,2 UV-I 719 W/m 9,8 C 17,4 C 6,4 km/h (2 Bft) 100,00 %
04.04.2018 12:28 17,4 C 7,2 C 61 % 1005,0 hPa 0,0 l/m 5,4 km/h (1 Bft) NO 54 2 min 0,000 mm 3,2 UV-I 708 W/m 9,8 C 17,4 C 8,0 km/h (2 Bft) 97,87 %
04.04.2018 12:30 17,4 C 7,2 C 59 % 1005,1 hPa 0,0 l/m 2,8 km/h (1 Bft) NO 54 2 min 0,000 mm 3,2 UV-I 710 W/m 9,3 C 17,4 C 4,8 km/h (1 Bft) 100,00 %
04.04.2018 12:32 17,4 C 7,2 C 61 % 1005,0 hPa 0,0 l/m 4,6 km/h (1 Bft) NO 55 2 min 0,000 mm 3,2 UV-I 704 W/m 9,8 C 17,4 C 9,7 km/h (2 Bft) 98,00 %
04.04.2018 12:34 17,7 C 7,2 C 62 % 1004,9 hPa 0,0 l/m 6,6 km/h (2 Bft) N-NO 29 2 min 0,000 mm 3,2 UV-I 690 W/m 10,3 C 17,6 C 9,7 km/h (2 Bft) 100,00 %
04.04.2018 12:36 17,8 C 7,2 C 61 % 1004,9 hPa 0,0 l/m 6,9 km/h (2 Bft) O-NO 65 2 min 0,000 mm 3,2 UV-I 705 W/m 10,2 C 17,6 C 9,7 km/h (2 Bft) 100,00 %
04.04.2018 12:38 17,9 C 7,2 C 58 % 1004,9 hPa 0,0 l/m 8,0 km/h (2 Bft) O-NO 76 2 min 0,000 mm 3,2 UV-I 715 W/m 9,5 C 17,1 C 11,3 km/h (2 Bft) 100,00 %
04.04.2018 12:40 17,8 C 7,2 C 58 % 1004,7 hPa 0,0 l/m 5,8 km/h (2 Bft) O 96 2 min 0,000 mm 3,3 UV-I 725 W/m 9,4 C 17,8 C 9,7 km/h (2 Bft) 100,00 %
04.04.2018 12:42 17,5 C 7,2 C 59 % 1004,8 hPa 0,0 l/m 5,3 km/h (1 Bft) O 98 2 min 0,000 mm 3,2 UV-I 719 W/m 9,4 C 17,5 C 11,3 km/h (2 Bft) 100,00 %
04.04.2018 12:44 17,5 C 7,2 C 59 % 1004,8 hPa 0,0 l/m 4,3 km/h (1 Bft) O 92 2 min 0,000 mm 3,2 UV-I 714 W/m 9,4 C 17,5 C 9,7 km/h (2 Bft) 100,00 %
04.04.2018 12:46 17,6 C 7,2 C 58 % 1004,8 hPa 0,0 l/m 6,3 km/h (2 Bft) O-NO 65 2 min 0,000 mm 3,2 UV-I 712 W/m 9,2 C 17,6 C 9,7 km/h (2 Bft) 100,00 %
04.04.2018 12:48 17,7 C 7,2 C 57 % 1004,8 hPa 0,0 l/m 4,9 km/h (1 Bft) O 80 2 min 0,000 mm 3,2 UV-I 683 W/m 9,1 C 17,7 C 9,7 km/h (2 Bft) 100,00 %
04.04.2018 12:50 17,9 C 7,2 C 58 % 1004,7 hPa 0,0 l/m 7,7 km/h (2 Bft) O-SO 109 2 min 0,000 mm 3,2 UV-I 688 W/m 9,5 C 17,3 C 11,3 km/h (2 Bft) 100,00 %
04.04.2018 12:52 17,9 C 7,2 C 56 % 1004,7 hPa 0,0 l/m 7,2 km/h (2 Bft) O 95 2 min 0,000 mm 3,2 UV-I 682 W/m 9,0 C 17,5 C 11,3 km/h (2 Bft) 100,00 %
04.04.2018 12:54 17,8 C 7,2 C 56 % 1004,7 hPa 0,0 l/m 5,2 km/h (1 Bft) O-SO 108 2 min 0,000 mm 3,2 UV-I 690 W/m 8,9 C 17,8 C 9,7 km/h (2 Bft) 100,00 %
04.04.2018 12:56 17,9 C 7,2 C 57 % 1004,7 hPa 0,0 l/m 5,4 km/h (1 Bft) O 91 2 min 0,000 mm 3,3 UV-I 722 W/m 9,3 C 17,9 C 11,3 km/h (2 Bft) 98,00 %
04.04.2018 12:58 18,1 C 7,2 C 57 % 1004,6 hPa 0,0 l/m 4,1 km/h (1 Bft) O 88 2 min 0,000 mm 3,2 UV-I 718 W/m 9,4 C 18,1 C 9,7 km/h (2 Bft) 97,56 %
04.04.2018 13:00 18,1 C 7,2 C 59 % 1004,6 hPa 0,0 l/m 5,8 km/h (2 Bft) O 89 2 min 0,000 mm 3,2 UV-I 693 W/m 10,0 C 18,1 C 11,3 km/h (2 Bft) 92,45 %
04.04.2018 13:02 18,3 C 7,2 C 57 % 1004,6 hPa 0,0 l/m 6,6 km/h (2 Bft) O 86 2 min 0,407 mm 3,3 UV-I 719 W/m 9,6 C 18,2 C 11,3 km/h (2 Bft) 97,44 %
04.04.2018 13:04 18,4 C 7,2 C 61 % 1004,6 hPa 0,0 l/m 5,1 km/h (1 Bft) O-NO 61 2 min 0,000 mm 3,3 UV-I 716 W/m 10,7 C 18,4 C 8,0 km/h (2 Bft) 98,18 %
04.04.2018 13:06 18,5 C 7,2 C 60 % 1004,5 hPa 0,0 l/m 5,1 km/h (1 Bft) NO 44 2 min 0,000 mm 3,2 UV-I 673 W/m 10,6 C 18,5 C 8,0 km/h (2 Bft) 97,44 %
04.04.2018 13:08 18,3 C 7,2 C 57 % 1004,5 hPa 0,0 l/m 6,9 km/h (2 Bft) O-NO 78 2 min 0,000 mm 3,2 UV-I 704 W/m 9,6 C 18,1 C 11,3 km/h (2 Bft) 94,00 %
04.04.2018 13:10 18,4 C 7,2 C 58 % 1004,5 hPa 0,0 l/m 5,4 km/h (1 Bft) O-NO 77 2 min 0,000 mm 3,2 UV-I 683 W/m 10,0 C 18,4 C 8,0 km/h (2 Bft) 97,87 %
04.04.2018 13:12 18,4 C 7,2 C 57 % 1004,5 hPa 0,0 l/m 4,7 km/h (1 Bft) O-NO 74 2 min 0,000 mm 3,3 UV-I 730 W/m 9,7 C 18,4 C 8,0 km/h (2 Bft) 97,56 %
04.04.2018 13:14 18,6 C 7,2 C 59 % 1004,5 hPa 0,0 l/m 4,1 km/h (1 Bft) O-NO 59 2 min 0,000 mm 3,4 UV-I 746 W/m 10,4 C 18,6 C 6,4 km/h (2 Bft) 98,11 %
04.04.2018 13:16 18,7 C 7,2 C 58 % 1004,5 hPa 0,0 l/m 3,2 km/h (1 Bft) O-SO 102 2 min 0,000 mm 3,4 UV-I 744 W/m 10,3 C 18,7 C 6,4 km/h (2 Bft) 97,56 %
04.04.2018 13:18 18,7 C 7,2 C 56 % 1004,4 hPa 0,0 l/m 5,1 km/h (1 Bft) O 98 2 min 0,000 mm 3,3 UV-I 731 W/m 9,7 C 18,7 C 6,4 km/h (2 Bft) 96,00 %
04.04.2018 13:20 18,6 C 7,2 C 57 % 1004,4 hPa 0,0 l/m 4,4 km/h (1 Bft) O 86 2 min 0,000 mm 3,3 UV-I 693 W/m 9,9 C 18,6 C 9,7 km/h (2 Bft) 97,87 %
04.04.2018 13:22 18,8 C 7,2 C 57 % 1004,3 hPa 0,0 l/m 6,0 km/h (2 Bft) O 80 2 min 0,000 mm 3,3 UV-I 738 W/m 10,1 C 18,8 C 8,0 km/h (2 Bft) 95,45 %
04.04.2018 13:24 19,1 C 7,2 C 55 % 1004,4 hPa 0,0 l/m 6,9 km/h (2 Bft) O-NO 67 2 min 0,000 mm 3,3 UV-I 729 W/m 9,8 C 18,9 C 9,7 km/h (2 Bft) 98,00 %
04.04.2018 13:26 19,1 C 7,2 C 54 % 1004,4 hPa 0,0 l/m 4,4 km/h (1 Bft) O 85 2 min 0,000 mm 3,4 UV-I 754 W/m 9,6 C 19,1 C 8,0 km/h (2 Bft) 96,23 %
04.04.2018 13:28 18,9 C 7,2 C 55 % 1004,3 hPa 0,0 l/m 2,7 km/h (1 Bft) O 88 2 min 0,000 mm 3,4 UV-I 754 W/m 9,7 C 18,9 C 6,4 km/h (2 Bft) 97,87 %
04.04.2018 13:30 19,3 C 7,2 C 59 % 1004,3 hPa 0,0 l/m 4,4 km/h (1 Bft) NO 38 2 min 0,000 mm 3,3 UV-I 731 W/m 11,1 C 19,3 C 6,4 km/h (2 Bft) 100,00 %
04.04.2018 13:32 19,5 C 7,2 C 57 % 1004,3 hPa 0,0 l/m 6,7 km/h (2 Bft) NO 40 2 min 0,000 mm 3,3 UV-I 725 W/m 10,8 C 19,4 C 9,7 km/h (2 Bft) 98,11 %
04.04.2018 13:34 19,3 C 7,2 C 54 % 1004,3 hPa 0,0 l/m 5,7 km/h (1 Bft) O 83 2 min 0,000 mm 3,3 UV-I 689 W/m 9,8 C 19,3 C 8,0 km/h (2 Bft) 100,00 %
04.04.2018 13:36 19,3 C 7,2 C 53 % 1004,2 hPa 0,0 l/m 4,7 km/h (1 Bft) N-NO 27 2 min 0,000 mm 3,3 UV-I 748 W/m 9,5 C 19,3 C 8,0 km/h (2 Bft) 98,11 %
04.04.2018 13:38 19,7 C 7,2 C 61 % 1004,2 hPa 0,0 l/m 6,5 km/h (2 Bft) N 9 2 min 0,000 mm 3,3 UV-I 751 W/m 12,0 C 19,7 C 9,7 km/h (2 Bft) 97,73 %
04.04.2018 13:40 19,7 C 7,2 C 57 % 1004,2 hPa 0,0 l/m 7,0 km/h (2 Bft) NO 46 2 min 0,000 mm 3,2 UV-I 712 W/m 10,9 C 19,5 C 11,3 km/h (2 Bft) 98,00 %
04.04.2018 13:42 19,8 C 7,2 C 57 % 1004,2 hPa 0,0 l/m 7,5 km/h (2 Bft) NO 41 2 min 0,000 mm 3,1 UV-I 690 W/m 11,0 C 19,3 C 12,9 km/h (3 Bft) 100,00 %
04.04.2018 13:44 19,8 C 7,2 C 53 % 1004,1 hPa 0,0 l/m 5,9 km/h (2 Bft) NO 39 2 min 0,000 mm 3,2 UV-I 717 W/m 9,9 C 19,8 C 8,0 km/h (2 Bft) 100,00 %
04.04.2018 13:46 20,1 C 7,2 C 54 % 1004,1 hPa 0,0 l/m 5,9 km/h (2 Bft) NO 34 2 min 0,000 mm 3,3 UV-I 731 W/m 10,5 C 20,1 C 8,0 km/h (2 Bft) 100,00 %
04.04.2018 13:48 20,2 C 7,2 C 53 % 1004,1 hPa 0,0 l/m 6,4 km/h (2 Bft) NO 44 2 min 0,000 mm 3,2 UV-I 718 W/m 10,3 C 20,2 C 9,7 km/h (2 Bft) 100,00 %
04.04.2018 13:50 19,9 C 7,2 C 53 % 1004,1 hPa 0,0 l/m 5,6 km/h (1 Bft) NO 49 2 min 0,000 mm 3,2 UV-I 716 W/m 10,0 C 19,9 C 9,7 km/h (2 Bft) 100,00 %
04.04.2018 13:52 19,9 C 7,2 C 57 % 1004,1 hPa 0,0 l/m 7,6 km/h (2 Bft) NO 34 2 min 0,000 mm 3,1 UV-I 671 W/m 11,1 C 19,4 C 12,9 km/h (3 Bft) 100,00 %
04.04.2018 13:54 19,9 C 7,2 C 52 % 1004,0 hPa 0,0 l/m 6,3 km/h (2 Bft) NO 49 2 min 0,000 mm 3,1 UV-I 698 W/m 9,7 C 19,9 C 9,7 km/h (2 Bft) 100,00 %
04.04.2018 13:56 19,9 C 7,2 C 56 % 1004,0 hPa 0,0 l/m 4,2 km/h (1 Bft) NO 40 2 min 0,000 mm 3,1 UV-I 681 W/m 10,9 C 19,9 C 6,4 km/h (2 Bft) 96,00 %
04.04.2018 13:58 20,0 C 7,2 C 52 % 1003,9 hPa 0,0 l/m 6,0 km/h (2 Bft) NO 43 2 min 0,000 mm 3,1 UV-I 700 W/m 9,8 C 20,0 C 9,7 km/h (2 Bft) 97,62 %
04.04.2018 14:00 20,3 C 7,2 C 55 % 1003,9 hPa 0,0 l/m 7,4 km/h (2 Bft) NO 46 2 min 0,000 mm 3,1 UV-I 689 W/m 11,0 C 19,9 C 9,7 km/h (2 Bft) 100,00 %
04.04.2018 14:02 20,1 C 7,2 C 48 % 1003,9 hPa 0,0 l/m 2,6 km/h (1 Bft) NO 47 2 min 0,431 mm 3,1 UV-I 697 W/m 8,7 C 20,1 C 4,8 km/h (1 Bft) 98,65 %
04.04.2018 14:04 20,1 C 7,2 C 49 % 1003,8 hPa 0,0 l/m 7,9 km/h (2 Bft) NO 34 2 min 0,000 mm 3,1 UV-I 680 W/m 9,0 C 19,5 C 12,9 km/h (3 Bft) 100,00 %
04.04.2018 14:06 20,1 C 7,2 C 56 % 1003,8 hPa 0,0 l/m 7,4 km/h (2 Bft) O-NO 65 2 min 0,000 mm 3,0 UV-I 678 W/m 11,0 C 19,7 C 8,0 km/h (2 Bft) 97,56 %
04.04.2018 14:08 20,2 C 7,2 C 53 % 1003,8 hPa 0,0 l/m 5,7 km/h (1 Bft) O-NO 65 2 min 0,000 mm 2,9 UV-I 649 W/m 10,3 C 20,2 C 8,0 km/h (2 Bft) 94,34 %
04.04.2018 14:10 20,3 C 7,2 C 52 % 1003,8 hPa 0,0 l/m 4,2 km/h (1 Bft) O-NO 66 2 min 0,000 mm 2,9 UV-I 626 W/m 10,1 C 20,3 C 6,4 km/h (2 Bft) 97,37 %
04.04.2018 14:12 20,4 C 7,2 C 47 % 1003,7 hPa 0,0 l/m 4,6 km/h (1 Bft) O-NO 64 2 min 0,000 mm 2,8 UV-I 614 W/m 8,7 C 20,4 C 8,0 km/h (2 Bft) 98,00 %
04.04.2018 14:14 20,5 C 7,2 C 48 % 1003,8 hPa 0,0 l/m 5,0 km/h (1 Bft) O 96 2 min 0,000 mm 2,8 UV-I 593 W/m 9,1 C 20,5 C 8,0 km/h (2 Bft) 98,11 %
04.04.2018 14:16 20,4 C 7,2 C 47 % 1003,7 hPa 0,0 l/m 7,1 km/h (2 Bft) O-NO 66 2 min 0,000 mm 2,8 UV-I 640 W/m 8,7 C 20,1 C 11,3 km/h (2 Bft) 95,74 %
04.04.2018 14:18 20,4 C 7,2 C 45 % 1003,7 hPa 0,0 l/m 4,6 km/h (1 Bft) O 92 2 min 0,000 mm 2,9 UV-I 628 W/m 8,1 C 20,4 C 8,0 km/h (2 Bft) 97,87 %
04.04.2018 14:20 20,5 C 7,2 C 43 % 1003,7 hPa 0,0 l/m 3,7 km/h (1 Bft) O-SO 107 2 min 0,000 mm 2,9 UV-I 644 W/m 7,5 C 20,5 C 6,4 km/h (2 Bft) 97,56 %
04.04.2018 14:22 20,3 C 7,2 C 43 % 1003,7 hPa 0,0 l/m 3,6 km/h (1 Bft) N-NO 24 2 min 0,000 mm 2,6 UV-I 585 W/m 7,3 C 20,3 C 8,0 km/h (2 Bft) 97,87 %
04.04.2018 14:24 20,4 C 7,2 C 45 % 1003,7 hPa 0,0 l/m 2,9 km/h (1 Bft) NO 34 2 min 0,000 mm 2,6 UV-I 581 W/m 8,1 C 20,4 C 4,8 km/h (1 Bft) 95,24 %
04.04.2018 14:26 20,7 C 7,2 C 51 % 1003,7 hPa 0,0 l/m 4,0 km/h (1 Bft) O-NO 63 2 min 0,000 mm 2,8 UV-I 638 W/m 10,2 C 20,7 C 4,8 km/h (1 Bft) 98,11 %
04.04.2018 14:28 20,8 C 7,2 C 47 % 1003,7 hPa 0,0 l/m 4,8 km/h (1 Bft) O-NO 72 2 min 0,000 mm 2,8 UV-I 631 W/m 9,1 C 20,8 C 8,0 km/h (2 Bft) 97,37 %
04.04.2018 14:30 20,6 C 7,2 C 44 % 1003,6 hPa 0,0 l/m 1,3 km/h (1 Bft) O-SO 111 2 min 0,000 mm 2,8 UV-I 652 W/m 7,9 C 20,6 C 4,8 km/h (1 Bft) 94,34 %
04.04.2018 14:32 20,6 C 7,2 C 46 % 1003,7 hPa 0,0 l/m 2,2 km/h (1 Bft) NO 51 2 min 0,000 mm 2,8 UV-I 634 W/m 8,6 C 20,6 C 8,0 km/h (2 Bft) 96,23 %
04.04.2018 14:34 20,7 C 7,2 C 52 % 1003,7 hPa 0,0 l/m 5,4 km/h (1 Bft) O-NO 70 2 min 0,000 mm 2,7 UV-I 610 W/m 10,5 C 20,7 C 8,0 km/h (2 Bft) 97,73 %
04.04.2018 14:36 20,8 C 7,2 C 51 % 1003,6 hPa 0,0 l/m 4,6 km/h (1 Bft) NO 45 2 min 0,000 mm 2,8 UV-I 658 W/m 10,3 C 20,8 C 6,4 km/h (2 Bft) 98,00 %
04.04.2018 14:38 21,0 C 7,2 C 49 % 1003,6 hPa 0,0 l/m 4,5 km/h (1 Bft) NO 39 2 min 0,000 mm 2,8 UV-I 665 W/m 9,9 C 21,0 C 6,4 km/h (2 Bft) 95,74 %
04.04.2018 14:40 21,0 C 7,2 C 44 % 1003,5 hPa 0,0 l/m 2,0 km/h (1 Bft) NO 39 2 min 0,000 mm 2,7 UV-I 631 W/m 8,3 C 21,0 C 4,8 km/h (1 Bft) 95,65 %
04.04.2018 14:42 20,9 C 7,2 C 45 % 1003,5 hPa 0,0 l/m 1,4 km/h (1 Bft) NO 34 2 min 0,000 mm 2,8 UV-I 659 W/m 8,5 C 20,9 C 3,2 km/h (1 Bft) 98,46 %
04.04.2018 14:44 20,9 C 7,2 C 46 % 1003,5 hPa 0,0 l/m 3,8 km/h (1 Bft) N 5 2 min 0,000 mm 2,7 UV-I 663 W/m 8,8 C 20,9 C 8,0 km/h (2 Bft) 97,87 %
04.04.2018 14:46 21,1 C 7,2 C 44 % 1003,4 hPa 0,0 l/m 5,6 km/h (1 Bft) N-NO 22 2 min 0,000 mm 2,7 UV-I 650 W/m 8,4 C 21,1 C 12,9 km/h (3 Bft) 98,00 %
04.04.2018 14:48 21,2 C 7,2 C 51 % 1003,4 hPa 0,0 l/m 6,9 km/h (2 Bft) N 9 2 min 0,000 mm 2,7 UV-I 657 W/m 10,7 C 21,0 C 8,0 km/h (2 Bft) 97,56 %
04.04.2018 14:50 21,2 C 7,2 C 45 % 1003,4 hPa 0,0 l/m 6,2 km/h (2 Bft) N 360 2 min 0,000 mm 2,7 UV-I 674 W/m 8,8 C 21,2 C 8,0 km/h (2 Bft) 95,74 %
04.04.2018 14:52 21,2 C 7,2 C 43 % 1003,4 hPa 0,0 l/m 5,1 km/h (1 Bft) N 360 2 min 0,000 mm 2,5 UV-I 608 W/m 8,1 C 21,2 C 8,0 km/h (2 Bft) 94,12 %
04.04.2018 14:54 21,0 C 7,2 C 41 % 1003,4 hPa 0,0 l/m 1,4 km/h (1 Bft) N 360 2 min 0,000 mm 2,4 UV-I 569 W/m 7,2 C 21,0 C 3,2 km/h (1 Bft) 93,62 %
04.04.2018 14:56 20,9 C 7,2 C 43 % 1003,3 hPa 0,0 l/m 0,0 km/h (0 Bft) N 360 2 min 0,000 mm 2,4 UV-I 566 W/m 7,8 C 20,9 C 1,6 km/h (1 Bft) 96,00 %
04.04.2018 14:58 20,9 C 7,2 C 42 % 1003,3 hPa 0,0 l/m 1,9 km/h (1 Bft) NO 42 2 min 0,000 mm 2,4 UV-I 559 W/m 7,5 C 20,9 C 4,8 km/h (1 Bft) 94,87 %
04.04.2018 15:00 21,2 C 7,2 C 45 % 1003,3 hPa 0,0 l/m 5,0 km/h (1 Bft) O 98 2 min 0,407 mm 2,4 UV-I 581 W/m 8,8 C 21,2 C 9,7 km/h (2 Bft) 90,91 %
04.04.2018 15:02 21,3 C 7,2 C 41 % 1003,3 hPa 0,0 l/m 5,4 km/h (1 Bft) O 86 2 min 0,000 mm 2,3 UV-I 562 W/m 7,5 C 21,3 C 11,3 km/h (2 Bft) 97,22 %
04.04.2018 15:04 21,3 C 7,2 C 45 % 1003,1 hPa 0,0 l/m 6,0 km/h (2 Bft) O-NO 67 2 min 0,000 mm 2,3 UV-I 560 W/m 8,9 C 21,3 C 12,9 km/h (3 Bft) 92,86 %
04.04.2018 15:06 21,4 C 7,2 C 49 % 1003,1 hPa 0,0 l/m 9,3 km/h (2 Bft) NO 38 2 min 0,000 mm 2,3 UV-I 550 W/m 10,2 C 20,4 C 14,5 km/h (3 Bft) 92,68 %
04.04.2018 15:08 21,3 C 7,2 C 50 % 1003,1 hPa 0,0 l/m 7,4 km/h (2 Bft) NO 39 2 min 0,000 mm 2,2 UV-I 525 W/m 10,4 C 20,9 C 9,7 km/h (2 Bft) 96,23 %
04.04.2018 15:10 21,2 C 7,2 C 49 % 1003,1 hPa 0,0 l/m 6,6 km/h (2 Bft) NO 46 2 min 0,000 mm 2,2 UV-I 536 W/m 10,1 C 21,1 C 9,7 km/h (2 Bft) 92,31 %
04.04.2018 15:12 21,2 C 7,2 C 47 % 1003,1 hPa 0,0 l/m 4,4 km/h (1 Bft) NO 46 2 min 0,000 mm 2,2 UV-I 582 W/m 9,4 C 21,2 C 6,4 km/h (2 Bft) 96,92 %
04.04.2018 15:14 21,4 C 7,2 C 44 % 1003,1 hPa 0,0 l/m 6,8 km/h (2 Bft) O 90 2 min 0,000 mm 2,1 UV-I 535 W/m 8,6 C 21,3 C 12,9 km/h (3 Bft) 93,62 %
04.04.2018 15:16 21,4 C 7,2 C 43 % 1003,1 hPa 0,0 l/m 10,6 km/h (2 Bft) SO 141 2 min 0,000 mm 2,1 UV-I 516 W/m 8,3 C 20,0 C 16,1 km/h (3 Bft) 98,00 %
04.04.2018 15:18 21,3 C 7,2 C 41 % 1003,0 hPa 0,0 l/m 9,6 km/h (2 Bft) SO 132 2 min 0,000 mm 2,1 UV-I 512 W/m 7,5 C 20,2 C 16,1 km/h (3 Bft) 95,45 %
04.04.2018 15:20 21,2 C 7,2 C 42 % 1003,0 hPa 0,0 l/m 7,1 km/h (2 Bft) O-SO 107 2 min 0,000 mm 2,0 UV-I 490 W/m 7,8 C 20,9 C 12,9 km/h (3 Bft) 98,00 %
04.04.2018 15:22 21,2 C 7,2 C 42 % 1003,0 hPa 0,0 l/m 6,1 km/h (2 Bft) O-NO 74 2 min 0,000 mm 1,9 UV-I 484 W/m 7,8 C 21,2 C 11,3 km/h (2 Bft) 100,00 %
04.04.2018 15:24 21,2 C 7,2 C 43 % 1003,0 hPa 0,0 l/m 2,9 km/h (1 Bft) O-NO 74 2 min 0,000 mm 1,9 UV-I 455 W/m 8,1 C 21,2 C 6,4 km/h (2 Bft) 100,00 %
04.04.2018 15:26 21,2 C 7,2 C 44 % 1002,9 hPa 0,0 l/m 6,5 km/h (2 Bft) O 100 2 min 0,000 mm 1,8 UV-I 437 W/m 8,5 C 21,2 C 11,3 km/h (2 Bft) 100,00 %
04.04.2018 15:29 21,0 C 7,2 C 42 % 1002,9 hPa 0,0 l/m 5,9 km/h (2 Bft) O-SO 103 3 min 0,000 mm 1,7 UV-I 370 W/m 7,6 C 21,0 C 12,9 km/h (3 Bft) 96,25 %
04.04.2018 15:30 21,0 C 7,2 C 42 % 1002,9 hPa 0,0 l/m 8,3 km/h (2 Bft) O-SO 103 1 min 0,000 mm 1,6 UV-I 381 W/m 7,6 C 20,3 C 12,9 km/h (3 Bft) 100,00 %
04.04.2018 15:32 20,9 C 7,2 C 42 % 1002,9 hPa 0,0 l/m 9,2 km/h (2 Bft) O 94 2 min 0,000 mm 1,6 UV-I 379 W/m 7,5 C 19,9 C 12,9 km/h (3 Bft) 100,00 %
04.04.2018 15:34 20,9 C 7,2 C 44 % 1002,8 hPa 0,0 l/m 7,4 km/h (2 Bft) O 88 2 min 0,000 mm 1,6 UV-I 371 W/m 8,2 C 20,5 C 12,9 km/h (3 Bft) 100,00 %
04.04.2018 15:36 20,8 C 7,2 C 44 % 1002,8 hPa 0,0 l/m 7,3 km/h (2 Bft) O-NO 69 2 min 0,000 mm 1,5 UV-I 348 W/m 8,1 C 20,5 C 11,3 km/h (2 Bft) 100,00 %
04.04.2018 15:38 20,9 C 7,2 C 44 % 1002,8 hPa 0,0 l/m 9,1 km/h (2 Bft) O-NO 78 0 min 0,000 mm 1,4 UV-I 326 W/m 8,2 C 19,9 C 12,9 km/h (3 Bft) 100,00 %
04.04.2018 15:40 20,8 C 7,2 C 45 % 1002,9 hPa 0,0 l/m 8,6 km/h (2 Bft) O-NO 69 0 min 0,000 mm 1,4 UV-I 300 W/m 8,4 C 20,0 C 12,9 km/h (3 Bft) 100,00 %
04.04.2018 15:42 20,7 C 7,2 C 44 % 1002,9 hPa 0,0 l/m 9,6 km/h (2 Bft) SO 125 0 min 0,000 mm 1,3 UV-I 301 W/m 8,0 C 19,5 C 14,5 km/h (3 Bft) 100,00 %
04.04.2018 15:44 20,7 C 7,2 C 45 % 1002,8 hPa 0,0 l/m 9,8 km/h (2 Bft) O-SO 109 0 min 0,000 mm 1,4 UV-I 308 W/m 8,3 C 19,5 C 14,5 km/h (3 Bft) 95,74 %
04.04.2018 15:46 20,6 C 7,2 C 44 % 1002,8 hPa 0,0 l/m 8,3 km/h (2 Bft) O 89 0 min 0,000 mm 1,4 UV-I 319 W/m 7,9 C 19,9 C 11,3 km/h (2 Bft) 100,00 %
04.04.2018 15:48 20,6 C 7,2 C 44 % 1002,8 hPa 0,0 l/m 7,0 km/h (2 Bft) O-SO 120 0 min 0,000 mm 1,3 UV-I 311 W/m 7,9 C 20,4 C 11,3 km/h (2 Bft) 100,00 %
04.04.2018 15:50 20,6 C 7,2 C 43 % 1002,9 hPa 0,0 l/m 4,2 km/h (1 Bft) O-SO 107 0 min 0,000 mm 1,3 UV-I 314 W/m 7,6 C 20,6 C 6,4 km/h (2 Bft) 100,00 %
04.04.2018 15:52 20,6 C 7,2 C 44 % 1002,8 hPa 0,0 l/m 6,5 km/h (2 Bft) O-SO 108 0 min 0,000 mm 1,3 UV-I 305 W/m 7,9 C 20,6 C 9,7 km/h (2 Bft) 98,11 %
04.04.2018 15:54 20,6 C 7,2 C 43 % 1002,8 hPa 0,0 l/m 5,4 km/h (1 Bft) O-SO 115 0 min 0,000 mm 1,3 UV-I 298 W/m 7,6 C 20,6 C 9,7 km/h (2 Bft) 100,00 %
04.04.2018 15:56 20,6 C 7,2 C 43 % 1002,8 hPa 0,0 l/m 6,0 km/h (2 Bft) O-SO 107 0 min 0,000 mm 1,3 UV-I 305 W/m 7,6 C 20,6 C 9,7 km/h (2 Bft) 100,00 %
04.04.2018 15:58 20,6 C 7,2 C 43 % 1002,8 hPa 0,0 l/m 4,2 km/h (1 Bft) O-SO 103 2 min 0,000 mm 1,3 UV-I 323 W/m 7,6 C 20,6 C 9,7 km/h (2 Bft) 100,00 %
04.04.2018 16:00 20,7 C 7,2 C 43 % 1002,8 hPa 0,0 l/m 7,6 km/h (2 Bft) O-SO 107 2 min 0,305 mm 1,3 UV-I 320 W/m 7,7 C 20,2 C 12,9 km/h (3 Bft) 100,00 %
04.04.2018 16:02 20,8 C 7,2 C 42 % 1002,8 hPa 0,0 l/m 8,0 km/h (2 Bft) O-SO 103 2 min 0,000 mm 1,2 UV-I 308 W/m 7,4 C 20,2 C 11,3 km/h (2 Bft) 98,00 %
04.04.2018 16:04 20,6 C 7,2 C 42 % 1002,8 hPa 0,0 l/m 4,3 km/h (1 Bft) O 101 0 min 0,000 mm 1,2 UV-I 282 W/m 7,2 C 20,6 C 9,7 km/h (2 Bft) 100,00 %
04.04.2018 16:06 20,6 C 7,2 C 44 % 1002,8 hPa 0,0 l/m 6,3 km/h (2 Bft) O-SO 111 0 min 0,000 mm 1,1 UV-I 272 W/m 7,9 C 20,6 C 9,7 km/h (2 Bft) 100,00 %
04.04.2018 16:08 20,6 C 7,2 C 43 % 1002,8 hPa 0,0 l/m 6,9 km/h (2 Bft) O-SO 109 0 min 0,000 mm 1,1 UV-I 267 W/m 7,6 C 20,4 C 11,3 km/h (2 Bft) 100,00 %
04.04.2018 16:10 20,5 C 7,2 C 45 % 1002,7 hPa 0,0 l/m 6,2 km/h (2 Bft) O 100 0 min 0,000 mm 1,1 UV-I 264 W/m 8,2 C 20,5 C 11,3 km/h (2 Bft) 97,87 %
04.04.2018 16:12 20,5 C 7,2 C 43 % 1002,7 hPa 0,0 l/m 8,2 km/h (2 Bft) O 90 0 min 0,000 mm 1,1 UV-I 265 W/m 7,5 C 19,8 C 11,3 km/h (2 Bft) 98,11 %
04.04.2018 16:14 20,6 C 7,2 C 43 % 1002,7 hPa 0,0 l/m 8,6 km/h (2 Bft) O 101 0 min 0,000 mm 1,1 UV-I 266 W/m 7,6 C 19,8 C 11,3 km/h (2 Bft) 97,37 %
04.04.2018 16:16 20,6 C 7,2 C 44 % 1002,6 hPa 0,0 l/m 6,9 km/h (2 Bft) O-SO 110 2 min 0,000 mm 1,1 UV-I 290 W/m 7,9 C 20,4 C 11,3 km/h (2 Bft) 100,00 %
04.04.2018 16:18 20,7 C 7,2 C 45 % 1002,6 hPa 0,0 l/m 4,8 km/h (1 Bft) SO 134 2 min 0,000 mm 1,1 UV-I 376 W/m 8,3 C 20,7 C 6,4 km/h (2 Bft) 100,00 %
04.04.2018 16:20 20,8 C 7,2 C 44 % 1002,6 hPa 0,0 l/m 6,0 km/h (2 Bft) O 97 2 min 0,000 mm 1,3 UV-I 443 W/m 8,1 C 20,8 C 11,3 km/h (2 Bft) 100,00 %
04.04.2018 16:22 20,9 C 7,2 C 42 % 1002,6 hPa 0,0 l/m 9,3 km/h (2 Bft) O-SO 107 2 min 0,000 mm 1,3 UV-I 467 W/m 7,5 C 19,9 C 14,5 km/h (3 Bft) 98,21 %
04.04.2018 16:24 20,9 C 7,2 C 45 % 1002,5 hPa 0,0 l/m 8,4 km/h (2 Bft) O 84 2 min 0,000 mm 1,3 UV-I 456 W/m 8,5 C 20,2 C 12,9 km/h (3 Bft) 100,00 %
04.04.2018 16:26 21,0 C 7,2 C 43 % 1002,5 hPa 0,0 l/m 9,8 km/h (2 Bft) O-NO 69 2 min 0,000 mm 1,4 UV-I 482 W/m 7,9 C 19,8 C 12,9 km/h (3 Bft) 100,00 %
04.04.2018 16:28 21,0 C 7,2 C 44 % 1002,4 hPa 0,0 l/m 12,5 km/h (3 Bft) O-NO 78 2 min 0,000 mm 1,4 UV-I 511 W/m 8,3 C 19,1 C 16,1 km/h (3 Bft) 100,00 %
04.04.2018 16:30 21,1 C 7,2 C 45 % 1002,4 hPa 0,0 l/m 12,0 km/h (2 Bft) O 99 2 min 0,000 mm 1,3 UV-I 500 W/m 8,7 C 19,3 C 14,5 km/h (3 Bft) 100,00 %
04.04.2018 16:32 21,1 C 7,2 C 44 % 1002,4 hPa 0,0 l/m 14,0 km/h (3 Bft) O-SO 104 2 min 0,000 mm 1,3 UV-I 461 W/m 8,4 C 18,8 C 19,3 km/h (3 Bft) 100,00 %
04.04.2018 16:34 21,1 C 7,2 C 46 % 1002,3 hPa 0,0 l/m 11,6 km/h (2 Bft) O 80 2 min 0,000 mm 1,2 UV-I 431 W/m 9,0 C 19,4 C 17,7 km/h (3 Bft) 100,00 %
04.04.2018 16:36 20,9 C 7,2 C 43 % 1002,3 hPa 0,0 l/m 14,3 km/h (3 Bft) O-NO 78 2 min 0,000 mm 1,2 UV-I 376 W/m 7,8 C 18,5 C 17,7 km/h (3 Bft) 97,22 %
04.04.2018 16:38 20,8 C 7,2 C 45 % 1002,3 hPa 0,0 l/m 12,4 km/h (3 Bft) O 90 2 min 0,000 mm 1,0 UV-I 310 W/m 8,4 C 18,8 C 17,7 km/h (3 Bft) 100,00 %
04.04.2018 16:40 20,8 C 7,2 C 44 % 1002,3 hPa 0,0 l/m 11,0 km/h (2 Bft) O 90 2 min 0,000 mm 1,0 UV-I 271 W/m 8,1 C 19,2 C 14,5 km/h (3 Bft) 97,56 %
04.04.2018 16:42 20,7 C 7,2 C 47 % 1002,2 hPa 0,0 l/m 10,3 km/h (2 Bft) O-NO 78 2 min 0,000 mm 0,9 UV-I 262 W/m 9,0 C 19,3 C 16,1 km/h (3 Bft) 98,11 %
04.04.2018 16:44 20,7 C 7,2 C 46 % 1002,2 hPa 0,0 l/m 10,3 km/h (2 Bft) O 95 0 min 0,000 mm 0,9 UV-I 249 W/m 8,7 C 19,3 C 14,5 km/h (3 Bft) 100,00 %
04.04.2018 16:46 20,6 C 7,2 C 44 % 1002,2 hPa 0,0 l/m 12,0 km/h (2 Bft) O-SO 111 0 min 0,000 mm 0,9 UV-I 250 W/m 7,9 C 18,7 C 17,7 km/h (3 Bft) 93,62 %
04.04.2018 16:48 20,6 C 7,2 C 46 % 1002,1 hPa 0,0 l/m 10,7 km/h (2 Bft) O 85 2 min 0,000 mm 0,9 UV-I 268 W/m 8,6 C 19,1 C 16,1 km/h (3 Bft) 96,00 %
04.04.2018 16:50 20,6 C 7,2 C 45 % 1002,1 hPa 0,0 l/m 12,2 km/h (2 Bft) O-SO 105 2 min 0,000 mm 0,9 UV-I 276 W/m 8,2 C 18,7 C 14,5 km/h (3 Bft) 97,56 %
04.04.2018 16:52 20,6 C 7,2 C 47 % 1002,0 hPa 0,0 l/m 10,6 km/h (2 Bft) O-SO 111 2 min 0,000 mm 0,9 UV-I 295 W/m 8,9 C 19,1 C 16,1 km/h (3 Bft) 95,12 %
04.04.2018 16:54 20,6 C 7,2 C 47 % 1002,0 hPa 0,0 l/m 14,7 km/h (3 Bft) O 85 2 min 0,000 mm 0,9 UV-I 319 W/m 8,9 C 18,0 C 17,7 km/h (3 Bft) 98,31 %
04.04.2018 16:56 20,6 C 7,2 C 46 % 1002,0 hPa 0,0 l/m 12,8 km/h (3 Bft) O 87 2 min 0,000 mm 0,9 UV-I 327 W/m 8,6 C 18,5 C 16,1 km/h (3 Bft) 96,15 %
04.04.2018 16:58 20,6 C 7,2 C 46 % 1002,1 hPa 0,0 l/m 12,2 km/h (2 Bft) SO 131 2 min 0,000 mm 0,9 UV-I 324 W/m 8,6 C 18,7 C 16,1 km/h (3 Bft) 98,31 %
04.04.2018 17:00 20,7 C 7,2 C 45 % 1002,1 hPa 0,0 l/m 9,4 km/h (2 Bft) O-SO 104 2 min 0,279 mm 0,9 UV-I 320 W/m 8,3 C 19,6 C 14,5 km/h (3 Bft) 96,43 %
04.04.2018 17:02 20,7 C 7,2 C 47 % 1002,0 hPa 0,0 l/m 10,1 km/h (2 Bft) O 90 2 min 0,000 mm 0,9 UV-I 310 W/m 9,0 C 19,4 C 16,1 km/h (3 Bft) 97,56 %
04.04.2018 17:04 20,7 C 7,2 C 47 % 1002,0 hPa 0,0 l/m 12,1 km/h (2 Bft) O 83 2 min 0,000 mm 0,9 UV-I 329 W/m 9,0 C 18,8 C 17,7 km/h (3 Bft) 96,23 %
04.04.2018 17:06 20,7 C 7,2 C 48 % 1002,0 hPa 0,0 l/m 11,5 km/h (2 Bft) O-SO 109 2 min 0,000 mm 1,0 UV-I 468 W/m 9,3 C 19,0 C 17,7 km/h (3 Bft) 97,73 %
04.04.2018 17:08 20,8 C 7,2 C 46 % 1002,0 hPa 0,0 l/m 12,4 km/h (3 Bft) O 100 2 min 0,000 mm 1,0 UV-I 475 W/m 8,8 C 18,8 C 16,1 km/h (3 Bft) 100,00 %
04.04.2018 17:10 20,9 C 7,2 C 46 % 1002,0 hPa 0,0 l/m 13,8 km/h (3 Bft) O-SO 113 2 min 0,000 mm 1,0 UV-I 469 W/m 8,8 C 18,6 C 16,1 km/h (3 Bft) 97,06 %
04.04.2018 17:12 21,1 C 7,2 C 46 % 1001,9 hPa 0,0 l/m 10,6 km/h (2 Bft) O 98 2 min 0,000 mm 1,0 UV-I 456 W/m 9,0 C 19,7 C 16,1 km/h (3 Bft) 97,96 %
04.04.2018 17:14 21,1 C 7,2 C 47 % 1001,9 hPa 0,0 l/m 11,3 km/h (2 Bft) O 98 2 min 0,000 mm 0,9 UV-I 436 W/m 9,3 C 19,5 C 17,7 km/h (3 Bft) 93,33 %
04.04.2018 17:16 21,1 C 7,2 C 47 % 1001,9 hPa 0,0 l/m 10,6 km/h (2 Bft) O 86 2 min 0,000 mm 0,9 UV-I 417 W/m 9,3 C 19,7 C 14,5 km/h (3 Bft) 97,56 %
04.04.2018 17:18 21,1 C 7,2 C 48 % 1001,9 hPa 0,0 l/m 9,9 km/h (2 Bft) O 96 2 min 0,000 mm 0,8 UV-I 400 W/m 9,7 C 19,9 C 12,9 km/h (3 Bft) 98,11 %
04.04.2018 17:20 21,2 C 7,2 C 47 % 1001,9 hPa 0,0 l/m 11,7 km/h (2 Bft) O 87 2 min 0,000 mm 0,8 UV-I 380 W/m 9,4 C 19,5 C 16,1 km/h (3 Bft) 100,00 %
04.04.2018 17:22 21,2 C 7,2 C 48 % 1001,8 hPa 0,0 l/m 10,2 km/h (2 Bft) O 101 2 min 0,000 mm 0,8 UV-I 364 W/m 9,7 C 19,9 C 14,5 km/h (3 Bft) 100,00 %
04.04.2018 17:24 21,2 C 7,2 C 48 % 1001,8 hPa 0,0 l/m 13,7 km/h (3 Bft) O 92 2 min 0,000 mm 0,7 UV-I 347 W/m 9,7 C 19,0 C 17,7 km/h (3 Bft) 95,74 %
04.04.2018 17:26 21,1 C 7,2 C 44 % 1001,9 hPa 0,0 l/m 16,3 km/h (3 Bft) O-SO 103 2 min 0,000 mm 0,7 UV-I 333 W/m 8,4 C 18,3 C 22,5 km/h (4 Bft) 100,00 %
04.04.2018 17:28 21,2 C 7,2 C 45 % 1001,9 hPa 0,0 l/m 11,1 km/h (2 Bft) O-NO 60 2 min 0,000 mm 0,7 UV-I 318 W/m 8,8 C 19,7 C 14,5 km/h (3 Bft) 100,00 %
04.04.2018 17:30 21,2 C 7,2 C 46 % 1001,9 hPa 0,0 l/m 13,1 km/h (3 Bft) O 97 2 min 0,000 mm 0,6 UV-I 308 W/m 9,1 C 19,1 C 17,7 km/h (3 Bft) 100,00 %
04.04.2018 17:32 21,1 C 7,2 C 47 % 1001,9 hPa 0,0 l/m 13,8 km/h (3 Bft) O 82 2 min 0,000 mm 0,6 UV-I 297 W/m 9,3 C 18,9 C 17,7 km/h (3 Bft) 100,00 %
04.04.2018 17:34 21,1 C 7,2 C 47 % 1001,9 hPa 0,0 l/m 12,7 km/h (3 Bft) O-SO 108 2 min 0,000 mm 0,6 UV-I 288 W/m 9,3 C 19,1 C 16,1 km/h (3 Bft) 100,00 %
04.04.2018 17:36 21,0 C 7,2 C 48 % 1001,9 hPa 0,0 l/m 13,8 km/h (3 Bft) O 92 2 min 0,000 mm 0,6 UV-I 279 W/m 9,6 C 18,7 C 17,7 km/h (3 Bft) 100,00 %
04.04.2018 17:38 20,9 C 7,2 C 48 % 1001,9 hPa 0,0 l/m 11,7 km/h (2 Bft) O 98 2 min 0,000 mm 0,6 UV-I 271 W/m 9,5 C 19,1 C 16,1 km/h (3 Bft) 100,00 %
04.04.2018 17:40 21,0 C 7,2 C 46 % 1001,9 hPa 0,0 l/m 11,8 km/h (2 Bft) O 90 2 min 0,000 mm 0,5 UV-I 265 W/m 8,9 C 19,2 C 14,5 km/h (3 Bft) 100,00 %
04.04.2018 17:42 20,9 C 7,2 C 46 % 1001,9 hPa 0,0 l/m 13,1 km/h (3 Bft) O 98 2 min 0,000 mm 0,5 UV-I 258 W/m 8,8 C 18,8 C 17,7 km/h (3 Bft) 100,00 %
04.04.2018 17:44 20,9 C 7,2 C 45 % 1001,9 hPa 0,0 l/m 14,5 km/h (3 Bft) O 92 2 min 0,000 mm 0,5 UV-I 252 W/m 8,5 C 18,5 C 19,3 km/h (3 Bft) 100,00 %
04.04.2018 17:46 20,8 C 7,2 C 47 % 1001,8 hPa 0,0 l/m 11,3 km/h (2 Bft) O 101 2 min 0,000 mm 0,5 UV-I 245 W/m 9,1 C 19,1 C 16,1 km/h (3 Bft) 100,00 %
04.04.2018 17:48 20,8 C 7,2 C 46 % 1001,8 hPa 0,0 l/m 14,0 km/h (3 Bft) O 94 2 min 0,000 mm 0,5 UV-I 239 W/m 8,8 C 18,4 C 17,7 km/h (3 Bft) 100,00 %
04.04.2018 17:50 20,7 C 7,2 C 47 % 1001,8 hPa 0,0 l/m 13,4 km/h (3 Bft) O-SO 110 2 min 0,000 mm 0,1 UV-I 232 W/m 9,0 C 18,5 C 17,7 km/h (3 Bft) 100,00 %
04.04.2018 17:52 20,8 C 7,2 C 47 % 1001,8 hPa 0,0 l/m 10,3 km/h (2 Bft) O-SO 106 2 min 0,000 mm 0,0 UV-I 226 W/m 9,1 C 19,4 C 16,1 km/h (3 Bft) 100,00 %
04.04.2018 17:54 20,8 C 7,2 C 49 % 1001,8 hPa 0,0 l/m 12,2 km/h (2 Bft) O-SO 102 2 min 0,000 mm 0,0 UV-I 221 W/m 9,7 C 18,9 C 14,5 km/h (3 Bft) 100,00 %
04.04.2018 17:56 20,7 C 7,2 C 50 % 1001,8 hPa 0,0 l/m 15,5 km/h (3 Bft) O 90 2 min 0,000 mm 0,0 UV-I 213 W/m 9,9 C 18,0 C 19,3 km/h (3 Bft) 97,37 %
04.04.2018 17:58 20,6 C 7,2 C 50 % 1001,7 hPa 0,0 l/m 15,7 km/h (3 Bft) O 92 2 min 0,000 mm 0,0 UV-I 207 W/m 9,8 C 17,8 C 19,3 km/h (3 Bft) 100,00 %
04.04.2018 18:00 20,5 C 7,2 C 52 % 1001,7 hPa 0,0 l/m 13,9 km/h (3 Bft) O 90 2 min 0,000 mm 0,0 UV-I 202 W/m 10,3 C 18,1 C 17,7 km/h (3 Bft) 100,00 %
04.04.2018 18:02 20,5 C 7,2 C 51 % 1001,7 hPa 0,0 l/m 13,8 km/h (3 Bft) O 100 2 min 0,279 mm 0,0 UV-I 197 W/m 10,0 C 18,1 C 17,7 km/h (3 Bft) 100,00 %
04.04.2018 18:04 20,4 C 7,2 C 53 % 1001,7 hPa 0,0 l/m 13,5 km/h (3 Bft) O-SO 110 2 min 0,000 mm 0,0 UV-I 192 W/m 10,5 C 18,1 C 17,7 km/h (3 Bft) 100,00 %
04.04.2018 18:06 20,3 C 7,2 C 54 % 1001,7 hPa 0,0 l/m 14,3 km/h (3 Bft) O-SO 114 2 min 0,000 mm 0,0 UV-I 187 W/m 10,7 C 17,8 C 17,7 km/h (3 Bft) 100,00 %
04.04.2018 18:08 20,3 C 7,2 C 55 % 1001,7 hPa 0,0 l/m 12,3 km/h (3 Bft) O 85 2 min 0,000 mm 0,0 UV-I 181 W/m 11,0 C 18,3 C 17,7 km/h (3 Bft) 100,00 %
04.04.2018 18:10 20,2 C 7,2 C 56 % 1001,7 hPa 0,0 l/m 14,0 km/h (3 Bft) O 96 2 min 0,000 mm 0,0 UV-I 177 W/m 11,1 C 17,7 C 19,3 km/h (3 Bft) 100,00 %
04.04.2018 18:12 20,2 C 7,2 C 56 % 1001,7 hPa 0,0 l/m 13,8 km/h (3 Bft) O 98 2 min 0,000 mm 0,0 UV-I 171 W/m 11,1 C 17,8 C 17,7 km/h (3 Bft) 97,56 %
04.04.2018 18:14 20,1 C 7,2 C 56 % 1001,7 hPa 0,0 l/m 15,0 km/h (3 Bft) O-SO 107 2 min 0,000 mm 0,0 UV-I 165 W/m 11,0 C 17,4 C 20,9 km/h (4 Bft) 97,87 %
04.04.2018 18:16 20,0 C 7,2 C 55 % 1001,6 hPa 0,0 l/m 15,7 km/h (3 Bft) O-SO 103 2 min 0,000 mm 0,0 UV-I 162 W/m 10,7 C 17,1 C 20,9 km/h (4 Bft) 98,11 %
04.04.2018 18:18 20,0 C 7,2 C 55 % 1001,7 hPa 0,0 l/m 16,8 km/h (3 Bft) O-SO 103 2 min 0,000 mm 0,0 UV-I 156 W/m 10,7 C 16,8 C 20,9 km/h (4 Bft) 95,45 %
04.04.2018 18:20 19,9 C 7,2 C 55 % 1001,6 hPa 0,0 l/m 16,1 km/h (3 Bft) O 92 2 min 0,000 mm 0,0 UV-I 152 W/m 10,6 C 16,9 C 20,9 km/h (4 Bft) 97,73 %
04.04.2018 18:22 19,8 C 7,2 C 55 % 1001,6 hPa 0,0 l/m 14,4 km/h (3 Bft) O-SO 103 2 min 0,000 mm 0,0 UV-I 147 W/m 10,5 C 17,2 C 22,5 km/h (4 Bft) 96,43 %
04.04.2018 18:24 19,7 C 7,2 C 56 % 1001,6 hPa 0,0 l/m 15,9 km/h (3 Bft) O-SO 104 2 min 0,000 mm 0,0 UV-I 142 W/m 10,7 C 16,7 C 20,9 km/h (4 Bft) 96,15 %
04.04.2018 18:26 19,7 C 7,2 C 57 % 1001,6 hPa 0,0 l/m 16,0 km/h (3 Bft) O 83 2 min 0,000 mm 0,0 UV-I 136 W/m 10,9 C 16,6 C 22,5 km/h (4 Bft) 96,92 %
04.04.2018 18:28 19,6 C 7,2 C 57 % 1001,6 hPa 0,0 l/m 13,0 km/h (3 Bft) O-NO 78 2 min 0,000 mm 0,0 UV-I 131 W/m 10,8 C 17,3 C 17,7 km/h (3 Bft) 98,11 %
04.04.2018 18:30 19,4 C 7,2 C 57 % 1001,6 hPa 0,0 l/m 15,0 km/h (3 Bft) O 93 2 min 0,000 mm 0,0 UV-I 127 W/m 10,7 C 16,5 C 19,3 km/h (3 Bft) 97,87 %
04.04.2018 18:32 19,3 C 7,2 C 56 % 1001,6 hPa 0,0 l/m 14,5 km/h (3 Bft) O-SO 119 2 min 0,000 mm 0,0 UV-I 122 W/m 10,3 C 16,5 C 19,3 km/h (3 Bft) 96,88 %
04.04.2018 18:34 19,3 C 7,2 C 57 % 1001,6 hPa 0,0 l/m 12,9 km/h (3 Bft) O 91 2 min 0,000 mm 0,0 UV-I 118 W/m 10,6 C 17,0 C 16,1 km/h (3 Bft) 96,23 %
04.04.2018 18:36 19,3 C 7,2 C 57 % 1001,7 hPa 0,0 l/m 11,8 km/h (2 Bft) O-SO 107 2 min 0,000 mm 0,0 UV-I 114 W/m 10,6 C 17,3 C 16,1 km/h (3 Bft) 97,87 %
04.04.2018 18:38 19,2 C 7,2 C 56 % 1001,7 hPa 0,0 l/m 12,0 km/h (2 Bft) O-SO 113 2 min 0,000 mm 0,0 UV-I 108 W/m 10,2 C 17,1 C 17,7 km/h (3 Bft) 97,73 %
04.04.2018 18:40 19,2 C 7,2 C 57 % 1001,7 hPa 0,0 l/m 12,4 km/h (3 Bft) O 87 2 min 0,000 mm 0,0 UV-I 106 W/m 10,5 C 17,0 C 14,5 km/h (3 Bft) 100,00 %
04.04.2018 18:42 19,1 C 7,2 C 57 % 1001,6 hPa 0,0 l/m 12,5 km/h (3 Bft) O 92 2 min 0,000 mm 0,0 UV-I 101 W/m 10,4 C 16,8 C 16,1 km/h (3 Bft) 95,08 %
04.04.2018 18:44 19,0 C 7,2 C 58 % 1001,7 hPa 0,0 l/m 11,5 km/h (2 Bft) O 101 2 min 0,000 mm 0,0 UV-I 92 W/m 10,5 C 17,0 C 14,5 km/h (3 Bft) 94,87 %
04.04.2018 18:46 18,9 C 7,2 C 57 % 1001,7 hPa 0,0 l/m 9,5 km/h (2 Bft) O 96 2 min 0,000 mm 0,0 UV-I 90 W/m 10,2 C 17,6 C 14,5 km/h (3 Bft) 95,74 %
04.04.2018 18:48 18,9 C 7,2 C 58 % 1001,7 hPa 0,0 l/m 10,2 km/h (2 Bft) O-NO 67 2 min 0,000 mm 0,0 UV-I 74 W/m 10,5 C 17,4 C 14,5 km/h (3 Bft) 94,00 %
04.04.2018 18:50 18,8 C 7,2 C 59 % 1001,7 hPa 0,0 l/m 9,2 km/h (2 Bft) O 80 2 min 0,000 mm 0,0 UV-I 76 W/m 10,6 C 17,6 C 12,9 km/h (3 Bft) 95,12 %
04.04.2018 18:52 18,7 C 7,2 C 59 % 1001,7 hPa 0,0 l/m 8,0 km/h (2 Bft) O-NO 75 2 min 0,000 mm 0,0 UV-I 66 W/m 10,5 C 18,0 C 12,9 km/h (3 Bft) 94,64 %
04.04.2018 18:54 18,7 C 7,2 C 60 % 1001,8 hPa 0,0 l/m 7,5 km/h (2 Bft) O 83 0 min 0,000 mm 0,0 UV-I 49 W/m 10,8 C 18,2 C 12,9 km/h (3 Bft) 92,11 %
04.04.2018 18:56 18,5 C 7,2 C 60 % 1001,8 hPa 0,0 l/m 9,6 km/h (2 Bft) O 96 0 min 0,000 mm 0,0 UV-I 46 W/m 10,6 C 17,1 C 12,9 km/h (3 Bft) 96,43 %
04.04.2018 18:58 18,3 C 7,2 C 60 % 1001,8 hPa 0,0 l/m 9,8 km/h (2 Bft) O 89 0 min 0,000 mm 0,0 UV-I 42 W/m 10,4 C 16,8 C 12,9 km/h (3 Bft) 96,00 %
04.04.2018 19:00 18,2 C 7,2 C 60 % 1001,8 hPa 0,0 l/m 9,3 km/h (2 Bft) O 101 0 min 0,153 mm 0,0 UV-I 32 W/m 10,3 C 16,9 C 12,9 km/h (3 Bft) 94,29 %
04.04.2018 19:02 18,2 C 7,2 C 60 % 1001,8 hPa 0,0 l/m 10,1 km/h (2 Bft) O-SO 107 0 min 0,000 mm 0,0 UV-I 27 W/m 10,3 C 16,6 C 14,5 km/h (3 Bft) 94,64 %
04.04.2018 19:04 18,2 C 7,2 C 60 % 1001,9 hPa 0,0 l/m 8,0 km/h (2 Bft) SO 124 0 min 0,000 mm 0,0 UV-I 26 W/m 10,3 C 17,5 C 12,9 km/h (3 Bft) 97,56 %
04.04.2018 19:06 18,1 C 7,2 C 60 % 1001,9 hPa 0,0 l/m 10,2 km/h (2 Bft) O 88 0 min 0,000 mm 0,0 UV-I 25 W/m 10,2 C 16,5 C 12,9 km/h (3 Bft) 94,34 %
04.04.2018 19:08 18,1 C 7,2 C 60 % 1001,9 hPa 0,0 l/m 6,8 km/h (2 Bft) O-SO 107 0 min 0,000 mm 0,0 UV-I 25 W/m 10,2 C 17,9 C 11,3 km/h (2 Bft) 92,11 %
04.04.2018 19:10 18,0 C 7,2 C 60 % 1001,9 hPa 0,0 l/m 6,8 km/h (2 Bft) O-SO 108 0 min 0,000 mm 0,0 UV-I 23 W/m 10,1 C 17,8 C 9,7 km/h (2 Bft) 94,64 %
04.04.2018 19:12 17,9 C 7,2 C 60 % 1001,9 hPa 0,0 l/m 8,8 km/h (2 Bft) O 99 0 min 0,000 mm 0,0 UV-I 24 W/m 10,0 C 16,8 C 11,3 km/h (2 Bft) 95,74 %
04.04.2018 19:15 17,9 C 7,2 C 60 % 1001,9 hPa 0,0 l/m 5,3 km/h (1 Bft) O-SO 104 0 min 0,000 mm 0,0 UV-I 28 W/m 10,0 C 17,9 C 9,7 km/h (2 Bft) 96,77 %
04.04.2018 19:16 17,9 C 7,2 C 60 % 1001,9 hPa 0,0 l/m 6,8 km/h (2 Bft) O-SO 109 0 min 0,000 mm 0,0 UV-I 25 W/m 10,0 C 17,7 C 9,7 km/h (2 Bft) 95,83 %
04.04.2018 19:18 17,7 C 7,2 C 61 % 1002,0 hPa 0,0 l/m 6,3 km/h (2 Bft) O-SO 107 2 min 0,000 mm 0,0 UV-I 30 W/m 10,1 C 17,7 C 9,7 km/h (2 Bft) 97,87 %
04.04.2018 19:20 17,4 C 7,2 C 61 % 1002,0 hPa 0,0 l/m 6,2 km/h (2 Bft) O-SO 113 2 min 0,000 mm 0,0 UV-I 30 W/m 9,8 C 17,4 C 9,7 km/h (2 Bft) 96,23 %
04.04.2018 19:22 17,3 C 7,2 C 62 % 1002,0 hPa 0,0 l/m 6,8 km/h (2 Bft) O-SO 115 2 min 0,000 mm 0,0 UV-I 27 W/m 9,9 C 17,1 C 11,3 km/h (2 Bft) 97,56 %
04.04.2018 19:24 17,4 C 7,2 C 61 % 1002,0 hPa 0,0 l/m 7,9 km/h (2 Bft) O-SO 112 2 min 0,000 mm 0,0 UV-I 25 W/m 9,8 C 16,7 C 11,3 km/h (2 Bft) 94,34 %
04.04.2018 19:26 17,4 C 7,2 C 61 % 1002,1 hPa 0,0 l/m 8,3 km/h (2 Bft) O-SO 109 2 min 0,000 mm 0,0 UV-I 23 W/m 9,8 C 16,5 C 12,9 km/h (3 Bft) 97,14 %
04.04.2018 19:28 17,5 C 7,2 C 61 % 1002,1 hPa 0,0 l/m 9,5 km/h (2 Bft) O-SO 103 0 min 0,000 mm 0,0 UV-I 18 W/m 9,9 C 16,1 C 12,9 km/h (3 Bft) 97,56 %
04.04.2018 19:30 17,5 C 7,2 C 61 % 1002,1 hPa 0,0 l/m 10,3 km/h (2 Bft) O 100 0 min 0,000 mm 0,0 UV-I 14 W/m 9,9 C 15,8 C 14,5 km/h (3 Bft) 100,00 %
04.04.2018 19:32 17,3 C 7,2 C 61 % 1002,1 hPa 0,0 l/m 9,5 km/h (2 Bft) O-SO 106 0 min 0,000 mm 0,0 UV-I 12 W/m 9,7 C 15,9 C 12,9 km/h (3 Bft) 100,00 %
04.04.2018 19:34 17,3 C 7,2 C 61 % 1002,2 hPa 0,0 l/m 9,8 km/h (2 Bft) O 96 0 min 0,000 mm 0,0 UV-I 11 W/m 9,7 C 15,7 C 12,9 km/h (3 Bft) 100,00 %
04.04.2018 19:36 17,3 C 7,2 C 61 % 1002,1 hPa 0,0 l/m 8,6 km/h (2 Bft) O-SO 106 0 min 0,000 mm 0,0 UV-I 11 W/m 9,7 C 16,2 C 12,9 km/h (3 Bft) 98,00 %
04.04.2018 19:38 17,3 C 7,2 C 61 % 1002,1 hPa 0,0 l/m 8,7 km/h (2 Bft) O 98 0 min 0,000 mm 0,0 UV-I 9 W/m 9,7 C 16,2 C 11,3 km/h (2 Bft) 97,56 %
04.04.2018 19:40 17,1 C 7,2 C 63 % 1002,1 hPa 0,0 l/m 8,4 km/h (2 Bft) O 96 0 min 0,000 mm 0,0 UV-I 9 W/m 10,0 C 16,1 C 12,9 km/h (3 Bft) 100,00 %
04.04.2018 19:42 17,0 C 7,2 C 63 % 1002,1 hPa 0,0 l/m 8,1 km/h (2 Bft) O-NO 68 0 min 0,000 mm 0,0 UV-I 9 W/m 9,9 C 16,2 C 11,3 km/h (2 Bft) 100,00 %
04.04.2018 19:44 16,9 C 7,2 C 63 % 1002,1 hPa 0,0 l/m 6,6 km/h (2 Bft) O-NO 69 0 min 0,000 mm 0,0 UV-I 7 W/m 9,8 C 16,8 C 9,7 km/h (2 Bft) 100,00 %
04.04.2018 19:46 16,8 C 7,2 C 64 % 1002,1 hPa 0,0 l/m 7,4 km/h (2 Bft) O 93 0 min 0,000 mm 0,0 UV-I 5 W/m 10,0 C 16,3 C 9,7 km/h (2 Bft) 100,00 %
04.04.2018 19:48 16,8 C 7,2 C 64 % 1002,1 hPa 0,0 l/m 8,9 km/h (2 Bft) O 82 0 min 0,000 mm 0,0 UV-I 5 W/m 10,0 C 15,6 C 12,9 km/h (3 Bft) 100,00 %
04.04.2018 19:50 16,7 C 7,2 C 64 % 1002,2 hPa 0,0 l/m 8,4 km/h (2 Bft) O 83 0 min 0,000 mm 0,0 UV-I 5 W/m 9,9 C 15,7 C 11,3 km/h (2 Bft) 100,00 %
04.04.2018 19:52 16,6 C 7,2 C 65 % 1002,2 hPa 0,0 l/m 7,8 km/h (2 Bft) O 80 0 min 0,000 mm 0,0 UV-I 1 W/m 10,0 C 15,9 C 11,3 km/h (2 Bft) 96,00 %
04.04.2018 19:54 16,4 C 7,2 C 65 % 1002,3 hPa 0,0 l/m 9,9 km/h (2 Bft) O 85 0 min 0,000 mm 0,0 UV-I 0 W/m 9,8 C 14,7 C 14,5 km/h (3 Bft) 100,00 %
04.04.2018 19:56 16,3 C 7,2 C 66 % 1002,3 hPa 0,0 l/m 8,6 km/h (2 Bft) O-SO 103 0 min 0,000 mm 0,0 UV-I 0 W/m 9,9 C 15,2 C 12,9 km/h (3 Bft) 97,37 %
04.04.2018 19:59 16,2 C 7,2 C 66 % 1002,3 hPa 0,0 l/m 9,8 km/h (2 Bft) O 98 0 min 0,000 mm 0,0 UV-I 0 W/m 9,8 C 14,5 C 12,9 km/h (3 Bft) 100,00 %
04.04.2018 20:00 16,2 C 7,2 C 65 % 1002,3 hPa 0,0 l/m 13,0 km/h (3 Bft) O 92 0 min 0,000 mm 0,0 UV-I 0 W/m 9,6 C 13,3 C 17,7 km/h (3 Bft) 100,00 %
04.04.2018 20:02 16,3 C 7,2 C 65 % 1002,3 hPa 0,0 l/m 9,4 km/h (2 Bft) SO 142 0 min 0,051 mm 0,0 UV-I 0 W/m 9,7 C 14,8 C 14,5 km/h (3 Bft) 100,00 %
04.04.2018 20:04 16,2 C 7,2 C 65 % 1002,3 hPa 0,0 l/m 7,6 km/h (2 Bft) O-SO 114 0 min 0,000 mm 0,0 UV-I 0 W/m 9,6 C 15,6 C 14,5 km/h (3 Bft) 97,87 %
04.04.2018 20:06 16,1 C 7,2 C 65 % 1002,4 hPa 0,0 l/m 5,4 km/h (1 Bft) SO 135 0 min 0,000 mm 0,0 UV-I 0 W/m 9,5 C 16,1 C 8,0 km/h (2 Bft) 100,00 %
04.04.2018 20:08 16,1 C 7,2 C 66 % 1002,5 hPa 0,0 l/m 3,6 km/h (1 Bft) SO 130 0 min 0,000 mm 0,0 UV-I 0 W/m 9,7 C 16,1 C 8,0 km/h (2 Bft) 100,00 %
04.04.2018 20:10 15,9 C 7,2 C 67 % 1002,5 hPa 0,0 l/m 1,8 km/h (1 Bft) SO 130 0 min 0,000 mm 0,0 UV-I 0 W/m 9,8 C 15,9 C 4,8 km/h (1 Bft) 98,00 %
04.04.2018 20:12 15,8 C 7,2 C 67 % 1002,5 hPa 0,0 l/m 1,5 km/h (1 Bft) SO 130 0 min 0,000 mm 0,0 UV-I 0 W/m 9,7 C 15,8 C 3,2 km/h (1 Bft) 98,00 %
04.04.2018 20:15 15,7 C 7,2 C 68 % 1002,5 hPa 0,0 l/m 0,3 km/h (0 Bft) SO 130 0 min 0,000 mm 0,0 UV-I 0 W/m 9,8 C 15,7 C 1,6 km/h (1 Bft) 98,65 %
04.04.2018 20:16 15,6 C 7,2 C 68 % 1002,5 hPa 0,0 l/m 0,0 km/h (0 Bft) SO 130 0 min 0,000 mm 0,0 UV-I 0 W/m 9,7 C 15,6 C 0,0 km/h (0 Bft) 100,00 %
04.04.2018 20:18 15,5 C 7,2 C 69 % 1002,6 hPa 0,0 l/m 0,0 km/h (0 Bft) SO 130 0 min 0,000 mm 0,0 UV-I 0 W/m 9,8 C 15,5 C 0,0 km/h (0 Bft) 100,00 %
04.04.2018 20:20 15,3 C 7,2 C 70 % 1002,6 hPa 0,0 l/m 0,0 km/h (0 Bft) SO 130 0 min 0,000 mm 0,0 UV-I 0 W/m 9,9 C 15,3 C 0,0 km/h (0 Bft) 100,00 %
04.04.2018 20:22 15,1 C 7,2 C 71 % 1002,7 hPa 0,0 l/m 0,0 km/h (0 Bft) SO 130 0 min 0,000 mm 0,0 UV-I 0 W/m 9,9 C 15,1 C 0,0 km/h (0 Bft) 100,00 %
04.04.2018 20:24 15,0 C 7,2 C 71 % 1002,7 hPa 0,0 l/m 0,0 km/h (0 Bft) SO 130 0 min 0,000 mm 0,0 UV-I 0 W/m 9,8 C 15,0 C 0,0 km/h (0 Bft) 100,00 %
04.04.2018 20:26 15,1 C 7,2 C 71 % 1002,8 hPa 0,0 l/m 0,0 km/h (0 Bft) SO 130 0 min 0,000 mm 0,0 UV-I 0 W/m 9,9 C 15,1 C 0,0 km/h (0 Bft) 100,00 %
04.04.2018 20:28 14,9 C 7,2 C 71 % 1002,8 hPa 0,0 l/m 0,0 km/h (0 Bft) SO 130 0 min 0,000 mm 0,0 UV-I 0 W/m 9,7 C 14,9 C 0,0 km/h (0 Bft) 100,00 %
04.04.2018 20:30 14,5 C 7,2 C 73 % 1002,8 hPa 0,0 l/m 1,4 km/h (1 Bft) SO 130 0 min 0,000 mm 0,0 UV-I 0 W/m 9,7 C 14,5 C 3,2 km/h (1 Bft) 100,00 %
04.04.2018 20:32 13,9 C 7,2 C 75 % 1002,8 hPa 0,0 l/m 2,3 km/h (1 Bft) SO 130 0 min 0,000 mm 0,0 UV-I 0 W/m 9,5 C 13,9 C 4,8 km/h (1 Bft) 97,44 %
04.04.2018 20:34 13,8 C 7,2 C 76 % 1002,9 hPa 0,0 l/m 4,1 km/h (1 Bft) S-SW 210 0 min 0,000 mm 0,0 UV-I 0 W/m 9,6 C 13,8 C 6,4 km/h (2 Bft) 98,21 %
04.04.2018 20:36 13,8 C 7,2 C 77 % 1002,9 hPa 0,0 l/m 3,4 km/h (1 Bft) S-SW 209 0 min 0,000 mm 0,0 UV-I 0 W/m 9,8 C 13,8 C 4,8 km/h (1 Bft) 95,65 %
04.04.2018 20:38 13,6 C 7,2 C 77 % 1002,8 hPa 0,0 l/m 4,8 km/h (1 Bft) SO 131 0 min 0,000 mm 0,0 UV-I 0 W/m 9,6 C 13,6 C 6,4 km/h (2 Bft) 100,00 %
04.04.2018 20:40 13,3 C 7,2 C 78 % 1002,9 hPa 0,0 l/m 3,3 km/h (1 Bft) SO 132 0 min 0,000 mm 0,0 UV-I 0 W/m 9,5 C 13,3 C 4,8 km/h (1 Bft) 100,00 %
04.04.2018 20:42 13,3 C 7,2 C 78 % 1002,9 hPa 0,0 l/m 2,6 km/h (1 Bft) SO 132 0 min 0,000 mm 0,0 UV-I 0 W/m 9,5 C 13,3 C 3,2 km/h (1 Bft) 97,14 %
04.04.2018 20:44 13,4 C 7,2 C 78 % 1002,9 hPa 0,0 l/m 1,2 km/h (1 Bft) SO 132 0 min 0,000 mm 0,0 UV-I 0 W/m 9,6 C 13,4 C 1,6 km/h (1 Bft) 98,00 %
04.04.2018 20:46 13,4 C 7,2 C 78 % 1002,9 hPa 0,0 l/m 1,5 km/h (1 Bft) SO 132 0 min 0,000 mm 0,0 UV-I 0 W/m 9,6 C 13,4 C 3,2 km/h (1 Bft) 97,87 %
04.04.2018 20:48 13,6 C 7,2 C 78 % 1003,0 hPa 0,0 l/m 0,8 km/h (0 Bft) SO 132 0 min 0,000 mm 0,0 UV-I 0 W/m 9,8 C 13,6 C 1,6 km/h (1 Bft) 97,73 %
04.04.2018 20:50 13,8 C 7,2 C 76 % 1003,0 hPa 0,0 l/m 0,2 km/h (0 Bft) SO 131 0 min 0,000 mm 0,0 UV-I 0 W/m 9,6 C 13,8 C 3,2 km/h (1 Bft) 96,00 %
04.04.2018 20:52 13,9 C 7,2 C 75 % 1003,1 hPa 0,0 l/m 3,6 km/h (1 Bft) SO 131 0 min 0,000 mm 0,0 UV-I 0 W/m 9,5 C 13,9 C 4,8 km/h (1 Bft) 96,00 %
04.04.2018 20:54 13,7 C 7,2 C 76 % 1003,2 hPa 0,0 l/m 2,9 km/h (1 Bft) SO 131 0 min 0,000 mm 0,0 UV-I 0 W/m 9,5 C 13,7 C 4,8 km/h (1 Bft) 98,00 %
04.04.2018 20:56 13,3 C 7,2 C 79 % 1003,3 hPa 0,0 l/m 2,4 km/h (1 Bft) SO 131 0 min 0,000 mm 0,0 UV-I 0 W/m 9,7 C 13,3 C 3,2 km/h (1 Bft) 97,44 %
04.04.2018 20:58 13,0 C 7,2 C 80 % 1003,4 hPa 0,0 l/m 2,2 km/h (1 Bft) SO 131 0 min 0,000 mm 0,0 UV-I 0 W/m 9,6 C 13,0 C 3,2 km/h (1 Bft) 97,37 %
04.04.2018 21:00 13,0 C 7,2 C 80 % 1003,4 hPa 0,0 l/m 1,3 km/h (1 Bft) SO 131 0 min 0,000 mm 0,0 UV-I 0 W/m 9,6 C 13,0 C 3,2 km/h (1 Bft) 98,39 %
04.04.2018 21:02 12,9 C 7,2 C 79 % 1003,4 hPa 0,0 l/m 0,1 km/h (0 Bft) SO 131 0 min 0,025 mm 0,0 UV-I 0 W/m 9,3 C 12,9 C 1,6 km/h (1 Bft) 95,74 %
04.04.2018 21:04 12,8 C 7,2 C 80 % 1003,5 hPa 0,0 l/m 1,3 km/h (1 Bft) SO 131 0 min 0,000 mm 0,0 UV-I 0 W/m 9,4 C 12,8 C 3,2 km/h (1 Bft) 95,74 %
04.04.2018 21:06 12,8 C 7,2 C 80 % 1003,5 hPa 0,0 l/m 2,1 km/h (1 Bft) SO 131 0 min 0,000 mm 0,0 UV-I 0 W/m 9,4 C 12,8 C 4,8 km/h (1 Bft) 97,87 %
04.04.2018 21:08 12,5 C 7,2 C 82 % 1003,5 hPa 0,0 l/m 2,4 km/h (1 Bft) SO 131 0 min 0,000 mm 0,0 UV-I 0 W/m 9,5 C 12,5 C 4,8 km/h (1 Bft) 97,37 %
04.04.2018 21:10 12,4 C 7,2 C 82 % 1003,6 hPa 0,0 l/m 1,8 km/h (1 Bft) S 185 0 min 0,000 mm 0,0 UV-I 0 W/m 9,4 C 12,4 C 4,8 km/h (1 Bft) 98,00 %
04.04.2018 21:12 12,5 C 7,2 C 82 % 1003,6 hPa 0,0 l/m 0,0 km/h (0 Bft) S 185 0 min 0,000 mm 0,0 UV-I 0 W/m 9,5 C 12,5 C 0,0 km/h (0 Bft) 97,87 %
04.04.2018 21:14 12,6 C 7,2 C 82 % 1003,6 hPa 0,0 l/m 0,9 km/h (0 Bft) S 185 0 min 0,000 mm 0,0 UV-I 0 W/m 9,6 C 12,6 C 3,2 km/h (1 Bft) 97,14 %
04.04.2018 21:16 12,6 C 7,2 C 81 % 1003,6 hPa 0,0 l/m 2,1 km/h (1 Bft) S 185 0 min 0,000 mm 0,0 UV-I 0 W/m 9,4 C 12,6 C 4,8 km/h (1 Bft) 98,46 %
04.04.2018 21:18 12,4 C 7,2 C 82 % 1003,7 hPa 0,0 l/m 2,1 km/h (1 Bft) S 185 0 min 0,000 mm 0,0 UV-I 0 W/m 9,4 C 12,4 C 3,2 km/h (1 Bft) 97,14 %
04.04.2018 21:20 12,2 C 7,2 C 83 % 1003,6 hPa 0,0 l/m 3,5 km/h (1 Bft) S 185 0 min 0,000 mm 0,0 UV-I 0 W/m 9,4 C 12,2 C 4,8 km/h (1 Bft) 100,00 %
04.04.2018 21:22 11,9 C 7,2 C 83 % 1003,6 hPa 0,0 l/m 2,4 km/h (1 Bft) S 185 0 min 0,000 mm 0,0 UV-I 0 W/m 9,1 C 11,9 C 3,2 km/h (1 Bft) 100,00 %
04.04.2018 21:24 11,7 C 7,2 C 85 % 1003,6 hPa 0,0 l/m 1,8 km/h (1 Bft) S 185 0 min 0,000 mm 0,0 UV-I 0 W/m 9,3 C 11,7 C 3,2 km/h (1 Bft) 97,87 %
04.04.2018 21:26 11,5 C 7,2 C 86 % 1003,7 hPa 0,0 l/m 3,7 km/h (1 Bft) S 185 0 min 0,000 mm 0,0 UV-I 0 W/m 9,2 C 11,5 C 4,8 km/h (1 Bft) 97,87 %
04.04.2018 21:28 11,9 C 7,2 C 85 % 1003,8 hPa 0,0 l/m 3,8 km/h (1 Bft) S 185 0 min 0,000 mm 0,0 UV-I 0 W/m 9,5 C 11,9 C 4,8 km/h (1 Bft) 100,00 %
04.04.2018 21:30 12,1 C 7,2 C 84 % 1003,8 hPa 0,0 l/m 2,7 km/h (1 Bft) S 185 0 min 0,000 mm 0,0 UV-I 0 W/m 9,5 C 12,1 C 4,8 km/h (1 Bft) 100,00 %
04.04.2018 21:32 11,8 C 7,2 C 84 % 1003,8 hPa 0,0 l/m 2,5 km/h (1 Bft) S 185 0 min 0,000 mm 0,0 UV-I 0 W/m 9,2 C 11,8 C 3,2 km/h (1 Bft) 97,44 %
04.04.2018 21:34 11,9 C 7,2 C 85 % 1003,9 hPa 0,0 l/m 2,0 km/h (1 Bft) S 185 0 min 0,000 mm 0,0 UV-I 0 W/m 9,5 C 11,9 C 3,2 km/h (1 Bft) 100,00 %
04.04.2018 21:36 12,2 C 7,2 C 83 % 1004,1 hPa 0,0 l/m 4,3 km/h (1 Bft) W 272 0 min 0,000 mm 0,0 UV-I 0 W/m 9,4 C 12,2 C 6,4 km/h (2 Bft) 100,00 %
04.04.2018 21:38 11,9 C 7,2 C 83 % 1004,3 hPa 0,0 l/m 4,9 km/h (1 Bft) W 281 0 min 0,000 mm 0,0 UV-I 0 W/m 9,1 C 11,9 C 9,7 km/h (2 Bft) 100,00 %
04.04.2018 21:40 11,8 C 7,2 C 84 % 1004,5 hPa 0,0 l/m 7,4 km/h (2 Bft) W 273 0 min 0,000 mm 0,0 UV-I 0 W/m 9,2 C 11,1 C 11,3 km/h (2 Bft) 100,00 %
04.04.2018 21:42 11,7 C 7,2 C 84 % 1005,0 hPa 0,0 l/m 12,6 km/h (3 Bft) W 267 0 min 0,000 mm 0,0 UV-I 0 W/m 9,1 C 8,2 C 24,1 km/h (4 Bft) 100,00 %
04.04.2018 21:44 12,1 C 7,2 C 84 % 1004,9 hPa 0,0 l/m 23,4 km/h (4 Bft) W 277 0 min 0,000 mm 0,0 UV-I 0 W/m 9,5 C 5,1 C 41,8 km/h (6 Bft) 100,00 %
04.04.2018 21:46 13,1 C 7,2 C 80 % 1005,1 hPa 0,0 l/m 15,8 km/h (3 Bft) NW 322 0 min 0,000 mm 0,0 UV-I 0 W/m 9,7 C 8,6 C 27,4 km/h (4 Bft) 100,00 %
04.04.2018 21:48 13,8 C 7,2 C 73 % 1005,2 hPa 0,0 l/m 18,7 km/h (3 Bft) NW 316 0 min 0,000 mm 0,0 UV-I 0 W/m 9,0 C 8,6 C 32,2 km/h (5 Bft) 100,00 %
04.04.2018 21:50 14,3 C 7,2 C 70 % 1005,2 hPa 0,0 l/m 18,9 km/h (3 Bft) W-SW 252 0 min 0,000 mm 0,0 UV-I 0 W/m 8,9 C 9,1 C 33,8 km/h (5 Bft) 100,00 %
04.04.2018 21:52 14,7 C 7,2 C 68 % 1005,4 hPa 0,0 l/m 20,0 km/h (4 Bft) W-SW 252 0 min 0,000 mm 0,0 UV-I 0 W/m 8,9 C 9,4 C 32,2 km/h (5 Bft) 98,46 %
04.04.2018 21:54 14,8 C 7,2 C 66 % 1005,4 hPa 0,0 l/m 22,6 km/h (4 Bft) W 273 0 min 0,000 mm 0,0 UV-I 0 W/m 8,5 C 8,9 C 38,6 km/h (5 Bft) 100,00 %
04.04.2018 21:56 14,8 C 7,2 C 65 % 1005,6 hPa 0,0 l/m 18,8 km/h (3 Bft) W 274 0 min 0,000 mm 0,0 UV-I 0 W/m 8,3 C 9,8 C 32,2 km/h (5 Bft) 100,00 %
04.04.2018 21:58 14,8 C 7,2 C 65 % 1005,7 hPa 0,0 l/m 17,8 km/h (3 Bft) W 279 0 min 0,000 mm 0,0 UV-I 0 W/m 8,3 C 10,1 C 30,6 km/h (5 Bft) 97,56 %
04.04.2018 22:00 14,8 C 7,2 C 65 % 1005,8 hPa 0,0 l/m 21,6 km/h (4 Bft) W 279 0 min 0,000 mm 0,0 UV-I 0 W/m 8,3 C 9,1 C 33,8 km/h (5 Bft) 100,00 %
04.04.2018 22:02 14,8 C 7,2 C 65 % 1005,7 hPa 0,0 l/m 22,7 km/h (4 Bft) W-SW 257 0 min 0,025 mm 0,0 UV-I 0 W/m 8,3 C 8,8 C 46,7 km/h (6 Bft) 97,62 %
04.04.2018 22:04 14,8 C 7,2 C 65 % 1005,8 hPa 0,0 l/m 19,9 km/h (4 Bft) W 259 0 min 0,000 mm 0,0 UV-I 0 W/m 8,3 C 9,5 C 27,4 km/h (4 Bft) 98,18 %
04.04.2018 22:05 14,7 C 7,2 C 65 % 1005,8 hPa 0,0 l/m 22,5 km/h (4 Bft) W 270 0 min 0,000 mm 0,0 UV-I 0 W/m 8,2 C 8,7 C 46,7 km/h (6 Bft) 96,49 %
04.04.2018 22:08 14,7 C 7,2 C 65 % 1006,0 hPa 0,0 l/m 14,8 km/h (3 Bft) W 269 0 min 0,000 mm 0,0 UV-I 0 W/m 8,2 C 10,9 C 20,9 km/h (4 Bft) 100,00 %
04.04.2018 22:10 14,6 C 7,2 C 65 % 1006,0 hPa 0,0 l/m 20,8 km/h (4 Bft) W 276 0 min 0,000 mm 0,0 UV-I 0 W/m 8,1 C 9,0 C 30,6 km/h (5 Bft) 100,00 %
04.04.2018 22:12 14,4 C 7,2 C 65 % 1006,1 hPa 0,0 l/m 13,8 km/h (3 Bft) SW 231 0 min 0,000 mm 0,0 UV-I 0 W/m 7,9 C 10,9 C 29,0 km/h (5 Bft) 100,00 %
04.04.2018 22:14 14,3 C 7,2 C 63 % 1006,3 hPa 0,0 l/m 15,1 km/h (3 Bft) W 269 0 min 0,000 mm 0,0 UV-I 0 W/m 7,4 C 10,3 C 16,1 km/h (3 Bft) 100,00 %
04.04.2018 22:16 14,3 C 7,2 C 63 % 1006,2 hPa 0,0 l/m 20,1 km/h (4 Bft) W-NW 295 0 min 0,000 mm 0,0 UV-I 0 W/m 7,4 C 8,8 C 30,6 km/h (5 Bft) 97,56 %
04.04.2018 22:20 14,2 C 7,2 C 61 % 1006,3 hPa 0,0 l/m 19,3 km/h (3 Bft) W 270 0 min 0,000 mm 0,0 UV-I 0 W/m 6,8 C 8,9 C 57,9 km/h (7 Bft) 100,00 %
04.04.2018 22:26 14,1 C 7,2 C 59 % 1006,5 hPa 0,0 l/m 30,7 km/h (5 Bft) W 281 0 min 0,000 mm 0,0 UV-I 0 W/m 6,2 C 6,3 C 48,3 km/h (6 Bft) 97,92 %
04.04.2018 22:28 14,1 C 7,2 C 59 % 1006,5 hPa 0,0 l/m 20,4 km/h (4 Bft) W-NW 286 0 min 0,000 mm 0,0 UV-I 0 W/m 6,2 C 8,5 C 43,5 km/h (6 Bft) 96,00 %
04.04.2018 22:30 14,0 C 7,2 C 59 % 1006,5 hPa 0,0 l/m 20,9 km/h (4 Bft) W 270 0 min 0,000 mm 0,0 UV-I 0 W/m 6,1 C 8,2 C 48,3 km/h (6 Bft) 98,25 %
04.04.2018 22:35 13,8 C 7,2 C 59 % 1006,7 hPa 0,0 l/m 20,9 km/h (4 Bft) W 270 0 min 0,000 mm 0,0 UV-I 0 W/m 5,9 C 8,0 C 38,6 km/h (5 Bft) 100,00 %
04.04.2018 22:38 13,8 C 7,2 C 59 % 1006,8 hPa 0,0 l/m 15,6 km/h (3 Bft) W-SW 250 0 min 0,000 mm 0,0 UV-I 0 W/m 5,9 C 9,5 C 22,5 km/h (4 Bft) 97,39 %
04.04.2018 22:40 13,7 C 7,2 C 60 % 1006,9 hPa 0,0 l/m 15,5 km/h (3 Bft) W 263 0 min 0,000 mm 0,0 UV-I 0 W/m 6,1 C 9,4 C 29,0 km/h (5 Bft) 93,18 %
04.04.2018 22:42 13,7 C 7,2 C 60 % 1006,9 hPa 0,0 l/m 15,9 km/h (3 Bft) W 260 0 min 0,000 mm 0,0 UV-I 0 W/m 6,1 C 9,3 C 27,4 km/h (4 Bft) 97,87 %
04.04.2018 22:44 13,6 C 7,2 C 61 % 1007,0 hPa 0,0 l/m 15,2 km/h (3 Bft) W-NW 294 0 min 0,000 mm 0,0 UV-I 0 W/m 6,2 C 9,4 C 20,9 km/h (4 Bft) 96,23 %
04.04.2018 22:45 13,5 C 7,2 C 62 % 1007,1 hPa 0,0 l/m 16,1 km/h (3 Bft) W 270 0 min 0,000 mm 0,0 UV-I 0 W/m 6,4 C 9,0 C 27,4 km/h (4 Bft) 99,12 %
04.04.2018 22:48 13,6 C 7,2 C 62 % 1007,1 hPa 0,0 l/m 23,9 km/h (4 Bft) W 281 0 min 0,000 mm 0,0 UV-I 0 W/m 6,5 C 7,0 C 33,8 km/h (5 Bft) 97,87 %
04.04.2018 22:50 13,6 C 7,2 C 62 % 1007,2 hPa 0,0 l/m 19,3 km/h (3 Bft) W 270 0 min 0,000 mm 0,0 UV-I 0 W/m 6,5 C 8,1 C 33,8 km/h (5 Bft) 97,37 %
04.04.2018 22:55 13,4 C 7,2 C 63 % 1007,4 hPa 0,0 l/m 20,9 km/h (4 Bft) W 270 0 min 0,000 mm 0,0 UV-I 0 W/m 6,5 C 7,4 C 40,2 km/h (6 Bft) 100,00 %
04.04.2018 23:00 13,3 C 7,2 C 64 % 1007,4 hPa 0,0 l/m 17,7 km/h (3 Bft) W 270 0 min 0,102 mm 0,0 UV-I 0 W/m 6,6 C 8,2 C 30,6 km/h (5 Bft) 100,00 %
04.04.2018 23:02 13,2 C 7,2 C 65 % 1007,5 hPa 0,0 l/m 11,9 km/h (2 Bft) W-SW 257 0 min 0,000 mm 0,0 UV-I 0 W/m 6,8 C 10,2 C 17,7 km/h (3 Bft) 95,08 %
04.04.2018 23:04 13,1 C 7,2 C 66 % 1007,4 hPa 0,0 l/m 16,5 km/h (3 Bft) W 277 0 min 0,000 mm 0,0 UV-I 0 W/m 6,9 C 8,4 C 22,5 km/h (4 Bft) 96,00 %
04.04.2018 23:05 13,1 C 7,2 C 66 % 1007,4 hPa 0,0 l/m 16,1 km/h (3 Bft) W 270 0 min 0,000 mm 0,0 UV-I 0 W/m 6,9 C 8,5 C 22,5 km/h (4 Bft) 98,25 %
04.04.2018 23:08 12,9 C 7,2 C 66 % 1007,3 hPa 0,0 l/m 13,9 km/h (3 Bft) W 278 0 min 0,000 mm 0,0 UV-I 0 W/m 6,7 C 9,1 C 16,1 km/h (3 Bft) 95,18 %
04.04.2018 23:10 12,9 C 7,2 C 65 % 1007,2 hPa 0,0 l/m 15,6 km/h (3 Bft) W 264 0 min 0,000 mm 0,0 UV-I 0 W/m 6,5 C 8,4 C 20,9 km/h (4 Bft) 92,98 %
04.04.2018 23:12 12,8 C 7,2 C 65 % 1007,2 hPa 0,0 l/m 14,5 km/h (3 Bft) W-SW 249 0 min 0,000 mm 0,0 UV-I 0 W/m 6,4 C 8,7 C 19,3 km/h (3 Bft) 92,68 %
04.04.2018 23:14 12,8 C 7,2 C 65 % 1007,2 hPa 0,0 l/m 16,6 km/h (3 Bft) W 269 0 min 0,000 mm 0,0 UV-I 0 W/m 6,4 C 8,0 C 24,1 km/h (4 Bft) 96,00 %
04.04.2018 23:16 12,7 C 7,2 C 65 % 1007,1 hPa 0,0 l/m 12,8 km/h (3 Bft) W-SW 257 0 min 0,000 mm 0,0 UV-I 0 W/m 6,3 C 9,3 C 19,3 km/h (3 Bft) 95,12 %
04.04.2018 23:18 12,7 C 7,2 C 65 % 1007,1 hPa 0,0 l/m 14,0 km/h (3 Bft) W 265 0 min 0,000 mm 0,0 UV-I 0 W/m 6,3 C 8,8 C 20,9 km/h (4 Bft) 96,43 %
04.04.2018 23:20 12,7 C 7,2 C 65 % 1007,2 hPa 0,0 l/m 16,6 km/h (3 Bft) W 273 0 min 0,000 mm 0,0 UV-I 0 W/m 6,3 C 7,8 C 22,5 km/h (4 Bft) 95,12 %
04.04.2018 23:22 12,7 C 7,2 C 65 % 1007,3 hPa 0,0 l/m 14,4 km/h (3 Bft) W 271 0 min 0,000 mm 0,0 UV-I 0 W/m 6,3 C 8,6 C 20,9 km/h (4 Bft) 93,18 %
04.04.2018 23:24 12,7 C 7,2 C 65 % 1007,3 hPa 0,0 l/m 14,0 km/h (3 Bft) W 266 0 min 0,000 mm 0,0 UV-I 0 W/m 6,3 C 8,8 C 20,9 km/h (4 Bft) 96,23 %
04.04.2018 23:26 12,7 C 7,2 C 65 % 1007,3 hPa 0,0 l/m 11,4 km/h (2 Bft) W-SW 254 0 min 0,000 mm 0,0 UV-I 0 W/m 6,3 C 9,9 C 20,9 km/h (4 Bft) 97,44 %
04.04.2018 23:28 12,7 C 7,2 C 65 % 1007,3 hPa 0,0 l/m 13,3 km/h (3 Bft) W 262 0 min 0,000 mm 0,0 UV-I 0 W/m 6,3 C 9,1 C 19,3 km/h (3 Bft) 100,00 %
04.04.2018 23:30 12,7 C 7,2 C 65 % 1007,4 hPa 0,0 l/m 15,5 km/h (3 Bft) W 273 0 min 0,000 mm 0,0 UV-I 0 W/m 6,3 C 8,2 C 25,7 km/h (4 Bft) 100,00 %
04.04.2018 23:32 12,7 C 7,2 C 65 % 1007,3 hPa 0,0 l/m 14,0 km/h (3 Bft) W-SW 251 0 min 0,000 mm 0,0 UV-I 0 W/m 6,3 C 8,8 C 17,7 km/h (3 Bft) 96,00 %
04.04.2018 23:34 12,7 C 7,2 C 65 % 1007,3 hPa 0,0 l/m 11,3 km/h (2 Bft) SW 232 0 min 0,000 mm 0,0 UV-I 0 W/m 6,3 C 9,9 C 17,7 km/h (3 Bft) 100,00 %
04.04.2018 23:36 12,6 C 7,2 C 65 % 1007,3 hPa 0,0 l/m 11,4 km/h (2 Bft) W-SW 252 0 min 0,000 mm 0,0 UV-I 0 W/m 6,2 C 9,8 C 17,7 km/h (3 Bft) 100,00 %
04.04.2018 23:38 12,5 C 7,2 C 66 % 1007,3 hPa 0,0 l/m 12,9 km/h (3 Bft) W-SW 257 0 min 0,000 mm 0,0 UV-I 0 W/m 6,3 C 9,0 C 19,3 km/h (3 Bft) 100,00 %
04.04.2018 23:40 12,4 C 7,2 C 66 % 1007,4 hPa 0,0 l/m 13,9 km/h (3 Bft) W-SW 258 0 min 0,000 mm 0,0 UV-I 0 W/m 6,2 C 8,5 C 17,7 km/h (3 Bft) 100,00 %
04.04.2018 23:42 12,4 C 7,2 C 66 % 1007,5 hPa 0,0 l/m 9,7 km/h (2 Bft) SW 234 0 min 0,000 mm 0,0 UV-I 0 W/m 6,2 C 10,4 C 12,9 km/h (3 Bft) 97,56 %
04.04.2018 23:44 12,4 C 7,2 C 65 % 1007,6 hPa 0,0 l/m 12,2 km/h (2 Bft) W-SW 239 0 min 0,000 mm 0,0 UV-I 0 W/m 6,0 C 9,2 C 19,3 km/h (3 Bft) 98,11 %
04.04.2018 23:46 12,4 C 7,2 C 65 % 1007,6 hPa 0,0 l/m 9,7 km/h (2 Bft) W 278 0 min 0,000 mm 0,0 UV-I 0 W/m 6,0 C 10,4 C 16,1 km/h (3 Bft) 100,00 %
04.04.2018 23:48 12,4 C 7,2 C 65 % 1007,7 hPa 0,0 l/m 11,6 km/h (2 Bft) W-SW 255 0 min 0,000 mm 0,0 UV-I 0 W/m 6,0 C 9,5 C 14,5 km/h (3 Bft) 100,00 %
04.04.2018 23:50 12,4 C 7,2 C 65 % 1007,7 hPa 0,0 l/m 11,0 km/h (2 Bft) W-SW 241 0 min 0,000 mm 0,0 UV-I 0 W/m 6,0 C 9,7 C 16,1 km/h (3 Bft) 100,00 %
04.04.2018 23:52 12,4 C 7,2 C 65 % 1007,7 hPa 0,0 l/m 6,8 km/h (2 Bft) W-SW 239 0 min 0,000 mm 0,0 UV-I 0 W/m 6,0 C 12,1 C 9,7 km/h (2 Bft) 98,00 %
04.04.2018 23:54 12,3 C 7,2 C 65 % 1007,8 hPa 0,0 l/m 9,2 km/h (2 Bft) SW 235 0 min 0,000 mm 0,0 UV-I 0 W/m 5,9 C 10,6 C 14,5 km/h (3 Bft) 97,37 %
04.04.2018 23:56 12,3 C 7,2 C 65 % 1007,8 hPa 0,0 l/m 8,5 km/h (2 Bft) W 261 0 min 0,000 mm 0,0 UV-I 0 W/m 5,9 C 11,0 C 11,3 km/h (2 Bft) 100,00 %
04.04.2018 23:58 12,2 C 7,2 C 65 % 1007,7 hPa 0,0 l/m 9,5 km/h (2 Bft) W-NW 284 0 min 0,000 mm 0,0 UV-I 0 W/m 5,8 C 10,3 C 14,5 km/h (3 Bft) 100,00 %
_ Min-Zeit 04:56 00:00 14:54 18:16 - 00:00 - - - - - - 23:58 21:44 00:00 15:00
Minimum _ 7,7 C 7,2 C 41 % 1001,6 hPa - 0,0 km/h (0 Bft) - - - - - - 5,8 C 5,1 C 0,0 km/h (0 Bft) 90,91 %
_ Max-Zeit 15:06 00:00 05:48 23:54 00:00 22:26 - - 15:29 14:02 13:14 13:26 13:38 15:02 22:20 00:00
Maximum _ 21,4 C 7,2 C 92 % 1007,8 hPa 0,0 l/m 30,7 km/h
W (5 Bft)
- - 3 min 0,431 mm 3,4 UV-I 754 W/m 12,0 C 21,3 C 57,9 km/h
W-SW (7 Bft)
100,00 %
Durchschnitt _ 13,9 C 7,2 C 71 % 1004,8 hPa #0,0 l/m 6,2 km/h (2 Bft) O - #9:16 h #3,429 mm 2,0 UV-I 371 W/m 8,2 C 13,1 C 9,7 km/h (2 Bft) 98,09 %